[[{"header":{"parameterUnit":"m.s-1","parameterCategory":1,"la1":31.0,"la2":29.5877,"lo1":-88.7671,"lo2":-86.6584,"dy":0.0162,"dx":0.0185,"nx":115,"ny":88,"refTime":"2024-04-14T06:00:00:Z","depth":0,"parameterNumber":2,"parameterNumberName":"U-component_of_WINDS"},"data":[0.0,0.0,0.0,0.0,0.0,0.0,0.0,0.0,0.0,0.0,0.0,0.0,0.0,0.0,0.0,0.0,0.0,0.0,0.0,0.0,0.0,0.0,0.0,0.0,0.0,0.0,0.0,0.0,0.0,0.0,0.0,0.0,0.0,0.0,0.0,0.0,0.0,0.0,0.0,0.0,0.0,0.0,0.0,0.0,0.0,0.0,0.0,0.0,0.0,0.0,0.0,0.0,0.0,0.0,0.0,0.0,0.0,0.0,0.0,0.0,0.0,0.0,0.0,0.0,0.0,0.0,0.0,0.0,0.0,0.0,0.0,0.0,0.0,0.0,0.0,0.0,0.0,0.0,0.0,0.0,0.0,0.0,0.0,0.0,0.0,0.0,0.0,0.0,0.0,0.0,0.0,0.0,0.0,0.0,0.0,0.0,0.0,0.0,0.0,0.0,0.0,0.0,0.0,0.0,0.0,0.0,0.0,0.0,0.0,0.0,0.0,0.0,0.0,0.0,0.0,0.0,0.0,0.0,0.0,0.0,0.0,0.0,0.0,0.0,0.0,0.0,0.0,0.0,0.0,0.0,0.0,0.0,0.0,0.0,0.0,0.0,0.0,0.0,0.0,0.0,0.0,0.0,0.0,0.0,0.0,0.0,0.0,0.0,0.0,0.0,0.0,0.0,0.0,0.0,0.0,0.0,0.0,0.0,0.0,0.0,0.0,0.0,0.0,0.0,0.0,0.0,0.0,0.0,0.0,0.0,0.0,0.0,0.0,0.0,0.0,0.0,0.0,0.0,0.0,0.0,0.0,0.0,0.0,0.0,0.0,0.0,0.0,0.0,0.0,0.0,0.0,0.0,0.0,0.0,0.0,0.0,0.0,0.0,0.0,0.0,0.0,0.0,0.0,0.0,0.0,0.0,0.0,0.0,0.0,0.0,0.0,0.0,0.0,0.0,0.0,0.0,0.0,0.0,0.0,0.0,0.0,0.0,0.0,0.0,0.0,0.0,0.0,0.0,0.0,0.0,0.0,0.0,0.0,0.0,0.0,0.0,0.0,0.0,0.0,0.0,0.0,0.0,0.0,0.0,0.0,0.0,0.0,0.0,0.0,0.0,0.0,0.0,0.0,0.0,0.0,0.0,0.0,0.0,0.0,0.0,0.0,0.0,0.0,0.0,0.0,0.0,0.0,0.0,0.0,0.0,0.0,0.0,0.0,0.0,0.0,0.0,0.0,0.0,0.0,0.0,0.0,0.0,0.0,0.0,0.0,0.0,0.0,0.0,0.0,0.0,0.0,0.0,0.0,0.0,0.0,0.0,0.0,0.0,0.0,0.0,0.0,0.0,0.0,0.0,0.0,0.0,0.0,0.0,0.0,0.0,0.0,0.0,0.0,0.0,0.0,0.0,0.0,0.0,0.0,0.0,0.0,0.0,0.0,0.0,0.0,0.0,0.0,0.0,0.0,0.0,0.0,0.0,0.0,0.0,0.0,0.0,0.0,0.0,0.0,0.0,0.0,0.0,0.0,0.0,0.0,0.0,0.0,0.0,0.0,0.0,0.0,0.0,0.0,0.0,0.0,0.0,0.0,0.0,0.0,0.0,0.0,0.0,0.0,0.0,0.0,0.0,0.0,0.0,0.0,0.0,0.0,0.0,0.0,0.0,0.0,0.0,0.0,0.0,0.0,0.0,0.0,0.0,0.0,0.0,0.0,0.0,0.0,0.0,0.0,0.0,0.0,0.0,0.0,0.0,0.0,0.0,0.0,0.0,0.0,0.0,0.0,0.0,0.0,0.0,0.0,0.0,0.0,0.0,0.0,0.0,0.0,0.0,0.0,0.0,0.0,0.0,0.0,0.0,0.0,0.0,0.0,0.0,0.0,0.0,0.0,0.0,0.0,0.0,0.0,0.0,0.0,0.0,0.0,0.0,0.0,0.0,0.0,0.0,0.0,0.0,0.0,0.0,0.0,0.0,0.0,0.0,0.0,0.0,0.0,0.0,0.0,0.0,0.0,0.0,0.0,0.0,0.0,0.0,0.0,0.0,0.0,0.0,0.0,0.0,0.0,0.0,0.0,0.0,0.0,0.0,0.0,0.0,0.0,0.0,0.0,0.0,0.0,0.0,0.0,0.0,0.0,0.0,0.0,0.0,0.0,0.0,0.0,0.0,0.0,0.0,0.0,0.0,0.0,0.0,0.0,0.0,0.0,0.0,0.0,0.0,0.0,0.0,0.0,0.0,0.0,0.0,0.0,0.0,0.0,0.0,0.0,0.0,0.0,0.0,0.0,0.0,0.0,0.0,0.0,0.0,0.0,0.0,0.0,0.0,0.0,0.0,0.0,0.0,0.0,0.0,0.0,0.0,0.0,0.0,0.0,0.0,0.0,0.0,0.0,0.0,0.0,0.0,0.0,0.0,0.0,0.0,0.0,0.0,0.0,0.0,0.0,0.0,0.0,0.0,0.0,0.0,0.0,0.0,0.0,0.0,0.0,0.0,0.0,0.0,0.0,0.0,0.0,0.0,0.0,0.0,0.0,0.0,0.0,0.0,0.0,0.0,0.0,0.0,0.0,0.0,0.0,0.0,0.0,0.0,0.0,0.0,0.0,0.0,0.0,0.0,0.0,0.0,0.0,0.0,0.0,0.0,0.0,0.0,0.0,0.0,0.0,0.0,0.0,0.0,0.0,0.0,0.0,0.0,0.0,0.0,0.0,0.0,0.0,0.0,0.0,0.0,0.0,0.0,0.0,0.0,0.0,0.0,0.0,0.0,0.0,0.0,0.0,0.0,0.0,0.0,0.0,0.0,0.0,0.0,0.0,0.0,0.0,0.0,0.0,0.0,0.0,0.0,0.0,0.0,0.0,0.0,0.0,0.0,0.0,0.0,0.0,0.0,0.0,0.0,0.0,0.0,0.0,0.0,0.0,0.0,0.0,0.0,0.0,0.0,0.0,0.0,0.0,0.0,0.0,0.0,0.0,0.0,0.0,0.0,0.0,0.0,0.0,0.0,0.0,0.0,0.0,0.0,0.0,0.0,0.0,0.0,0.0,0.0,0.0,0.0,0.0,0.0,0.0,0.0,0.0,0.0,0.0,0.0,0.0,0.0,0.0,0.0,0.0,0.0,0.0,0.0,0.0,0.0,0.0,0.0,0.0,0.0,0.0,0.0,0.0,0.0,0.0,0.0,0.0,0.0,0.0,0.0,0.0,0.0,0.0,0.0,0.0,0.0,0.0,0.0,0.0,0.0,0.0,0.0,0.0,0.0,0.0,0.0,0.0,0.0,0.0,0.0,0.0,0.0,0.0,0.0,0.0,0.0,0.0,0.0,0.0,0.0,0.0,0.0,0.0,0.0,0.0,0.0,0.0,0.0,0.0,0.0,0.0,0.0,0.0,0.0,0.0,0.0,0.0,0.0,0.0,0.0,0.0,0.0,0.0,0.0,0.0,0.0,0.0,0.0,0.0,0.0,0.0,0.0,0.0,0.0,0.0,0.0,0.0,0.0,0.0,0.0,0.0,0.0,0.0,0.0,0.0,0.0,0.0,0.0,0.0,0.0,0.0,0.0,0.0,0.0,0.0,0.0,0.0,0.0,0.0,0.0,0.0,0.0,0.0,0.0,0.0,0.0,0.0,0.0,0.0,0.0,0.0,0.0,0.0,0.0,0.0,0.0,0.0,0.0,0.0,0.0,0.0,0.0,0.0,0.0,0.0,0.0,0.0,0.0,0.0,0.0,0.0,0.0,0.0,0.0,0.0,0.0,0.0,0.0,0.0,0.0,0.0,0.0,0.0,0.0,0.0,0.0,0.0,0.0,0.0,0.0,0.0,0.0,0.0,0.0,0.0,0.0,0.0,0.0,0.0,0.0,0.0,0.0,0.0,0.0,0.0,0.0,0.0,0.0,0.0,0.0,0.0,0.0,0.0,0.0,0.0,0.0,0.0,0.0,0.0,0.0,0.0,0.0,0.0,0.0,0.0,0.0,0.0,0.0,0.0,0.0,0.0,0.0,0.0,0.0,0.0,0.0,0.0,0.0,0.0,0.0,0.0,0.0,0.0,0.0,0.0,0.0,0.0,0.0,0.0,0.0,0.0,0.0,0.0,0.0,0.0,0.0,0.0,0.0,0.0,0.0,0.0,0.0,0.0,0.0,0.0,0.0,0.0,0.0,0.0,0.0,0.0,0.0,0.0,0.0,0.0,0.0,0.0,0.0,0.0,0.0,0.0,0.0,0.0,0.0,0.0,0.0,0.0,0.0,0.0,0.0,0.0,0.0,0.0,0.0,-4.9759,0.0,0.0,0.0,0.0,0.0,0.0,0.0,0.0,0.0,0.0,0.0,0.0,0.0,0.0,0.0,0.0,0.0,0.0,0.0,0.0,0.0,0.0,0.0,0.0,0.0,0.0,0.0,0.0,0.0,0.0,0.0,0.0,0.0,0.0,0.0,0.0,0.0,0.0,0.0,0.0,0.0,0.0,0.0,0.0,0.0,0.0,0.0,0.0,0.0,0.0,0.0,0.0,0.0,0.0,0.0,0.0,0.0,0.0,0.0,0.0,0.0,0.0,0.0,0.0,0.0,0.0,0.0,0.0,0.0,0.0,0.0,0.0,0.0,0.0,0.0,0.0,0.0,0.0,0.0,0.0,0.0,0.0,0.0,0.0,0.0,0.0,0.0,0.0,0.0,0.0,0.0,0.0,0.0,0.0,0.0,0.0,0.0,0.0,0.0,0.0,0.0,0.0,0.0,0.0,0.0,0.0,0.0,0.0,0.0,0.0,-5.0367,-5.0267,-5.0114,-4.9978,-4.9788,0.0,0.0,0.0,0.0,0.0,0.0,0.0,0.0,0.0,0.0,0.0,0.0,0.0,0.0,0.0,0.0,0.0,0.0,0.0,0.0,0.0,0.0,0.0,0.0,0.0,0.0,0.0,0.0,0.0,0.0,0.0,0.0,0.0,0.0,0.0,0.0,0.0,0.0,0.0,0.0,0.0,0.0,0.0,0.0,0.0,0.0,0.0,0.0,0.0,0.0,0.0,0.0,0.0,0.0,0.0,0.0,0.0,0.0,0.0,0.0,0.0,0.0,0.0,0.0,0.0,0.0,0.0,0.0,0.0,0.0,0.0,0.0,0.0,0.0,0.0,0.0,0.0,0.0,0.0,0.0,0.0,0.0,0.0,0.0,0.0,0.0,0.0,0.0,0.0,0.0,0.0,0.0,0.0,0.0,0.0,0.0,0.0,0.0,0.0,0.0,0.0,0.0,0.0,0.0,0.0,0.0,0.0,0.0,0.0,0.0,0.0,0.0,-5.0163,-4.9992,-4.9764,0.0,0.0,0.0,0.0,0.0,0.0,0.0,0.0,0.0,0.0,0.0,0.0,0.0,0.0,0.0,0.0,0.0,0.0,0.0,0.0,0.0,0.0,0.0,0.0,0.0,0.0,0.0,0.0,0.0,0.0,0.0,0.0,0.0,0.0,0.0,0.0,0.0,0.0,0.0,0.0,0.0,0.0,0.0,0.0,0.0,0.0,0.0,0.0,0.0,0.0,0.0,0.0,0.0,0.0,0.0,0.0,0.0,0.0,0.0,0.0,0.0,0.0,0.0,0.0,0.0,0.0,0.0,0.0,0.0,0.0,0.0,0.0,0.0,0.0,0.0,0.0,0.0,0.0,0.0,0.0,0.0,0.0,0.0,0.0,0.0,0.0,0.0,0.0,0.0,0.0,0.0,0.0,0.0,0.0,0.0,0.0,0.0,0.0,0.0,0.0,0.0,0.0,0.0,0.0,0.0,0.0,0.0,0.0,0.0,0.0,-5.0468,-5.0401,-5.0207,0.0,-4.9619,0.0,0.0,0.0,0.0,0.0,0.0,0.0,0.0,0.0,0.0,0.0,0.0,0.0,0.0,0.0,0.0,0.0,0.0,0.0,0.0,0.0,0.0,0.0,0.0,0.0,0.0,0.0,0.0,0.0,0.0,0.0,0.0,0.0,0.0,0.0,0.0,0.0,0.0,0.0,0.0,0.0,0.0,0.0,0.0,0.0,0.0,0.0,0.0,0.0,0.0,0.0,0.0,0.0,0.0,0.0,0.0,0.0,0.0,0.0,0.0,0.0,0.0,0.0,0.0,0.0,0.0,0.0,0.0,0.0,0.0,0.0,0.0,0.0,0.0,0.0,0.0,0.0,0.0,0.0,0.0,0.0,0.0,0.0,0.0,0.0,0.0,0.0,0.0,0.0,0.0,0.0,0.0,0.0,0.0,0.0,0.0,0.0,0.0,0.0,0.0,0.0,0.0,0.0,0.0,0.0,0.0,0.0,0.0,0.0,0.0,-5.047,-5.0468,-5.0175,-4.9925,0.0,0.0,0.0,0.0,0.0,0.0,0.0,0.0,0.0,0.0,0.0,0.0,0.0,0.0,0.0,0.0,0.0,0.0,0.0,0.0,0.0,0.0,0.0,0.0,0.0,0.0,0.0,0.0,0.0,0.0,0.0,0.0,0.0,0.0,0.0,0.0,0.0,0.0,0.0,0.0,0.0,0.0,0.0,0.0,0.0,0.0,0.0,0.0,0.0,0.0,0.0,0.0,0.0,0.0,0.0,0.0,0.0,0.0,0.0,0.0,0.0,0.0,0.0,0.0,0.0,0.0,0.0,0.0,0.0,0.0,0.0,0.0,0.0,0.0,0.0,0.0,0.0,0.0,0.0,0.0,0.0,0.0,0.0,0.0,0.0,0.0,0.0,0.0,0.0,0.0,0.0,0.0,0.0,0.0,0.0,0.0,0.0,0.0,0.0,0.0,0.0,0.0,0.0,0.0,0.0,0.0,0.0,0.0,0.0,0.0,-5.0563,-5.0459,-5.0382,-5.0145,-4.9912,-4.9707,0.0,0.0,0.0,0.0,0.0,0.0,0.0,0.0,0.0,0.0,0.0,0.0,0.0,0.0,0.0,0.0,0.0,0.0,0.0,0.0,0.0,0.0,0.0,0.0,0.0,0.0,0.0,0.0,0.0,0.0,0.0,0.0,0.0,0.0,0.0,0.0,0.0,0.0,0.0,0.0,0.0,0.0,0.0,0.0,0.0,0.0,0.0,0.0,0.0,0.0,0.0,0.0,0.0,0.0,0.0,0.0,0.0,0.0,0.0,0.0,0.0,0.0,0.0,0.0,0.0,0.0,0.0,0.0,0.0,0.0,0.0,0.0,0.0,0.0,0.0,0.0,0.0,0.0,0.0,0.0,0.0,0.0,0.0,0.0,0.0,0.0,0.0,0.0,0.0,0.0,0.0,0.0,0.0,0.0,0.0,0.0,0.0,0.0,0.0,0.0,0.0,0.0,0.0,0.0,0.0,0.0,0.0,0.0,-5.0683,-5.0563,-5.0371,-5.0133,-5.0044,-4.9912,0.0,0.0,0.0,0.0,0.0,0.0,0.0,0.0,0.0,0.0,0.0,0.0,0.0,0.0,0.0,0.0,0.0,0.0,0.0,0.0,0.0,0.0,0.0,0.0,0.0,0.0,0.0,0.0,0.0,0.0,0.0,0.0,0.0,0.0,0.0,0.0,0.0,0.0,0.0,0.0,0.0,0.0,0.0,0.0,0.0,0.0,0.0,0.0,0.0,0.0,0.0,0.0,0.0,0.0,0.0,0.0,0.0,0.0,0.0,0.0,0.0,0.0,0.0,0.0,0.0,0.0,0.0,0.0,0.0,0.0,0.0,0.0,0.0,0.0,0.0,0.0,0.0,0.0,0.0,0.0,0.0,0.0,0.0,0.0,0.0,0.0,0.0,0.0,0.0,0.0,0.0,0.0,0.0,0.0,0.0,0.0,0.0,0.0,0.0,0.0,0.0,0.0,0.0,0.0,0.0,0.0,0.0,0.0,0.0,-5.0683,-5.0563,-5.0393,-5.0163,-5.0089,-4.9952,0.0,0.0,0.0,0.0,0.0,0.0,0.0,0.0,0.0,0.0,0.0,0.0,0.0,0.0,0.0,0.0,0.0,0.0,0.0,0.0,0.0,0.0,0.0,0.0,0.0,0.0,0.0,0.0,0.0,0.0,0.0,0.0,0.0,0.0,0.0,0.0,0.0,0.0,0.0,0.0,0.0,0.0,0.0,0.0,0.0,0.0,0.0,0.0,0.0,0.0,0.0,0.0,0.0,0.0,0.0,0.0,0.0,0.0,0.0,0.0,0.0,0.0,0.0,0.0,0.0,0.0,0.0,0.0,0.0,0.0,0.0,0.0,0.0,0.0,0.0,0.0,0.0,0.0,0.0,0.0,0.0,0.0,0.0,0.0,0.0,0.0,0.0,0.0,0.0,0.0,0.0,0.0,0.0,0.0,0.0,0.0,0.0,0.0,0.0,0.0,0.0,0.0,0.0,0.0,0.0,0.0,0.0,0.0,0.0,-5.0663,0.0,-5.0416,-5.0255,-5.0145,-4.9992,0.0,0.0,0.0,0.0,0.0,0.0,0.0,0.0,0.0,0.0,0.0,0.0,0.0,0.0,0.0,0.0,0.0,0.0,0.0,0.0,0.0,0.0,0.0,0.0,0.0,0.0,0.0,0.0,0.0,0.0,0.0,0.0,0.0,0.0,0.0,0.0,0.0,0.0,0.0,0.0,0.0,0.0,0.0,0.0,0.0,0.0,0.0,0.0,0.0,0.0,0.0,0.0,0.0,0.0,0.0,0.0,0.0,0.0,0.0,0.0,0.0,0.0,0.0,0.0,0.0,0.0,0.0,0.0,0.0,0.0,0.0,0.0,0.0,0.0,0.0,0.0,0.0,0.0,0.0,0.0,0.0,0.0,0.0,0.0,0.0,0.0,0.0,0.0,0.0,0.0,0.0,0.0,0.0,0.0,0.0,0.0,0.0,0.0,0.0,0.0,0.0,0.0,0.0,0.0,0.0,0.0,0.0,0.0,-5.0663,-5.0603,-5.0532,-5.0427,-5.0302,-5.017,-5.0005,0.0,0.0,0.0,0.0,0.0,0.0,0.0,0.0,0.0,0.0,0.0,0.0,0.0,0.0,0.0,0.0,0.0,0.0,0.0,0.0,0.0,0.0,0.0,0.0,0.0,0.0,0.0,0.0,0.0,0.0,0.0,0.0,0.0,0.0,0.0,0.0,0.0,0.0,0.0,0.0,0.0,0.0,0.0,0.0,0.0,0.0,0.0,0.0,0.0,0.0,0.0,0.0,0.0,0.0,0.0,0.0,0.0,0.0,0.0,0.0,0.0,0.0,0.0,0.0,0.0,0.0,0.0,0.0,0.0,0.0,0.0,0.0,0.0,0.0,0.0,0.0,0.0,0.0,0.0,0.0,0.0,0.0,0.0,0.0,0.0,0.0,0.0,0.0,0.0,0.0,0.0,0.0,0.0,0.0,0.0,0.0,0.0,0.0,0.0,0.0,0.0,0.0,0.0,0.0,0.0,0.0,0.0,0.0,0.0,-5.0682,-5.0553,-5.0468,-5.0359,-5.0194,-5.0005,0.0,0.0,0.0,0.0,0.0,0.0,0.0,0.0,0.0,0.0,0.0,0.0,0.0,0.0,0.0,0.0,0.0,0.0,0.0,0.0,0.0,0.0,0.0,0.0,0.0,0.0,0.0,0.0,0.0,0.0,0.0,0.0,0.0,0.0,0.0,0.0,0.0,0.0,0.0,0.0,0.0,0.0,0.0,0.0,0.0,0.0,0.0,0.0,0.0,0.0,0.0,0.0,0.0,0.0,0.0,0.0,0.0,0.0,0.0,0.0,0.0,0.0,0.0,0.0,0.0,0.0,0.0,0.0,0.0,0.0,0.0,0.0,0.0,0.0,0.0,0.0,0.0,0.0,0.0,0.0,0.0,0.0,0.0,0.0,0.0,0.0,0.0,0.0,0.0,0.0,0.0,0.0,0.0,0.0,0.0,0.0,0.0,0.0,0.0,0.0,0.0,0.0,0.0,0.0,0.0,0.0,0.0,0.0,0.0,-5.0683,-5.0563,-5.0489,-5.0446,-5.0219,-5.0018,-4.983,0.0,0.0,0.0,0.0,0.0,0.0,0.0,0.0,0.0,0.0,0.0,0.0,0.0,0.0,0.0,0.0,0.0,0.0,0.0,0.0,0.0,0.0,0.0,0.0,0.0,0.0,0.0,0.0,0.0,0.0,0.0,0.0,0.0,0.0,0.0,0.0,0.0,0.0,0.0,0.0,0.0,0.0,0.0,0.0,0.0,0.0,0.0,0.0,0.0,0.0,0.0,0.0,0.0,0.0,0.0,0.0,0.0,0.0,0.0,0.0,0.0,0.0,0.0,0.0,0.0,0.0,0.0,0.0,0.0,0.0,0.0,0.0,0.0,0.0,0.0,0.0,0.0,0.0,0.0,0.0,0.0,0.0,0.0,0.0,0.0,0.0,0.0,0.0,0.0,0.0,0.0,0.0,0.0,0.0,0.0,0.0,0.0,0.0,0.0,0.0,0.0,0.0,0.0,0.0,0.0,0.0,0.0,0.0,-5.0683,-5.0563,-5.05,-5.0519,-5.0243,-5.0044,0.0,0.0,0.0,0.0,0.0,0.0,0.0,0.0,0.0,0.0,0.0,0.0,0.0,0.0,0.0,0.0,0.0,0.0,0.0,0.0,0.0,0.0,0.0,0.0,0.0,0.0,0.0,0.0,0.0,0.0,0.0,0.0,0.0,0.0,0.0,0.0,0.0,0.0,0.0,0.0,0.0,0.0,0.0,0.0,0.0,0.0,0.0,0.0,0.0,0.0,0.0,0.0,0.0,0.0,0.0,0.0,0.0,0.0,0.0,0.0,0.0,0.0,0.0,0.0,0.0,0.0,0.0,0.0,0.0,0.0,0.0,0.0,0.0,0.0,0.0,0.0,0.0,0.0,0.0,0.0,0.0,0.0,0.0,0.0,0.0,0.0,0.0,0.0,0.0,0.0,0.0,0.0,0.0,0.0,0.0,0.0,0.0,0.0,0.0,0.0,0.0,0.0,0.0,0.0,0.0,0.0,0.0,0.0,0.0,-5.0683,-5.0582,-5.05,-5.05,-5.0243,-5.0025,0.0,0.0,0.0,0.0,0.0,0.0,0.0,0.0,0.0,0.0,0.0,0.0,0.0,0.0,0.0,0.0,0.0,0.0,0.0,0.0,0.0,0.0,0.0,0.0,0.0,0.0,0.0,0.0,0.0,0.0,0.0,0.0,0.0,0.0,0.0,0.0,0.0,0.0,0.0,0.0,0.0,0.0,0.0,0.0,0.0,0.0,0.0,0.0,0.0,0.0,0.0,0.0,0.0,0.0,0.0,0.0,0.0,0.0,0.0,0.0,0.0,0.0,0.0,0.0,0.0,0.0,0.0,0.0,0.0,0.0,0.0,0.0,0.0,0.0,0.0,0.0,0.0,0.0,0.0,0.0,0.0,0.0,0.0,0.0,0.0,0.0,0.0,0.0,0.0,0.0,0.0,0.0,0.0,0.0,0.0,0.0,0.0,0.0,0.0,0.0,0.0,0.0,0.0,0.0,0.0,0.0,0.0,0.0,-4.9606,-4.9606,-4.9488,-4.9426,-4.9446,-4.988,-5.0044,0.0,0.0,0.0,0.0,0.0,0.0,0.0,0.0,0.0,0.0,0.0,0.0,0.0,0.0,0.0,0.0,0.0,0.0,0.0,0.0,0.0,0.0,0.0,0.0,0.0,0.0,0.0,0.0,0.0,0.0,0.0,0.0,0.0,0.0,0.0,0.0,0.0,0.0,0.0,0.0,0.0,0.0,0.0,0.0,0.0,0.0,0.0,0.0,0.0,0.0,0.0,0.0,0.0,0.0,0.0,0.0,0.0,0.0,0.0,0.0,0.0,0.0,0.0,0.0,0.0,0.0,0.0,0.0,0.0,0.0,0.0,0.0,0.0,0.0,0.0,0.0,0.0,0.0,0.0,0.0,0.0,0.0,0.0,0.0,0.0,0.0,0.0,0.0,0.0,0.0,0.0,0.0,0.0,0.0,0.0,0.0,0.0,0.0,0.0,0.0,0.0,0.0,0.0,0.0,0.0,0.0,0.0,0.0,-4.8096,-4.8096,-4.8029,-4.8008,-4.8046,-4.9182,-4.9797,0.0,0.0,0.0,0.0,0.0,0.0,0.0,0.0,0.0,0.0,0.0,0.0,0.0,0.0,0.0,0.0,0.0,0.0,0.0,0.0,0.0,0.0,0.0,0.0,0.0,0.0,0.0,0.0,0.0,0.0,0.0,0.0,0.0,0.0,0.0,0.0,0.0,0.0,0.0,0.0,0.0,0.0,0.0,0.0,0.0,0.0,0.0,0.0,0.0,0.0,0.0,0.0,0.0,0.0,0.0,0.0,0.0,0.0,0.0,0.0,0.0,0.0,0.0,0.0,0.0,0.0,0.0,0.0,0.0,0.0,0.0,0.0,0.0,0.0,0.0,0.0,0.0,0.0,0.0,0.0,0.0,0.0,0.0,0.0,0.0,0.0,0.0,0.0,0.0,0.0,0.0,0.0,0.0,0.0,0.0,0.0,0.0,0.0,0.0,0.0,0.0,0.0,0.0,0.0,0.0,0.0,0.0,0.0,-4.8096,-4.8096,-4.8029,-4.8008,-4.8008,-4.8067,-4.8067,0.0,0.0,0.0,0.0,0.0,0.0,0.0,0.0,0.0,0.0,0.0,0.0,0.0,0.0,0.0,0.0,0.0,0.0,0.0,0.0,0.0,0.0,0.0,0.0,0.0,0.0,0.0,0.0,0.0,0.0,0.0,0.0,0.0,0.0,0.0,0.0,0.0,0.0,0.0,0.0,0.0,0.0,0.0,0.0,0.0,0.0,0.0,0.0,-4.9835,0.0,0.0,0.0,0.0,0.0,0.0,0.0,0.0,0.0,0.0,0.0,0.0,0.0,0.0,0.0,0.0,0.0,0.0,0.0,0.0,0.0,0.0,0.0,0.0,0.0,0.0,0.0,0.0,0.0,0.0,0.0,0.0,0.0,0.0,0.0,0.0,0.0,0.0,0.0,0.0,0.0,0.0,0.0,0.0,0.0,0.0,0.0,0.0,0.0,0.0,0.0,0.0,0.0,0.0,0.0,0.0,0.0,0.0,0.0,-4.6932,-4.6932,-4.682,-4.679,-4.6781,-4.656,-4.6737,0.0,0.0,0.0,0.0,0.0,0.0,0.0,0.0,0.0,0.0,0.0,0.0,0.0,0.0,0.0,0.0,0.0,0.0,0.0,0.0,0.0,0.0,0.0,0.0,0.0,0.0,0.0,0.0,0.0,0.0,0.0,0.0,0.0,0.0,0.0,0.0,0.0,0.0,0.0,0.0,0.0,0.0,0.0,0.0,0.0,0.0,0.0,0.0,0.0,0.0,0.0,0.0,0.0,0.0,0.0,0.0,0.0,0.0,0.0,0.0,0.0,0.0,0.0,0.0,0.0,0.0,0.0,0.0,0.0,0.0,0.0,0.0,0.0,0.0,0.0,0.0,0.0,0.0,0.0,0.0,0.0,0.0,0.0,0.0,0.0,0.0,0.0,0.0,0.0,0.0,0.0,0.0,0.0,0.0,0.0,0.0,0.0,0.0,0.0,0.0,0.0,0.0,0.0,0.0,0.0,0.0,0.0,-4.5594,-4.5594,-4.5586,-4.5476,-4.541,-4.54,-4.5205,-4.571,-4.6942,0.0,0.0,0.0,0.0,0.0,0.0,0.0,0.0,0.0,0.0,0.0,0.0,0.0,0.0,0.0,0.0,0.0,0.0,0.0,0.0,0.0,0.0,0.0,0.0,0.0,0.0,0.0,0.0,0.0,0.0,0.0,0.0,0.0,0.0,0.0,0.0,0.0,0.0,-5.0683,-5.0683,0.0,0.0,0.0,0.0,0.0,0.0,0.0,0.0,-4.9764,0.0,0.0,0.0,0.0,0.0,0.0,0.0,0.0,0.0,0.0,0.0,0.0,0.0,0.0,0.0,0.0,0.0,0.0,0.0,0.0,0.0,0.0,0.0,0.0,0.0,0.0,0.0,0.0,0.0,0.0,0.0,0.0,0.0,0.0,0.0,0.0,0.0,0.0,0.0,0.0,0.0,0.0,0.0,0.0,0.0,0.0,0.0,0.0,0.0,0.0,0.0,0.0,0.0,0.0,0.0,0.0,-4.5594,-4.5594,-4.5594,-4.5594,-4.5457,-4.541,-4.54,-4.5205,-4.5159,-4.5293,0.0,0.0,0.0,0.0,0.0,0.0,0.0,0.0,0.0,0.0,0.0,0.0,0.0,0.0,0.0,0.0,0.0,0.0,0.0,0.0,0.0,0.0,0.0,0.0,0.0,0.0,0.0,0.0,0.0,0.0,0.0,0.0,0.0,0.0,0.0,0.0,0.0,0.0,0.0,-5.0683,-5.0683,0.0,0.0,0.0,0.0,0.0,0.0,0.0,0.0,-4.957,0.0,0.0,0.0,0.0,0.0,0.0,0.0,0.0,0.0,0.0,0.0,0.0,0.0,0.0,0.0,0.0,0.0,0.0,0.0,0.0,0.0,0.0,0.0,0.0,0.0,0.0,0.0,0.0,0.0,0.0,0.0,0.0,0.0,0.0,0.0,0.0,0.0,0.0,0.0,0.0,0.0,0.0,0.0,0.0,0.0,0.0,0.0,0.0,0.0,0.0,0.0,0.0,0.0,0.0,0.0,-4.5594,-4.5594,-4.5594,-4.5594,-4.5476,-4.541,-4.54,-4.5216,-4.5045,0.0,0.0,0.0,0.0,0.0,0.0,0.0,0.0,0.0,0.0,0.0,0.0,0.0,0.0,0.0,0.0,0.0,0.0,0.0,0.0,0.0,0.0,0.0,0.0,0.0,0.0,0.0,0.0,0.0,0.0,0.0,0.0,0.0,0.0,0.0,0.0,0.0,0.0,0.0,0.0,-5.0683,-5.0683,-5.0683,0.0,0.0,0.0,0.0,0.0,0.0,-4.9848,-4.9615,0.0,0.0,0.0,0.0,0.0,0.0,0.0,0.0,0.0,0.0,0.0,0.0,0.0,0.0,0.0,0.0,0.0,0.0,0.0,0.0,0.0,0.0,0.0,0.0,0.0,0.0,0.0,0.0,0.0,0.0,0.0,0.0,0.0,0.0,0.0,0.0,0.0,0.0,0.0,0.0,0.0,0.0,0.0,0.0,0.0,0.0,0.0,0.0,0.0,0.0,0.0,0.0,0.0,0.0,0.0,-4.5594,-4.5594,-4.5594,-4.5594,-4.5476,-4.541,-4.54,-4.5216,-4.5057,0.0,0.0,0.0,0.0,0.0,0.0,0.0,0.0,0.0,0.0,0.0,0.0,0.0,0.0,0.0,0.0,0.0,0.0,0.0,0.0,0.0,0.0,0.0,0.0,0.0,0.0,0.0,0.0,0.0,0.0,0.0,0.0,0.0,0.0,0.0,0.0,0.0,0.0,0.0,0.0,0.0,-5.0683,-5.0683,-5.0573,0.0,0.0,0.0,0.0,-5.0012,-4.9857,0.0,0.0,0.0,0.0,0.0,0.0,0.0,0.0,0.0,0.0,0.0,0.0,0.0,0.0,0.0,0.0,0.0,0.0,0.0,0.0,0.0,0.0,0.0,0.0,0.0,0.0,0.0,0.0,0.0,0.0,0.0,0.0,0.0,0.0,0.0,0.0,0.0,0.0,0.0,0.0,0.0,0.0,0.0,0.0,0.0,0.0,0.0,0.0,0.0,0.0,0.0,0.0,0.0,0.0,0.0,0.0,-4.5594,-4.5594,-4.5594,-4.5586,-4.5476,-4.541,-4.54,-4.5216,-4.5068,0.0,0.0,0.0,0.0,0.0,0.0,0.0,0.0,0.0,0.0,0.0,0.0,0.0,0.0,0.0,0.0,0.0,0.0,0.0,0.0,0.0,0.0,0.0,0.0,0.0,0.0,0.0,0.0,0.0,0.0,0.0,0.0,0.0,0.0,0.0,0.0,0.0,0.0,0.0,0.0,0.0,-5.0683,-5.0683,-5.0573,-5.05,0.0,0.0,-5.017,-5.0108,-4.9978,0.0,0.0,0.0,0.0,0.0,0.0,0.0,0.0,0.0,0.0,0.0,0.0,0.0,0.0,0.0,0.0,0.0,0.0,0.0,0.0,0.0,0.0,0.0,0.0,0.0,0.0,0.0,0.0,0.0,0.0,0.0,0.0,0.0,0.0,0.0,0.0,0.0,0.0,0.0,0.0,0.0,0.0,0.0,0.0,0.0,0.0,0.0,0.0,0.0,0.0,0.0,0.0,0.0,0.0,0.0,-4.5594,-4.5594,-4.5594,-4.5594,-4.5594,-4.5476,-4.541,-4.541,-4.5248,-4.5114,0.0,0.0,0.0,0.0,0.0,0.0,0.0,0.0,0.0,0.0,0.0,0.0,0.0,0.0,0.0,0.0,0.0,0.0,0.0,0.0,0.0,0.0,0.0,0.0,0.0,0.0,0.0,0.0,0.0,0.0,0.0,0.0,0.0,0.0,0.0,0.0,0.0,0.0,0.0,0.0,0.0,0.0,-5.0683,-5.0604,0.0,0.0,0.0,-5.0231,-5.012,0.0,0.0,0.0,0.0,0.0,0.0,0.0,0.0,0.0,0.0,0.0,0.0,0.0,0.0,0.0,0.0,0.0,0.0,0.0,0.0,0.0,0.0,0.0,0.0,0.0,0.0,0.0,0.0,0.0,0.0,0.0,0.0,0.0,0.0,0.0,0.0,0.0,0.0,0.0,0.0,0.0,0.0,0.0,0.0,0.0,0.0,0.0,0.0,0.0,0.0,0.0,0.0,0.0,0.0,0.0,0.0,0.0,-4.5594,-4.5594,-4.5594,-4.5594,-4.5485,-4.5419,-4.54,-4.5279,0.0,0.0,0.0,0.0,0.0,0.0,0.0,0.0,0.0,0.0,0.0,0.0,0.0,0.0,0.0,0.0,0.0,0.0,0.0,0.0,0.0,0.0,0.0,0.0,0.0,0.0,0.0,-4.4938,0.0,0.0,0.0,0.0,0.0,0.0,0.0,0.0,0.0,0.0,0.0,0.0,0.0,0.0,-5.0683,-5.0683,-5.0633,-5.0582,0.0,0.0,-5.0278,-5.0126,-5.0038,-4.9933,0.0,0.0,0.0,0.0,0.0,0.0,0.0,0.0,0.0,0.0,0.0,0.0,0.0,0.0,0.0,0.0,0.0,0.0,0.0,0.0,0.0,0.0,0.0,0.0,0.0,0.0,0.0,0.0,0.0,0.0,0.0,0.0,0.0,0.0,0.0,0.0,0.0,0.0,0.0,0.0,0.0,0.0,0.0,0.0,0.0,0.0,0.0,0.0,0.0,0.0,0.0,0.0,0.0,0.0,-4.5594,-4.5594,-4.5594,-4.5594,-4.5586,-4.5522,-4.5476,-4.541,-4.532,-4.5205,0.0,0.0,0.0,0.0,0.0,0.0,0.0,0.0,0.0,0.0,0.0,0.0,0.0,0.0,0.0,0.0,0.0,0.0,0.0,0.0,0.0,0.0,0.0,0.0,0.0,0.0,0.0,0.0,0.0,0.0,0.0,0.0,0.0,0.0,0.0,0.0,0.0,0.0,0.0,0.0,0.0,-5.0683,-5.0683,-5.0643,-5.0563,0.0,-5.0446,-5.0337,-5.02,-5.0175,-5.0114,-4.992,0.0,0.0,0.0,0.0,0.0,0.0,0.0,0.0,0.0,0.0,0.0,0.0,0.0,0.0,0.0,0.0,0.0,0.0,0.0,0.0,0.0,0.0,0.0,0.0,0.0,0.0,0.0,0.0,0.0,0.0,0.0,0.0,0.0,0.0,0.0,0.0,0.0,0.0,0.0,0.0,0.0,0.0,0.0,0.0,0.0,0.0,0.0,0.0,0.0,0.0,0.0,0.0,0.0,-4.4066,-4.4066,-4.4547,-4.4816,-4.4797,-4.4773,-4.4718,-4.4652,-4.4087,-4.3711,0.0,0.0,0.0,0.0,0.0,0.0,0.0,0.0,0.0,0.0,0.0,0.0,0.0,0.0,0.0,0.0,0.0,0.0,0.0,0.0,0.0,0.0,0.0,0.0,0.0,0.0,0.0,0.0,-4.5317,-4.5389,-4.5438,0.0,0.0,0.0,0.0,0.0,0.0,0.0,0.0,0.0,0.0,-5.0683,-5.0683,-5.0633,0.0,0.0,-5.0446,-5.0367,-5.0231,-5.0207,-5.0151,-5.0038,-4.9973,0.0,0.0,0.0,0.0,0.0,0.0,0.0,0.0,0.0,0.0,0.0,0.0,0.0,0.0,0.0,0.0,0.0,0.0,0.0,0.0,0.0,0.0,0.0,0.0,0.0,0.0,0.0,0.0,0.0,0.0,0.0,0.0,0.0,0.0,0.0,0.0,0.0,0.0,0.0,0.0,0.0,0.0,0.0,0.0,0.0,0.0,0.0,0.0,0.0,0.0,0.0,0.0,-4.3102,-4.3085,-4.3643,-4.3951,-4.3932,-4.3955,-4.392,-4.3827,-4.3168,-4.2805,0.0,0.0,0.0,0.0,0.0,0.0,0.0,0.0,0.0,0.0,0.0,0.0,0.0,0.0,0.0,0.0,0.0,0.0,0.0,0.0,0.0,0.0,0.0,0.0,0.0,0.0,0.0,0.0,-4.5389,-4.5448,-4.5532,0.0,0.0,0.0,0.0,0.0,0.0,0.0,0.0,0.0,0.0,-5.0663,-5.0663,-5.0613,-5.0542,-5.0478,-5.0435,-5.0348,-5.0236,-5.0243,-5.0219,-5.0145,0.0,0.0,0.0,0.0,0.0,0.0,0.0,0.0,0.0,0.0,0.0,0.0,0.0,0.0,0.0,0.0,0.0,0.0,0.0,0.0,0.0,0.0,0.0,0.0,0.0,0.0,0.0,-4.5911,0.0,0.0,-4.5866,0.0,0.0,0.0,0.0,0.0,0.0,0.0,0.0,0.0,0.0,0.0,0.0,0.0,0.0,0.0,0.0,0.0,0.0,0.0,0.0,0.0,0.0,-4.3049,-4.3066,-4.3094,-4.3124,-4.3124,-4.3124,-4.3079,-4.3037,-4.2935,-4.2842,-4.2737,0.0,0.0,0.0,0.0,0.0,0.0,0.0,0.0,0.0,0.0,0.0,0.0,0.0,0.0,0.0,0.0,0.0,0.0,0.0,0.0,0.0,0.0,0.0,0.0,0.0,0.0,-4.5379,-4.5458,-4.5513,0.0,0.0,0.0,0.0,0.0,0.0,0.0,0.0,0.0,0.0,-4.9557,-5.0603,-5.0603,-5.0542,-5.0478,-5.0424,-5.0401,-5.0379,-5.0302,-5.0302,-5.0259,0.0,0.0,0.0,0.0,0.0,0.0,0.0,0.0,0.0,0.0,0.0,0.0,0.0,0.0,0.0,0.0,0.0,0.0,0.0,0.0,0.0,0.0,0.0,0.0,0.0,0.0,0.0,-4.6056,-4.6027,0.0,0.0,0.0,0.0,0.0,0.0,0.0,0.0,0.0,0.0,0.0,-4.3889,-4.3617,0.0,0.0,0.0,0.0,0.0,0.0,0.0,0.0,0.0,0.0,0.0,0.0,-4.1434,-4.1458,-4.2006,-4.2298,-4.2298,-4.2274,-4.2195,-4.2134,-4.1579,-4.1231,-4.1074,0.0,0.0,0.0,0.0,0.0,0.0,0.0,0.0,0.0,0.0,0.0,0.0,0.0,0.0,0.0,0.0,0.0,0.0,0.0,0.0,0.0,0.0,0.0,0.0,0.0,-4.539,0.0,0.0,0.0,0.0,0.0,0.0,0.0,0.0,0.0,0.0,0.0,-4.8068,-4.8039,-4.9499,-5.0593,-5.0532,-5.0478,-5.0424,0.0,0.0,0.0,0.0,0.0,0.0,0.0,0.0,0.0,0.0,0.0,0.0,0.0,0.0,-4.9413,-4.82,-4.7491,-4.6809,-4.59,0.0,0.0,0.0,0.0,0.0,0.0,0.0,0.0,0.0,0.0,0.0,0.0,0.0,0.0,-4.5971,0.0,-4.5674,0.0,0.0,0.0,0.0,0.0,0.0,0.0,0.0,-4.3261,-4.3125,-4.3069,-4.2773,-4.26,0.0,-4.1981,-4.1965,0.0,0.0,0.0,0.0,0.0,0.0,0.0,0.0,-4.0621,-4.0633,-4.1145,-4.145,-4.1455,-4.1405,-4.1354,-4.1283,-4.0759,-4.0432,-4.0261,-4.028,-4.0234,0.0,0.0,0.0,0.0,0.0,0.0,0.0,0.0,0.0,0.0,0.0,0.0,0.0,0.0,0.0,0.0,0.0,0.0,0.0,0.0,0.0,0.0,0.0,-4.516,0.0,0.0,0.0,0.0,0.0,0.0,0.0,0.0,0.0,-4.6009,-4.7241,-4.8164,-4.8414,-4.966,-5.0511,-5.0478,0.0,0.0,0.0,0.0,0.0,0.0,0.0,-5.0424,-5.0489,-5.05,-5.05,-5.05,-5.05,-5.05,-5.05,0.0,0.0,-4.9158,-4.8493,-4.781,-4.6852,-4.6638,-4.6303,-4.5289,-4.4997,-4.4777,0.0,0.0,0.0,0.0,0.0,0.0,0.0,0.0,-4.6167,-4.569,0.0,-4.489,0.0,0.0,0.0,0.0,0.0,-4.3484,0.0,0.0,-4.2627,-4.2279,-4.2198,-4.1425,-4.1009,-4.1009,-4.1046,-4.1007,-4.0943,-4.0854,0.0,0.0,0.0,0.0,0.0,0.0,-4.0668,-4.0602,-4.0633,-4.0619,-4.0634,-4.0607,-4.0592,-4.0516,-4.0507,-4.0458,-4.0415,-4.0407,-4.0344,-4.0215,-4.0205,0.0,0.0,0.0,0.0,0.0,0.0,0.0,0.0,0.0,0.0,0.0,0.0,0.0,0.0,0.0,0.0,0.0,0.0,0.0,0.0,-4.3739,0.0,0.0,0.0,0.0,0.0,0.0,0.0,0.0,0.0,0.0,-4.6836,-4.7559,-4.8337,-4.9172,0.0,0.0,0.0,0.0,-5.0302,-5.0302,-5.0302,-5.0325,-5.0401,-5.0393,-5.0435,-5.05,0.0,0.0,-5.0511,-5.0511,-5.0511,-5.0511,-5.0511,-5.0199,-4.9323,-4.9121,-4.8738,-4.7841,-4.7561,-4.7163,-4.6417,-4.5906,-4.5435,-4.6306,0.0,0.0,0.0,0.0,-4.6269,-4.6264,-4.622,-4.5607,-4.5224,-4.4938,-4.4312,0.0,0.0,0.0,0.0,0.0,0.0,-4.1822,-4.1802,-4.1549,-4.1434,-4.1432,-4.1195,-4.1073,-4.1064,-4.1078,-4.1042,-4.0972,-4.0953,-4.0911,-4.0853,0.0,0.0,0.0,0.0,-4.0769,-4.0739,-4.0694,-4.0668,-4.0666,-4.0626,-4.0591,-4.0573,-4.0535,-4.0495,-4.0466,-4.0458,-4.0432,-4.0334,-4.0325,0.0,0.0,0.0,0.0,0.0,0.0,0.0,0.0,0.0,0.0,0.0,0.0,0.0,0.0,0.0,0.0,0.0,0.0,0.0,-4.3043,-4.381,-4.4395,0.0,0.0,0.0,0.0,0.0,0.0,0.0,0.0,0.0,-4.7567,-4.7886,-4.8298,0.0,0.0,-5.039,-5.0337,-5.0333,-5.0302,-5.0302,-5.0337,0.0,-5.0468,-5.0511,-5.0553,-5.0633,-5.0643,-5.0643,-5.0624,-5.0643,-5.0643,-5.0643,-5.0584,-5.0485,-5.0253,-5.0071,-4.9675,-4.8892,-4.8612,-4.8199,-4.7283,-4.6497,-4.5854,-4.6262,-4.6263,-4.6288,-4.6289,-4.6288,-4.6306,-4.6303,-4.6241,-4.5359,-4.4826,-4.4428,-4.3567,-4.2707,-4.1883,-4.1883,0.0,0.0,0.0,-4.1101,-4.1101,-4.1101,-4.1101,-4.1101,-4.1113,-4.1107,-4.11,-4.1108,-4.1075,-4.1039,-4.1036,-4.1013,-4.0995,0.0,0.0,-4.084,-4.0833,-4.0832,-4.0834,-4.0767,-4.0732,-4.0701,-4.0326,-4.0123,-4.0087,-3.9718,-3.9515,-3.9507,-3.9507,-3.9465,-3.9416,-3.9416,-3.9408,0.0,0.0,0.0,0.0,0.0,0.0,0.0,0.0,0.0,0.0,0.0,-4.1083,-4.1129,0.0,0.0,0.0,-4.198,-4.2148,-4.2558,-4.3335,0.0,0.0,0.0,0.0,0.0,0.0,0.0,-4.5594,-4.5594,-4.622,-4.7875,-4.8039,-4.8422,-4.9561,-5.0079,-5.0356,-5.0302,0.0,-5.0302,-5.0302,-5.0348,-5.0424,-5.047,-5.0562,-5.0623,-5.0683,-5.0683,-5.0683,-5.0683,-5.0683,-5.0683,-5.0683,-5.0682,-5.0653,-5.0633,-5.0542,-5.0312,-4.9728,-4.9564,-4.9184,-4.8175,-4.7258,-4.6465,-4.6198,-4.6204,-4.627,-4.6301,-4.6306,-4.6306,-4.6289,-4.621,-4.5311,-4.4451,-4.3647,-4.2709,-4.185,-4.1108,-4.1108,0.0,-4.1107,-4.1107,-4.1107,-4.1107,-4.1107,-4.1107,-4.1107,-4.1116,-4.1111,-4.1111,-4.1111,-4.1098,-4.1115,-4.1118,-4.1111,-4.1098,-4.0901,-4.0859,-4.0889,-4.0844,-4.081,-4.0791,-4.0654,-4.0571,-4.0487,-3.9721,-3.9275,-3.9208,-3.843,-3.8031,-3.7995,-3.8015,-3.7973,-3.7909,-3.7901,-3.7905,-3.7912,0.0,0.0,0.0,0.0,0.0,0.0,0.0,0.0,0.0,0.0,0.0,0.0,0.0,0.0,0.0,-4.0492,0.0,-4.1643,-4.2547,0.0,0.0,0.0,-4.5594,-4.5594,-4.5594,-4.5594,-4.5594,0.0,0.0,-4.7798,-4.801,-4.8592,-5.0174,-5.0344,-5.0302,-5.0302,-5.0302,-5.0302,-5.0314,-5.0359,-5.0435,-5.05,-5.0572,-5.0623,-5.0683,-5.0683,-5.0683,-5.0683,-5.0683,-5.0683,-5.0683,-5.0683,-5.0683,-5.0683,-5.0643,-5.0572,-5.0407,-5.031,-5.0018,-4.9174,-4.8106,-4.7093,-4.613,-4.6141,-4.6183,-4.624,-4.6231,-4.6276,-4.63,-4.6165,-4.4664,-4.3885,-4.3594,-4.207,-4.1308,-4.1111,-4.111,-4.111,-4.1107,-4.1107,-4.1107,-4.1107,-4.1107,-4.1107,-4.1107,-4.1105,-4.1104,-4.1104,-4.1101,-4.1114,-4.1103,-4.1103,-4.1111,-4.1072,-4.0415,-4.037,-4.0937,-4.0322,-3.9958,-3.9922,-3.9296,-3.8927,-3.8808,-3.8599,-3.8485,-3.8453,-3.8208,-3.8073,-3.8085,-3.8019,-3.8005,-3.7971,-3.7969,-3.7966,-3.7978,-3.7959,0.0,0.0,0.0,0.0,0.0,0.0,0.0,0.0,0.0,-4.0466,-4.0466,0.0,-4.0503,0.0,-4.0489,-4.0593,-4.0796,-4.2181,0.0,0.0,-4.471,-4.5594,-4.5594,-4.5594,-4.5594,-4.5594,-4.5594,-4.6018,-4.7067,-4.7665,-4.8374,-4.9369,-4.998,-5.0302,-5.0302,-5.0302,-5.0314,-5.0379,-5.0435,-5.05,-5.0553,-5.0633,-5.0692,-5.0683,-5.0683,-5.0683,-5.0683,-5.0683,-5.0683,-5.0683,-5.0683,-5.0683,-5.0683,-5.0673,-5.0643,-5.0572,-5.0457,-5.0298,-4.9921,-4.8611,-4.7372,-4.608,-4.6122,-4.6154,-4.6169,-4.6156,-4.6221,-4.6255,-4.6106,-4.4432,-4.3696,-4.3585,-4.1868,-4.111,-4.1113,-4.1113,-4.1113,-4.1113,-4.1113,-4.1113,-4.1113,-4.1113,-4.1112,-4.1131,-4.111,-4.111,-4.1109,-4.1108,-4.1105,-4.108,-4.0748,-4.0567,-4.0537,-3.9671,-3.9442,-3.9869,-3.9406,-3.9158,-3.9101,-3.8652,-3.8374,-3.8272,-3.7887,-3.7649,-3.7614,-3.7204,-3.6986,-3.7,-3.6942,-3.6929,-3.6948,-3.6902,-3.6901,-3.6881,-3.688,-3.7046,0.0,0.0,0.0,0.0,0.0,0.0,0.0,0.0,0.0,0.0,0.0,-4.0496,-4.0496,-4.0496,-4.0496,-4.0496,-4.2085,-4.3085,-4.3104,-4.4586,-4.5594,-4.5594,-4.5594,-4.5594,-4.5594,-4.5594,-4.5932,-4.6788,-4.754,-4.8308,-4.9151,-4.992,-5.0379,-5.0314,-5.0325,-5.0348,-5.0382,-5.0478,-5.0563,-5.0633,-5.0682,-5.0683,-5.0683,-5.0683,-5.0683,-5.0683,-5.0683,-5.0683,-5.0683,-5.0683,-5.0683,-5.0683,-5.0683,-5.0663,-5.0603,-5.0511,-5.0393,-5.024,-4.8786,-4.7504,-4.6019,-4.6085,-4.6085,-4.6081,-4.6089,-4.6142,-4.6167,-4.608,-4.4404,-4.3572,-4.3271,-4.1774,-4.1099,-4.1104,-4.1105,-4.1106,-4.1106,-4.1107,-4.1109,-4.1111,-4.1111,-4.1132,-4.1172,-4.1132,-4.1112,-4.1112,-4.0993,-4.0952,-4.0912,-4.0131,-3.9721,-3.97,-3.8793,-3.8337,-3.8355,-3.8241,-3.8174,-3.8168,-3.8121,-3.8076,-3.8048,-3.7269,-3.6832,-3.6726,-3.6005,-3.5615,-3.5622,-3.5616,-3.561,-3.559,-3.5554,-3.5515,-3.5515,-3.5515,-3.5821,0.0,-3.6546,0.0,0.0,0.0,0.0,0.0,0.0,0.0,0.0,-4.0496,-4.0496,-4.0496,-4.0496,-4.0496,-4.0496,-4.2066,-4.3085,-4.3143,-4.4586,-4.5594,-4.5594,-4.5594,-4.5594,-4.5594,-4.5594,-4.5893,-4.6615,-4.7395,-4.8174,-4.8961,-4.9745,-5.0276,-5.034,-5.039,-5.0424,-5.0443,-5.054,-5.0633,-5.0673,-5.0683,-5.0683,-5.0683,-5.0683,-5.0683,-5.0683,-5.0683,-5.0683,-5.0683,-5.0683,-5.0683,-5.0683,-5.0683,-5.0692,-5.0623,-5.0438,-5.0248,-4.9992,-4.8788,-4.7591,-4.5923,-4.5935,-4.5935,-4.5972,-4.6025,-4.6016,-4.608,-4.5997,-4.4335,-4.285,-4.1596,-4.1237,-4.1111,-4.1103,-4.1111,-4.1115,-4.11,-4.1105,-4.1108,-4.1108,-4.1108,-4.1108,-4.111,-4.1112,-4.1113,-4.1074,-4.043,-4.0136,-4.0095,-3.9255,-3.8844,-3.8822,-3.7961,-3.7529,-3.749,0.0,0.0,0.0,-3.6369,-3.6342,-3.6285,-3.6125,-3.6021,-3.6013,-3.58,0.0,-3.5679,-3.5637,-3.561,-3.559,-3.5583,0.0,0.0,0.0,0.0,0.0,0.0,0.0,0.0,0.0,0.0,0.0,-3.8623,-3.9804,-4.0439,-4.0496,-4.0496,-4.0496,-4.0496,-4.0496,-4.0516,-4.2066,-4.3085,-4.3162,-4.4605,-4.5594,-4.5594,-4.5594,-4.5594,-4.5594,-4.5594,-4.5652,-4.5874,-4.6558,-4.7376,-4.8174,-4.8999,-4.9745,-5.0363,-5.0459,-5.05,-5.0562,-5.0623,-5.0673,-5.0683,-5.0683,-5.0683,-5.0683,-5.0683,-5.0683,-5.0683,-5.0683,-5.0683,-5.0683,-5.0683,-5.0683,-5.0683,-5.0683,-5.0683,-5.0692,-5.0085,-4.9496,-4.9341,-4.8411,-4.7386,-4.5827,-4.5861,-4.5861,-4.5886,0.0,-4.5955,-4.5969,-4.5891,-4.4264,-4.2606,-4.1055,-4.1042,-4.1075,-4.1115,-4.1105,-4.1111,-4.1101,-4.1104,-4.1112,-4.1099,-4.11,-4.1103,-4.1107,-4.1109,-4.0875,-4.0504,-4.0076,-3.9687,-3.9238,-3.8379,-3.7968,-3.7928,-3.7068,-3.6657,-3.6637,-3.6219,-3.5986,-3.5948,-3.5916,-3.5897,-3.5853,-3.5852,-3.583,-3.5795,-3.5773,0.0,0.0,0.0,0.0,0.0,0.0,0.0,0.0,-3.5616,0.0,-3.5554,-3.5515,-3.5496,-3.5495,-3.5898,-3.6288,-3.6692,-3.8296,-3.965,-4.0458,-4.0496,-4.0496,-4.0496,-4.0496,-4.0496,-4.0554,-4.2066,-4.3085,-4.3162,-4.4605,-4.5594,-4.5594,-4.5594,-4.5594,-4.5594,-4.5594,-4.5594,-4.5594,-4.6355,-4.7019,-4.7415,-4.8174,-4.9029,-4.9816,-5.0303,-5.0582,-5.0633,-5.0682,-5.0683,-5.0683,-5.0683,-5.0683,-5.0683,-5.0683,-5.0683,-5.0683,-5.0683,-5.0683,-5.0683,-5.0683,-5.0683,-5.0683,-5.0683,-5.0577,-5.0144,-4.9653,-4.8941,-4.8188,-4.7447,-4.6942,-4.5727,-4.5786,-4.5786,-4.5801,-4.5854,-4.5874,-4.5686,-4.5356,0.0,0.0,0.0,-4.0995,-4.1016,-4.1081,-4.1087,-4.1073,-4.1083,-4.1108,-4.1103,-4.1101,-4.1103,-4.1111,-4.1083,-4.0928,-4.0519,-3.9874,-3.9583,-3.9058,-3.8358,-3.7498,-3.7069,-3.7012,-3.6347,-3.6015,-3.6014,-3.601,-3.6019,-3.5997,-3.5942,-3.5929,-3.5916,-3.5903,-3.5859,-3.5806,-3.5803,-3.5822,-3.5821,-3.576,-3.5727,-3.5698,-3.5674,-3.5623,-3.5623,-3.5612,-3.5622,-3.561,-3.554,-3.5522,-3.549,-3.5495,-3.5853,-3.6635,-3.8161,-3.9477,-4.0419,-4.0496,-4.0496,-4.0496,-4.0496,-4.0496,-4.0516,-4.1912,-4.2951,-4.3085,-4.4451,-4.5421,-4.5575,-4.5594,-4.5594,-4.5594,-4.5594,-4.5594,-4.5614,-4.6201,-4.674,-4.6942,-4.75,-4.8298,-4.926,-5.0124,-5.0653,-5.0692,-5.0683,-5.0683,-5.0683,-5.0683,-5.0683,-5.0683,-5.0683,-5.0683,-5.0683,-5.0683,-5.0683,-5.0683,-5.0683,-5.0606,-5.05,-5.0404,-5.0164,-4.9336,-4.8991,-4.8452,-4.7106,-4.6499,-4.6279,-4.5715,-4.5723,-4.5723,-4.5712,-4.5739,-4.5719,-4.4945,-4.3673,-4.3474,-4.247,-4.0908,-4.092,-4.0902,-4.0929,-4.0983,-4.1016,-4.102,-4.1087,-4.11,-4.1106,-4.1115,-4.11,-4.1066,-4.0342,-3.9939,-3.9707,-3.837,-3.7593,-3.7398,-3.6617,-3.6189,-3.619,-3.6054,-3.6016,-3.6014,-3.6014,-3.6012,-3.6007,-3.5989,-3.5972,-3.5979,-3.5909,-3.5897,-3.588,-3.5885,-3.5889,-3.5891,-3.5811,-3.5792,-3.5786,-3.5784,-3.5757,-3.5699,-3.5688,-3.5662,-3.5596,-3.5587,-3.5571,-3.5496,-3.5483,-3.5849,-3.6661,-3.7603,-3.8834,-4.0342,-4.0496,-4.0496,-4.0496,-4.0496,-4.0496,-4.0554,-4.1431,-4.2327,-4.3008,-4.3932,-4.4759,-4.546,-4.5594,-4.5594,-4.5594,-4.5594,-4.5594,-4.5633,-4.5748,-4.6124,-4.6701,-4.7038,-4.7644,-4.8971,-5.0144,-5.0625,-5.0683,-5.0683,-5.0683,-5.0683,-5.0683,-5.0683,-5.0683,-5.0683,-5.0683,-5.0683,-5.0683,-5.0664,-5.0673,-5.0587,-5.0356,-4.976,-4.9586,-4.9202,-4.8452,-4.7856,-4.7194,-4.6666,-4.609,-4.555,-4.5671,-4.5687,-4.5687,-4.5684,-4.5688,-4.5688,-4.4777,-4.3289,-4.3259,-4.2375,-4.0925,-4.0835,-4.0874,-4.0888,-4.0926,-4.0952,-4.0937,-4.0976,-4.1013,-4.1052,-4.1039,-4.107,-4.1028,-4.0201,-3.9566,-3.9025,-3.7887,-3.7074,-3.6588,-3.6182,-3.6009,-3.6012,-3.6014,-3.6015,-3.6016,-3.6015,-3.6014,-3.6013,-3.6003,-3.601,-3.602,-3.5972,-3.5942,-3.5951,-3.5919,-3.5889,-3.588,-3.5879,-3.5859,-3.5849,-3.5823,-3.5775,-3.5765,-3.5761,-3.5733,-3.5653,-3.5626,-3.5587,-3.5565,-3.5528,-3.5862,-3.6689,-3.7514,-3.8507,-3.9746,-4.0246,-4.0496,-4.0496,-4.0496,-4.0496,-4.0535,-4.1296,-4.1942,-4.2335,-4.3508,-4.4432,-4.4863,-4.5344,-4.5594,-4.5594,-4.5594,-4.5594,-4.5594,-4.5594,-4.5691,-4.6163,-4.6547,-4.7221,-4.799,-4.8779,-4.9663,-5.0481,-5.0683,-5.0683,-5.0693,-5.0683,-5.0683,-5.0683,-5.0683,-5.0683,-5.0683,-5.0664,-5.0481,-5.0096,-4.999,-4.9644,-4.8875,-4.8682,-4.8317,-4.7654,-4.7192,-4.6733,-4.6139,-4.559,-4.5275,-4.5631,-4.5665,-4.5684,-4.569,-4.5676,-4.5684,-4.4727,-4.3242,-4.3192,-4.2279,-4.0878,-4.0765,-4.0801,-4.0862,-4.0872,-4.0864,-4.0878,-4.0887,-4.0928,-4.098,-4.0972,-4.0893,-4.0704,-3.9895,-3.9048,-3.8202,-3.7375,-3.6643,-3.6066,-3.6016,-3.6003,-3.6009,-3.6012,-3.6014,-3.6014,-3.6016,-3.6015,-3.6015,-3.6011,-3.6004,-3.6017,-3.6012,-3.6004,-3.6011,-3.5945,-3.5919,-3.5912,-3.5914,-3.5919,-3.5897,-3.585,-3.5822,-3.5838,-3.581,-3.578,-3.5718,-3.5669,-3.5637,-3.5618,-3.5559,-3.5804,-3.6446,-3.7266,-3.8072,-3.8938,-3.9765,-4.0323,-4.0458,-4.0496,-4.0496,-4.0573,-4.1066,-4.1585,-4.1835,-4.2912,-4.3835,-4.4297,-4.4921,-4.5421,-4.5537,-4.5594,-4.5594,-4.5594,-4.5594,-4.5614,-4.5729,-4.6201,-4.6624,-4.6904,-4.7481,-4.8471,-4.9606,-5.026,-5.0356,-5.0423,-5.0596,-5.0673,-5.0683,-5.05,-5.0356,-5.0298,-5.024,-4.9894,-4.924,-4.9106,-4.8759,-4.8038,-4.7817,-4.749,-4.6817,-4.6528,-4.6319,-4.563,-4.5359,-4.5162,-4.5594,-4.5614,-4.5622,-4.5603,-4.5612,-4.5673,-4.4707,-4.3243,-4.3177,-4.2242,-4.0699,-4.0681,-4.0738,-4.0806,-4.0796,-4.0832,-4.0823,-4.0883,-4.0898,-4.0908,-4.0891,-4.0528,-3.9836,-3.8932,-3.8121,-3.7317,-3.6492,-3.6075,-3.6007,-3.6019,-3.601,-3.6004,-3.6009,-3.6012,-3.6014,-3.6014,-3.6015,-3.6016,-3.6015,-3.6012,-3.6009,-3.6009,-3.6004,-3.601,-3.5989,-3.5981,-3.5988,-3.5981,-3.5955,-3.5907,-3.5892,-3.5897,-3.5879,-3.5841,-3.5792,-3.5806,-3.5784,-3.5723,-3.5612,-3.5589,-3.5618,-3.5663,-3.6459,-3.7292,-3.8072,-3.8931,-3.9727,-4.0285,-4.0477,-4.0496,-4.0496,-4.0612,-4.0989,-4.1604,-4.1989,-4.2604,-4.3893,-4.4374,-4.472,-4.5518,-4.5498,-4.5594,-4.5575,-4.5594,-4.5594,-4.5594,-4.5729,-4.6067,-4.6624,-4.6894,-4.7259,-4.8202,-4.8952,-4.9433,-4.9567,-5.0212,-5.0375,-5.0481,-4.999,-4.9606,-4.9413,-4.8971,-4.8298,-4.8355,-4.8221,-4.7913,-4.7317,-4.6981,-4.6721,-4.6163,-4.5874,-4.5694,-4.5448,-4.5341,-4.5224,-4.5594,-4.5594,-4.5594,-4.5594,-4.5614,-4.5631,-4.4677,-4.3137,-4.3115,-4.2187,-4.0714,-4.0646,-4.0661,-4.0675,-4.0726,-4.0732,-4.0756,-4.0804,-4.0826,-4.0784,-4.0369,-3.9956,-3.9524,-3.8233,-3.7444,-3.7095,-3.6303,-3.5914,-3.5946,-3.5984,-3.6019,-3.601,-3.6018,-3.6004,-3.6009,-3.6013,-3.6014,-3.6015,-3.6016,-3.6015,-3.6014,-3.6012,-3.6009,-3.6005,-3.6005,-3.6003,-3.6017,-3.6009,-3.598,-3.5976,-3.5962,-3.5946,-3.5894,-3.5872,-3.5846,-3.5818,-3.5791,-3.5757,-3.5658,-3.5615,-3.5581,-3.5552,-3.6331,-3.6972,-3.7324,-3.8522,-3.9457,-3.9765,-4.0227,-4.0496,-4.0496,-4.0496,-4.065,-4.1027,-4.147,-4.2085,-4.2701,-4.3297,-4.3912,-4.4682,-4.4816,-4.5056,-4.546,-4.5594,-4.5594,-4.5594,-4.5594,-4.5787,-4.6086,-4.6124,-4.6259,-4.6624,-4.7355,-4.8086,-4.8548,-4.8875,-4.9163,-4.9125,-4.8875,-4.8625,-4.8567,-4.8413,-4.7981,-4.749,-4.7394,-4.7067,-4.6278,-4.6163,-4.597,-4.5605,-4.5559,-4.5504,-4.5419,-4.537,-4.5277,-4.5577,-4.5577,-4.5586,-4.5594,-4.5594,-4.5594,-4.4643,-4.3201,-4.3085,-4.214,-4.065,-4.0573,-4.0569,-4.0586,-4.0647,-4.0662,-4.0688,-4.0707,-4.0757,-4.067,-3.9951,-3.9444,-3.9102,-3.7768,-3.696,-3.6693,-3.614,-3.5879,-3.5903,-3.5946,-3.5962,-3.5972,-3.5981,-3.601,-3.6021,-3.6009,-3.6012,-3.6014,-3.6015,-3.6015,-3.6016,-3.6014,-3.6012,-3.6012,-3.6012,-3.6011,-3.6011,-3.6003,-3.6018,-3.6018,-3.6004,-3.597,-3.5942,-3.5929,-3.5908,-3.5837,-3.5795,-3.5775,-3.5718,-3.5664,-3.5607,-3.5656,-3.6176,-3.6556,-3.694,-3.7921,-3.8676,-3.8988,-3.9688,-4.0208,-4.0496,-4.0496,-4.0496,-4.0535,-4.1104,-4.1489,-4.1854,-4.2412,-4.3066,-4.3816,-4.422,-4.4624,-4.5383,-4.5594,-4.5594,-4.5594,-4.5594,-4.5594,-4.5594,-4.5633,-4.5633,-4.5614,-4.6182,-4.6836,-4.7605,-4.8105,-4.8038,-4.8019,-4.8029,-4.7778,-4.7702,-4.7625,-4.7355,-4.6567,-4.6567,-4.6432,-4.596,-4.571,-4.5652,-4.5605,-4.5559,-4.5504,-4.5457,-4.541,-4.535,-4.5504,-4.5513,-4.5568,-4.5594,-4.5594,-4.5594,-4.4643,-4.3085,-4.3085,-4.2124,-4.0612,-4.0496,-4.0496,-4.0512,-4.0579,-4.0595,-4.0614,-4.0602,-4.0603,-4.0539,-3.9817,-3.9035,-3.8239,-3.7385,-3.66,-3.5997,-3.5868,-3.5834,-3.5885,-3.5903,-3.5899,-3.5892,-3.5962,-3.6015,-3.601,-3.5994,-3.6021,-3.601,-3.6013,-3.6014,-3.6015,-3.6015,-3.6015,-3.6014,-3.6014,-3.6013,-3.6011,-3.601,-3.601,-3.601,-3.6019,-3.5991,-3.6009,-3.6013,-3.5953,-3.5906,-3.5822,-3.5795,-3.5782,-3.5728,-3.5678,-3.5626,-3.5709,-3.5996,-3.6614,-3.696,-3.7408,-3.8015,-3.8842,-3.9611,-4.0285,-4.0458,-4.0496,-4.0496,-4.0535,-4.0977,-4.1681,-4.175,-4.2258,-4.3047,-4.3758,-4.4489,-4.5402,-4.5594,-4.5537,-4.5575,-4.5594,-4.5594,-4.5594,-4.5594,-4.5594,-4.5594,-4.5729,-4.596,-4.6817,-4.7259,-4.7759,-4.7702,-4.7163,-4.6942,-4.6644,-4.6355,-4.6009,-4.5778,-4.5845,-4.5825,-4.5652,-4.5594,-4.5614,-4.5594,-4.5594,-4.5559,-4.5485,-4.541,-4.5246,-4.5476,-4.5504,-4.5522,-4.5549,-4.5594,-4.5594,-4.4643,-4.3143,-4.3085,-4.2124,-4.0708,-4.0496,-4.0496,-4.0496,-4.0527,-4.0549,-4.0591,-4.06,-4.0331,-3.9817,-3.9007,-3.8144,-3.7287,-3.6488,-3.5993,-3.5732,-3.5713,-3.5763,-3.5827,-3.5836,-3.5859,-3.5903,-3.5916,-3.5931,-3.5949,-3.5985,-3.6014,-3.6021,-3.6009,-3.6013,-3.6014,-3.6015,-3.6015,-3.6015,-3.6015,-3.6015,-3.6015,-3.6014,-3.6013,-3.6013,-3.6009,-3.6004,-3.6019,-3.6006,-3.5962,-3.5911,-3.5869,-3.5852,-3.5803,-3.5773,-3.5732,-3.5658,-3.5626,-3.5714,-3.6054,-3.6485,-3.6941,-3.7319,-3.7986,-3.8806,-3.9611,-4.0189,-4.0496,-4.0496,-4.0516,-4.0612,-4.0881,-4.0989,-4.1316,-4.2162,-4.2989,-4.3835,-4.4528,-4.4778,-4.4989,-4.5479,-4.5594,-4.5594,-4.5594,-4.5594,-4.5594,-4.5594,-4.5614,-4.571,-4.5932,-4.624,-4.6471,-4.6432,-4.6201,-4.6124,-4.5932,-4.5932,-4.571,-4.5691,-4.5614,-4.5594,-4.5594,-4.5594,-4.5594,-4.5594,-4.5594,-4.5385,-4.5504,-4.5035,-4.4729,-4.541,-4.5476,-4.5495,-4.5541,-4.5568,-4.5586,-4.4652,-4.3181,-4.3085,-4.2124,-4.0727,-4.0496,-4.0496,-4.0496,-4.0496,-4.0531,-4.0573,-4.0564,-4.0135,-3.9339,-3.8465,-3.763,-3.6774,-3.5987,-3.5618,-3.561,-3.5653,-3.5708,-3.5773,-3.5803,-3.583,-3.5859,-3.5879,-3.5883,-3.5904,-3.5947,-3.598,-3.5989,-3.6021,-3.6009,-3.6012,-3.6013,-3.6015,-3.6015,-3.6016,-3.6016,-3.6016,-3.6015,-3.6015,-3.6015,-3.6013,-3.601,-3.6004,-3.6012,-3.5976,-3.5951,-3.5916,-3.5872,-3.5841,-3.5811,-3.5778,-3.5747,-3.5674,-3.5623,-3.5643,-3.6116,-3.6369,-3.6569,-3.714,-3.7896,-3.851,-3.9446,-4.0208,-4.0419,-4.0496,-4.0496,-4.0496,-4.0516,-4.0931,-4.17,-4.2316,-4.3008,-4.3758,-4.4143,-4.4566,-4.5133,-4.5383,-4.5594,-4.5594,-4.5594,-4.5594,-4.5594,-4.5594,-4.5594,-4.5729,-4.5883,-4.5941,-4.5883,-4.5883,-4.5691,-4.5594,-4.5594,-4.5594,-4.5594,-4.5594,-4.5594,-4.5594,-4.5594,-4.5575,-4.5556,-4.521,-4.4904,-4.4724,-4.4371,-4.4009,-4.533,-4.54,-4.5476,-4.5495,-4.5504,-4.5568,-4.4643,-4.325,-4.3085,-4.2104,-4.0612,-4.0496,-4.0496,-4.0496,-4.0496,-4.0496,-4.0516,-4.0504,-4.0019,-3.9155,-3.8366,-3.7519,-3.6665,-3.5926,-3.5604,-3.561,-3.5618,-3.5634,-3.5684,-3.5751,-3.5793,-3.5799,-3.5807,-3.5843,-3.5886,-3.5911,-3.5931,-3.5994,-3.6007,-3.6017,-3.6004,-3.6011,-3.6014,-3.6014,-3.6015,-3.6016,-3.6016,-3.6016,-3.6016,-3.6016,-3.6015,-3.6012,-3.6006,-3.6017,-3.6007,-3.5976,-3.5934,-3.5894,-3.588,-3.5826,-3.5807,-3.5786,-3.5751,-3.5689,-3.5648,-3.5704,-3.5734,-3.5861,-3.6357,-3.687,-3.7191,-3.8279,-3.9496,-4.0323,-4.0419,-4.0496,-4.0496,-4.0496,-4.0796,-4.1508,-4.1777,-4.2162,-4.297,-4.3566,-4.4008,-4.4316,-4.4932,-4.5421,-4.5421,-4.5479,-4.5594,-4.5594,-4.5594,-4.5594,-4.5594,-4.5614,-4.5614,-4.5614,-4.5652,-4.5594,-4.5594,-4.5594,-4.5594,-4.5594,-4.5594,-4.5594,-4.5518,-4.5479,-4.5287,-4.5163,-4.4778,-4.4316,-4.403,-4.3677,-4.3181,-4.5267,-4.5339,-4.5409,-4.5419,-4.5438,-4.5504,-4.458,-4.312,-4.3088,-4.2104,-4.0727,-4.0496,-4.0496,-4.0496,-4.0496,-4.0496,-4.0496,-4.0458,-3.9765,-3.8561,-3.8137,-3.724,-3.608,-3.5663,-3.5554,-3.5598,-3.5616,-3.5599,-3.5629,-3.5664,-3.5669,-3.5727,-3.5791,-3.5795,-3.5841,-3.5866,-3.5897,-3.5929,-3.5994,-3.6007,-3.6016,-3.6005,-3.6011,-3.6014,-3.6015,-3.6015,-3.6016,-3.6016,-3.6016,-3.6016,-3.6016,-3.6015,-3.6012,-3.6006,-3.6017,-3.6007,-3.5976,-3.5955,-3.5911,-3.5891,-3.584,-3.5811,-3.5775,-3.5765,-3.5728,-3.5698,-3.5662,-3.5623,-3.5859,-3.6151,-3.678,-3.7203,-3.8209,-3.9515,-4.015,-4.0477,-4.0496,-4.0496,-4.0631,-4.0823,-4.0893,-4.1296,-4.197,-4.2547,-4.2912,-4.3451,-4.4162,-4.469,-4.4759,-4.519,-4.5575,-4.5594,-4.5594,-4.5575,-4.5594,-4.5594,-4.5594,-4.5594,-4.5594,-4.5594,-4.5594,-4.5594,-4.5594,-4.5537,-4.5556,-4.546,-4.5402,-4.5152,-4.4836,-4.4489,-4.3989,-4.3662,-4.3412,-4.2945,-4.2343,-4.5129,-4.5243,-4.5328,-4.536,-4.5351,-4.5438,-4.4488,-4.3115,-4.3035,-4.2099,-4.0742,-4.0489,-4.0496,-4.0496,-4.0496,-4.0496,-4.0496,-4.0496,-3.9611,-3.82,-3.8007,-3.7084,-3.568,-3.5489,-3.5522,-3.5554,-3.556,-3.5584,-3.5593,-3.5604,-3.5618,-3.5679,-3.5737,-3.5773,-3.5795,-3.5829,-3.5882,-3.5908,-3.5953,-3.5972,-3.5986,-3.6016,-3.6005,-3.6011,-3.6012,-3.6014,-3.6015,-3.6015,-3.6015,-3.6016,-3.6016,-3.6016,-3.6014,-3.6011,-3.6007,-3.6021,-3.601,-3.5976,-3.5938,-3.5924,-3.5886,-3.585,-3.5845,-3.5834,-3.5801,-3.5761,-3.5718,-3.5648,-3.5635,-3.5807,-3.626,-3.6678,-3.7294,-3.8202,-3.9369,-4.0131,-4.0381,-4.0496,-4.0516,-4.0554,-4.0535,-4.0796,-4.1143,-4.1692,-4.1962,-4.2624,-4.3316,-4.3855,-4.4028,-4.4566,-4.4893,-4.5248,-4.5441,-4.5479,-4.5575,-4.5594,-4.5594,-4.5594,-4.5594,-4.5594,-4.5594,-4.5594,-4.5594,-4.5402,-4.5344,-4.494,-4.4806,-4.4239,-4.3835,-4.3489,-4.322,-4.2816,-4.245,-4.1873,-4.1349,-4.4967,-4.5084,-4.5243,-4.5286,-4.5279,-4.5275,-4.4336,-4.3032,-4.2857,-4.1953,-4.0721,-4.0503,-4.0508,-4.0489,-4.0489,-4.0496,-4.0496,-4.0496,-3.9604,-3.8373,-3.7911,-3.7123,-3.5692,-3.5488,-3.5508,-3.5522,-3.5528,-3.5528,-3.5604,-3.5602,-3.5612,-3.5612,-3.5683,-3.5723,-3.5773,-3.5795,-3.5838,-3.5869,-3.5906,-3.5951,-3.5995,-3.6006,-3.6014,-3.6003,-3.6008,-3.6011,-3.6014,-3.6014,-3.6015,-3.6016,-3.6016,-3.6015,-3.6015,-3.6014,-3.6013,-3.601,-3.6021,-3.6013,-3.5986,-3.5951,-3.5907,-3.5911,-3.5891,-3.5869,-3.5823,-3.5814,-3.5765,-3.5708,-3.5634,-3.5621,-3.5819,-3.6208,-3.671,-3.7005,-3.8491,-3.9631,-4.0304,-4.0419,-4.0496,-4.0496,-4.0496,-4.0535,-4.065,-4.1219,-4.1566,-4.1873,-4.245,-4.2912,-4.3181,-4.3605,-4.4105,-4.4451,-4.4739,-4.4767,-4.469,-4.4671,-4.4671,-4.4671,-4.4863,-4.5114,-4.5306,-4.5383,-4.5287,-4.5133,-4.4778,-4.4412,-4.4028,-4.347,-4.3085,-4.2874,-4.2489,-4.195,-4.1489,-4.1027,-4.0854,-4.487,-4.4974,-4.5057,-4.5136,-4.5129,-4.4638,-4.379,-4.2823,-4.2256,-4.1487,-4.0594,-4.0482,-4.0499,-4.0507,-4.05,-4.0496,-4.0496,-4.0496,-3.9585,-3.82,-3.8007,-3.7046,-3.5788,-3.55,-3.5488,-3.5501,-3.5489,-3.5502,-3.5522,-3.5534,-3.5546,-3.5618,-3.5621,-3.5658,-3.5718,-3.5769,-3.5803,-3.5838,-3.5888,-3.5911,-3.5946,-3.5984,-3.602,-3.6014,-3.6017,-3.6004,-3.6011,-3.6014,-3.6015,-3.6016,-3.6016,-3.6016,-3.6016,-3.6015,-3.6014,-3.6013,-3.601,-3.6003,-3.5994,-3.5986,-3.5995,-3.5958,-3.5938,-3.5897,-3.5885,-3.583,-3.5795,-3.576,-3.5732,-3.5669,-3.5646,-3.5817,-3.6174,-3.6884,-3.8166,-3.9265,-3.9611,-4.015,-4.0496,-4.0496,-4.0477,-4.0496,-4.0573,-4.0689,-4.0939,-4.1066,-4.1566,-4.2162,-4.2297,-4.2816,-4.3393,-4.3412,-4.3605,-4.3643,-4.3662,-4.3662,-4.3643,-4.3585,-4.3855,-4.4325,-4.4613,-4.4902,-4.4748,-4.4547,-4.3874,-4.3431,-4.3124,-4.272,-4.2489,-4.2162,-4.1643,-4.1085,-4.0931,-4.0612,-4.0631,-4.4725,-4.4802,-4.4895,-4.4991,-4.4977,-4.4293,-4.3498,-4.2718,-4.1944,-4.1138,-4.0504,-4.0432,-4.0485,-4.0502,-4.0495,-4.05,-4.0489,-4.0496,-3.9565,-3.8065,-3.7231,-3.6365,-3.5635,-3.55,-3.55,-3.55,-3.55,-3.5494,-3.5502,-3.5496,-3.5515,-3.5565,-3.5575,-3.561,-3.5672,-3.5694,-3.5736,-3.5786,-3.5841,-3.5853,-3.5872,-3.5919,-3.596,-3.5976,-3.5983,-3.6014,-3.6008,-3.6012,-3.6015,-3.6016,-3.6016,-3.6016,-3.6016,-3.6015,-3.6015,-3.6015,-3.6013,-3.6011,-3.6006,-3.6021,-3.6012,-3.5999,-3.5962,-3.5926,-3.5908,-3.5869,-3.5826,-3.5788,-3.5778,-3.5742,-3.5684,-3.5653,-3.5817,-3.6311,-3.7468,-3.8351,-3.871,-3.9484,-3.9919,-4.0054,-4.0285,-4.0496,-4.0496,-4.0496,-4.0496,-4.0593,-4.092,-4.1181,-4.1335,-4.2047,-4.2547,-4.2574,-4.2843,-4.3055,-4.314,-4.314,-4.3044,-4.2948,-4.294,-4.3421,-4.3671,-4.4075,-4.3989,-4.3643,-4.2989,-4.2508,-4.2277,-4.195,-4.1489,-4.1104,-4.065,-4.0573,-4.0516,-4.0496,-4.0496,-4.4528,-4.4587,-4.4783,-4.4833,-4.4642,-4.4026,-4.3191,-4.2482,-4.1628,-4.0921,-4.0404,-4.0353,-4.0415,-4.0493,-4.0466,-4.0499,-4.0492,-4.0492,-3.945,-3.7962,-3.6615,-3.5558,-3.5558,-3.55,-3.55,-3.55,-3.55,-3.5488,-3.5494,-3.5483,-3.5483,-3.5522,-3.5566,-3.5583,-3.561,-3.5612,-3.5669,-3.5761,-3.5801,-3.5803,-3.5813,-3.5866,-3.5889,-3.5931,-3.5974,-3.6009,-3.6002,-3.601,-3.6014,-3.6016,-3.6016,-3.6016,-3.6016,-3.6016,-3.6016,-3.6016,-3.6015,-3.6014,-3.6014,-3.6009,-3.6003,-3.5995,-3.6006,-3.5992,-3.5929,-3.5911,-3.5869,-3.5829,-3.5799,-3.5795,-3.5756,-3.5684,-3.5676,-3.5869,-3.6407,-3.6987,-3.7705,-3.8594,-3.9169,-3.9227,-3.9861,-4.0304,-4.04,-4.0458,-4.0496,-4.0496,-4.0708,-4.0773,-4.0908,-4.1339,-4.1647,-4.1694,-4.2098,-4.2648,-4.2667,-4.2667,-4.256,-4.2444,-4.2302,-4.2475,-4.2524,-4.2794,-4.2931,-4.272,-4.2124,-4.1777,-4.1604,-4.1181,-4.0746,-4.0612,-4.0554,-4.0516,-4.0496,-4.0496,-4.0496,-4.4397,-4.4528,-4.4551,-4.4308,-4.3799,-4.3068,-4.231,-4.1578,-4.0774,-4.0396,-4.0253,-4.0234,-4.0289,-4.0342,-4.0388,-4.0413,-4.04,-4.0329,-3.9584,-3.793,-3.6269,-3.5558,-3.55,-3.55,-3.55,-3.55,-3.55,-3.55,-3.5488,-3.5494,-3.5495,-3.5509,-3.5515,-3.554,-3.5596,-3.5599,-3.5612,-3.5664,-3.5737,-3.5797,-3.5807,-3.5818,-3.5833,-3.5914,-3.5964,-3.6002,-3.6014,-3.6003,-3.6009,-3.6013,-3.6016,-3.6016,-3.6016,-3.6016,-3.6016,-3.6016,-3.6016,-3.6015,-3.6014,-3.6013,-3.6012,-3.6007,-3.5999,-3.5988,-3.5963,-3.5919,-3.5899,-3.5878,-3.5879,-3.5845,-3.5795,-3.5722,-3.5703,-3.5731,-3.5839,-3.5999,-3.633,-3.741,-3.8185,-3.8448,-3.8991,-3.9554,-3.9611,-4.0196,-4.035,-4.0458,-4.0504,-4.0531,-4.0654,-4.0823,-4.0946,-4.1115,-4.1289,-4.1751,-4.1751,-4.1782,-4.179,-4.1771,-4.1678,-4.1632,-4.169,-4.1771,-4.2013,-4.1793,-4.1296,-4.1085,-4.1066,-4.0893,-4.0573,-4.0516,-4.0496,-4.0496,-4.0496,-4.0496,-4.0496,-4.4222,-4.4358,-4.443,-4.4086,-4.3391,-4.2605,-4.1858,-4.1154,-4.0355,-4.0046,-4.0118,-4.0158,-4.0244,-4.0252,-4.0316,-4.037,-4.0177,-3.955,-3.8826,-3.7679,-3.6272,-3.5491,-3.546,-3.5474,-3.55,-3.55,-3.55,-3.55,-3.55,-3.5481,-3.5494,-3.5495,-3.5502,-3.5515,-3.5547,-3.5552,-3.5556,-3.561,-3.5664,-3.5723,-3.5751,-3.5795,-3.5829,-3.59,-3.5929,-3.5966,-3.598,-3.6013,-3.6019,-3.6006,-3.6012,-3.6015,-3.6015,-3.6016,-3.6016,-3.6016,-3.6016,-3.6016,-3.6015,-3.6015,-3.6014,-3.6012,-3.6007,-3.6019,-3.5994,-3.5958,-3.5947,-3.5948,-3.5928,-3.5879,-3.5803,-3.5782,-3.5751,-3.5747,-3.5684,-3.5658,-3.5845,-3.6703,-3.7423,-3.7616,-3.8206,-3.8873,-3.9348,-3.9687,-4.0222,-4.0326,-4.048,-4.0506,-4.0571,-4.0694,-4.0663,-4.0728,-4.0677,-4.0754,-4.0774,-4.0812,-4.0901,-4.094,-4.0991,-4.0964,-4.1003,-4.1096,-4.1208,-4.0981,-4.0823,-4.0719,-4.0669,-4.0496,-4.0496,-4.0496,-4.0496,-4.0496,-4.0477,-4.0439,-4.0458,-4.4039,-4.4165,-4.415,-4.3741,-4.3004,-4.2188,-4.1424,-4.0759,-4.0155,-3.99,-3.9986,-4.0108,-4.0138,-4.0177,-4.0252,-4.0269,-3.9776,-3.8769,-3.7934,-3.7375,-3.6082,-3.5475,-3.5386,-3.5427,-3.5467,-3.5493,-3.55,-3.55,-3.55,-3.55,-3.5488,-3.55,-3.5481,-3.5501,-3.5489,-3.549,-3.5521,-3.5583,-3.561,-3.5643,-3.5693,-3.5747,-3.5819,-3.5876,-3.5906,-3.5921,-3.596,-3.5995,-3.5986,-3.6009,-3.6003,-3.6009,-3.6013,-3.6015,-3.6016,-3.6016,-3.6016,-3.6016,-3.6016,-3.6015,-3.6015,-3.6014,-3.6013,-3.6009,-3.6001,-3.5996,-3.5988,-3.597,-3.5929,-3.5897,-3.5817,-3.5811,-3.5807,-3.5778,-3.5732,-3.5718,-3.5815,-3.6278,-3.6574,-3.6736,-3.7334,-3.8034,-3.8535,-3.894,-3.9616,-4.019,-4.0325,-4.0505,-4.0524,-4.0596,-4.0603,-4.0649,-4.0668,-4.0675,-4.0675,-4.0668,-4.0662,-4.0642,-4.0629,-4.0615,-4.0609,-4.0728,-4.088,-4.0719,-4.0569,-4.0523,-4.0496,-4.0496,-4.0496,-4.0496,-4.0496,-4.0496,-4.0458,-4.0381,-4.0285,-4.3897,-4.398,-4.3341,-4.2667,-4.1973,-4.1269,-4.054,-3.9845,-3.9717,-3.9747,-3.99,-3.9951,-4.0007,-4.0089,-4.0177,-3.9909,-3.9265,-3.8278,-3.7472,-3.6864,-3.5814,-3.5315,-3.5342,-3.5386,-3.542,-3.5427,-3.5467,-3.55,-3.55,-3.55,-3.55,-3.55,-3.55,-3.5488,-3.5501,-3.5483,-3.549,-3.554,-3.5564,-3.5599,-3.5637,-3.5698,-3.5775,-3.5807,-3.5866,-3.5914,-3.5914,-3.5929,-3.5942,-3.599,-3.6007,-3.6014,-3.6022,-3.6011,-3.6014,-3.6015,-3.6015,-3.6016,-3.6016,-3.6016,-3.6016,-3.6015,-3.6015,-3.6014,-3.6012,-3.6009,-3.6022,-3.5988,-3.5945,-3.5919,-3.5883,-3.5882,-3.5859,-3.583,-3.5803,-3.5782,-3.5818,-3.5897,-3.5987,-3.6077,-3.6624,-3.7199,-3.772,-3.8215,-3.8775,-3.9309,-3.9561,-4.0024,-4.0385,-4.0513,-4.0609,-4.0692,-4.0784,-4.0784,-4.079,-4.0759,-4.0754,-4.0756,-4.0738,-4.0681,-4.0662,-4.0615,-4.06,-4.0586,-4.0569,-4.0573,-4.0539,-4.0504,-4.0496,-4.0496,-4.0496,-4.0458,-4.0189,-3.99,-3.9515,-4.3527,-4.323,-4.2841,-4.2062,-4.1133,-4.0705,-4.0133,-3.9527,-3.9533,-3.9599,-3.9693,-3.9823,-3.99,-4.0005,-4.0067,-3.9671,-3.8889,-3.8078,-3.7264,-3.6476,-3.5679,-3.5262,-3.5304,-3.535,-3.5379,-3.542,-3.546,-3.55,-3.55,-3.55,-3.55,-3.55,-3.55,-3.55,-3.5488,-3.5501,-3.5489,-3.5509,-3.554,-3.5583,-3.5585,-3.5667,-3.5742,-3.5793,-3.5819,-3.5852,-3.5856,-3.5878,-3.5914,-3.5929,-3.5945,-3.5976,-3.5988,-3.6018,-3.6009,-3.6012,-3.6014,-3.6014,-3.6014,-3.6015,-3.6015,-3.6015,-3.6016,-3.6015,-3.6014,-3.6013,-3.6009,-3.5996,-3.5986,-3.5968,-3.597,-3.5938,-3.588,-3.5859,-3.584,-3.5857,-3.5838,-3.5795,-3.575,-3.5698,-3.6066,-3.6577,-3.7044,-3.7533,-3.7986,-3.8386,-3.8754,-3.9358,-4.0026,-4.0153,-4.0203,-4.0604,-4.0689,-4.0771,-4.0791,-4.0844,-4.0844,-4.0828,-4.0812,-4.0759,-4.0736,-4.0706,-4.0688,-4.0662,-4.0647,-4.0477,-4.0561,-4.0527,-4.0512,-4.0389,-4.0054,-3.9785,-3.9611,-3.9342,-3.888,-4.319,-4.2551,-4.2385,-4.1554,-4.0418,-4.0168,-3.9807,-3.9421,-3.9407,-3.9458,-3.9508,-3.9658,-3.9781,-3.9848,-3.98,-3.9456,-3.8565,-3.7804,-3.7052,-3.6087,-3.5501,-3.5237,-3.5277,-3.5339,-3.5364,-3.5372,-3.5446,-3.5493,-3.55,-3.55,-3.55,-3.55,-3.55,-3.55,-3.5488,-3.5488,-3.5489,-3.5483,-3.549,-3.554,-3.5595,-3.5651,-3.5718,-3.5781,-3.5788,-3.5775,-3.5803,-3.5833,-3.5856,-3.5875,-3.5897,-3.5914,-3.597,-3.6001,-3.6013,-3.6004,-3.6008,-3.601,-3.6011,-3.6012,-3.6014,-3.6014,-3.6015,-3.6016,-3.6015,-3.6014,-3.6012,-3.6022,-3.5996,-3.5991,-3.5994,-3.5945,-3.5914,-3.5899,-3.5903,-3.5891,-3.5895,-3.5856,-3.5838,-3.5792,-3.5763,-3.6008,-3.6513,-3.6673,-3.7113,-3.7656,-3.8044,-3.8519,-3.9121,-3.9315,-3.9544,-4.0209,-4.0538,-4.0684,-4.0781,-4.0931,-4.0912,-4.0907,-4.0869,-4.0829,-4.0814,-4.0818,-4.0726,-4.0589,-4.0301,-4.0192,-4.0363,-4.0383,-4.0137,-3.9815,-3.9415,-3.9092,-3.89,-3.843,-3.7873,-4.307,-4.2361,-4.1662,-4.088,-4.0067,-3.9478,-3.9194,-3.9161,-3.9224,-3.9337,-3.9489,-3.9526,-3.9611,-3.9705,-3.9792,-3.8991,-3.8001,-3.7527,-3.673,-3.553,-3.5231,-3.5181,-3.5234,-3.5288,-3.5304,-3.5315,-3.5379,-3.5434,-3.5467,-3.5481,-3.55,-3.55,-3.55,-3.55,-3.55,-3.55,-3.55,-3.5494,-3.5489,-3.5528,-3.559,-3.5604,-3.5632,-3.5658,-3.5689,-3.5727,-3.5773,-3.5799,-3.5823,-3.5826,-3.5869,-3.5892,-3.5919,-3.5977,-3.6007,-3.6002,-3.6017,-3.601,-3.6009,-3.601,-3.601,-3.6011,-3.6012,-3.6013,-3.6015,-3.6015,-3.6014,-3.6014,-3.6011,-3.6004,-3.6013,-3.6009,-3.5999,-3.5968,-3.5934,-3.5926,-3.5916,-3.5919,-3.5905,-3.5898,-3.5856,-3.583,-3.606,-3.6105,-3.6233,-3.68,-3.7344,-3.78,-3.8294,-3.859,-3.889,-3.9556,-3.984,-3.9988,-4.0081,-4.0326,-4.0435,-4.0591,-4.0531,-4.0498,-4.0334,-4.0199,-4.0563,-4.0372,-4.0015,-3.9776,-3.9889,-3.9817,-3.9602,-3.9189,-3.8693,-3.8383,-3.8142,-3.7565,-3.6918,-4.2358,-4.1601,-4.0793,-4.0047,-3.9368,-3.901,-3.8935,-3.9031,-3.9115,-3.9192,-3.9343,-3.9413,-3.9483,-3.9575,-3.9647,-3.8822,-3.764,-3.7377,-3.649,-3.5268,-3.5039,-3.5092,-3.52,-3.5239,-3.525,-3.5297,-3.535,-3.5393,-3.5434,-3.5474,-3.55,-3.55,-3.55,-3.55,-3.55,-3.55,-3.55,-3.5494,-3.5502,-3.5515,-3.5534,-3.559,-3.5606,-3.5604,-3.5643,-3.5674,-3.5718,-3.5747,-3.5778,-3.5783,-3.5822,-3.5869,-3.5891,-3.5931,-3.5941,-3.5938,-3.5933,-3.5946,-3.5989,-3.5998,-3.6021,-3.6004,-3.6007,-3.6011,-3.6013,-3.6015,-3.6016,-3.6015,-3.6014,-3.6011,-3.6006,-3.6004,-3.6016,-3.5988,-3.5978,-3.597,-3.5964,-3.5953,-3.5963,-3.5958,-3.5955,-3.5914,-3.5889,-3.5949,-3.602,-3.6273,-3.6666,-3.698,-3.7637,-3.8254,-3.8553,-3.8877,-3.9042,-3.911,-3.9162,-3.9295,-3.9325,-3.9416,-3.9353,-3.9319,-3.9315,-3.9396,-3.9745,-3.9664,-3.9112,-3.9062,-3.9298,-3.909,-3.8737,-3.8337,-3.7931,-3.7609,-3.7268,-3.6676,-3.6137,-4.135,-4.0747,-4.0139,-3.947,-3.878,-3.8792,-3.8848,-3.895,-3.9017,-3.9087,-3.9202,-3.9328,-3.9432,-3.9471,-3.9408,-3.8705,-3.7269,-3.7242,-3.6233,-3.5322,-3.4898,-3.4973,-3.5092,-3.5143,-3.5229,-3.5277,-3.5331,-3.5383,-3.5412,-3.5453,-3.5467,-3.55,-3.55,-3.55,-3.55,-3.55,-3.55,-3.5488,-3.5489,-3.5509,-3.5496,-3.5547,-3.5553,-3.5564,-3.5593,-3.5621,-3.5667,-3.5674,-3.5708,-3.576,-3.5786,-3.5823,-3.5856,-3.5872,-3.5888,-3.5886,-3.5897,-3.5921,-3.5955,-3.5992,-3.6002,-3.6012,-3.6018,-3.6006,-3.6007,-3.6011,-3.6014,-3.6015,-3.6016,-3.6015,-3.6013,-3.6011,-3.6008,-3.6002,-3.5998,-3.601,-3.6002,-3.5995,-3.599,-3.5986,-3.5981,-3.5997,-3.596,-3.5945,-3.5953,-3.593,-3.6069,-3.627,-3.6846,-3.762,-3.7854,-3.8054,-3.8171,-3.8334,-3.8644,-3.8605,-3.8505,-3.8366,-3.8305,-3.8413,-3.8604,-3.8669,-3.887,-3.8595,-3.8222,-3.8149,-3.8263,-3.8067,-3.787,-3.7544,-3.7199,-3.6755,-3.6318,-3.5804,-3.5592,-4.0063,-3.9974,-3.99,-3.9405,-3.8723,-3.8795,-3.8788,-3.8851,-3.8892,-3.8974,-3.912,-3.9307,-3.936,-3.9399,-3.9257,-3.8534,-3.7028,-3.7094,-3.6092,-3.522,-3.4831,-3.4898,-3.4992,-3.5101,-3.5206,-3.5237,-3.5285,-3.5339,-3.5372,-3.5412,-3.5453,-3.55,-3.55,-3.55,-3.55,-3.55,-3.55,-3.55,-3.5494,-3.5494,-3.5482,-3.5509,-3.5515,-3.5528,-3.5553,-3.5602,-3.5606,-3.5621,-3.5634,-3.5723,-3.5737,-3.5788,-3.5803,-3.5803,-3.5826,-3.5859,-3.5885,-3.5889,-3.5905,-3.596,-3.5984,-3.5994,-3.6002,-3.5994,-3.6016,-3.6006,-3.6011,-3.6014,-3.6015,-3.6015,-3.6015,-3.6014,-3.6013,-3.601,-3.6007,-3.6005,-3.6019,-3.6014,-3.601,-3.6007,-3.6004,-3.6002,-3.602,-3.5988,-3.5987,-3.5963,-3.5973,-3.6153,-3.6122,-3.6694,-3.6887,-3.7061,-3.7234,-3.7587,-3.8268,-3.8209,-3.7827,-3.7749,-3.7737,-3.7947,-3.8198,-3.8207,-3.7896,-3.7848,-3.7534,-3.7377,-3.7211,-3.7146,-3.7031,-3.6814,-3.6505,-3.6198,-3.602,-3.5725,-3.5566,-3.9606,-3.9184,-3.9166,-3.8982,-3.8707,-3.8738,-3.878,-3.8807,-3.8837,-3.8892,-3.8993,-3.911,-3.918,-3.9221,-3.9195,-3.8432,-3.7081,-3.6956,-3.5953,-3.5112,-3.4689,-3.4791,-3.4879,-3.4992,-3.5084,-3.5179,-3.5229,-3.5273,-3.5323,-3.5364,-3.5427,-3.5474,-3.55,-3.55,-3.55,-3.55,-3.55,-3.55,-3.55,-3.55,-3.5488,-3.5494,-3.5502,-3.5496,-3.5515,-3.5566,-3.559,-3.5608,-3.5643,-3.5657,-3.5664,-3.5699,-3.5747,-3.5745,-3.5786,-3.5826,-3.5826,-3.5834,-3.5853,-3.5901,-3.5916,-3.5936,-3.5945,-3.5953,-3.6002,-3.6014,-3.6003,-3.6008,-3.6011,-3.6013,-3.6015,-3.6015,-3.6016,-3.6014,-3.6013,-3.6012,-3.6011,-3.6006,-3.6004,-3.6022,-3.6002,-3.6002,-3.6021,-3.5999,-3.6004,-3.6009,-3.6019,-3.6006,-3.601,-3.6013,-3.6303,-3.6459,-3.6614,-3.6635,-3.724,-3.7184,-3.7031,-3.7105,-3.7159,-3.7273,-3.7386,-3.6961,-3.6711,-3.6765,-3.6877,-3.6663,-3.6502,-3.6377,-3.6293,-3.6265,-3.6086,-3.5808,-3.5665,-3.5618,-3.5583,-3.9221,-3.8726,-3.8707,-3.8707,-3.8707,-3.8707,-3.8738,-3.8747,-3.8762,-3.8825,-3.8881,-3.8935,-3.8993,-3.9031,-3.9036,-3.825,-3.7136,-3.6702,-3.5805,-3.5057,-3.4583,-3.4678,-3.4791,-3.4889,-3.4992,-3.511,-3.5206,-3.5245,-3.527,-3.5323,-3.5386,-3.5453,-3.5493,-3.55,-3.55,-3.55,-3.55,-3.55,-3.55,-3.55,-3.55,-3.5488,-3.5488,-3.5483,-3.5509,-3.5528,-3.5554,-3.5572,-3.559,-3.5601,-3.5629,-3.5612,-3.5644,-3.5689,-3.5704,-3.5737,-3.5751,-3.576,-3.5786,-3.5834,-3.5862,-3.5906,-3.5902,-3.5934,-3.5966,-3.5997,-3.601,-3.6019,-3.6005,-3.6009,-3.6012,-3.6014,-3.6015,-3.6015,-3.6015,-3.6014,-3.6014,-3.6012,-3.6011,-3.6011,-3.6011,-3.6009,-3.6009,-3.6007,-3.6003,-3.6013,-3.6016,-3.6021,-3.6003,-3.6005,-3.6045,-3.6143,-3.6162,-3.6125,-3.6087,-3.6339,-3.657,-3.6512,-3.6509,-3.6371,-3.6289,-3.6004,-3.6015,-3.6284,-3.6278,-3.5994,-3.5997,-3.6111,-3.6011,-3.5857,-3.5741,-3.5704,-3.5649,-3.5643,-3.561,-3.8744,-3.8707,-3.8707,-3.8707,-3.8707,-3.8707,-3.8707,-3.8704,-3.8723,-3.875,-3.8807,-3.8862,-3.8892,-3.8906,-3.8935,-3.8035,-3.6922,-3.6642,-3.5864,-3.4694,-3.4465,-3.4572,-3.4678,-3.4791,-3.4898,-3.4964,-3.5092,-3.5187,-3.5226,-3.5278,-3.535,-3.5405,-3.5453,-3.5481,-3.5481,-3.55,-3.55,-3.55,-3.55,-3.55,-3.55,-3.55,-3.5488,-3.5494,-3.5494,-3.5515,-3.5515,-3.5528,-3.5547,-3.5578,-3.559,-3.5595,-3.5602,-3.5626,-3.5648,-3.5689,-3.5694,-3.5704,-3.5713,-3.5775,-3.5811,-3.5882,-3.5885,-3.5903,-3.5916,-3.5953,-3.5992,-3.5986,-3.5992,-3.6,-3.6008,-3.6013,-3.6014,-3.6015,-3.6015,-3.6016,-3.6015,-3.6015,-3.6014,-3.6014,-3.6012,-3.6011,-3.6011,-3.6011,-3.6011,-3.601,-3.601,-3.6011,-3.6011,-3.6016,-3.6016,-3.6013,-3.6013,-3.6013,-3.6013,-3.6012,-3.6089,-3.6011,-3.601,-3.6009,-3.6008,-3.6003,-3.6017,-3.6012,-3.6006,-3.5978,-3.5947,-3.5973,-3.5897,-3.5856,-3.5822,-3.5784,-3.5732,-3.5689,-3.5669,-3.8707,-3.8707,-3.8707,-3.8707,-3.8707,-3.8707,-3.8707,-3.8707,-3.8707,-3.8704,-3.8735,-3.8807,-3.8837,-3.8851,-3.8733,-3.8042,-3.6759,-3.653,-3.5756,-3.4394,-3.4363,-3.4465,-3.4594,-3.4718,-3.4811,-3.4917,-3.5047,-3.5153,-3.519,-3.5246,-3.5285,-3.535,-3.5412,-3.546,-3.5474,-3.55,-3.55,-3.55,-3.55,-3.55,-3.55,-3.55,-3.55,-3.55,-3.55,-3.5494,-3.5489,-3.5489,-3.5509,-3.5541,-3.5547,-3.5547,-3.5583,-3.5589,-3.5601,-3.5643,-3.5643,-3.564,-3.5643,-3.5669,-3.5712,-3.5799,-3.5853,-3.5862,-3.5911,-3.5911,-3.5929,-3.5945,-3.5956,-3.5988,-3.6018,-3.6006,-3.6009,-3.6012,-3.6014,-3.6015,-3.6015,-3.6016,-3.6015,-3.6015,-3.6015,-3.6016,-3.6016,-3.6016,-3.6016,-3.6016,-3.6014,-3.6014,-3.6015,-3.6016,-3.6016,-3.6016,-3.6015,-3.6015,-3.6016,-3.6016,-3.6016,-3.6014,-3.6014,-3.6013,-3.6012,-3.6011,-3.6009,-3.6004,-3.6019,-3.6014,-3.5986,-3.5974,-3.5934,-3.5903,-3.5885,-3.5838,-3.5786,-3.5745,-3.5727,-3.8707,-3.8707,-3.8707,-3.8707,-3.8707,-3.8707,-3.8707,-3.8707,-3.8707,-3.8707,-3.8723,-3.875,-3.878,-3.8777,-3.8696,-3.7985,-3.6579,-3.6473,-3.5697,-3.4328,-3.4233,-3.4381,-3.4506,-3.4634,-3.473,-3.485,-3.4974,-3.5065,-3.5126,-3.5209,-3.5273,-3.5308,-3.5364,-3.5439,-3.546,-3.5467,-3.55,-3.55,-3.55,-3.55,-3.55,-3.55,-3.55,-3.55,-3.55,-3.5488,-3.5481,-3.5488,-3.5494,-3.5502,-3.5496,-3.5528,-3.5547,-3.556,-3.5566,-3.5591,-3.5623,-3.5622,-3.5612,-3.5618,-3.5672,-3.5718,-3.5765,-3.5826,-3.5852,-3.5872,-3.588,-3.5919,-3.5936,-3.597,-3.6002,-3.5994,-3.6002,-3.6007,-3.6011,-3.6012,-3.6014,-3.6015,-3.6016,-3.6016,-3.6016,-3.6016,-3.6016,-3.6016,-3.6016,-3.6016,-3.6015,-3.6016,-3.6016,-3.6016,-3.6016,-3.6016,-3.6016,-3.6016,-3.6016,-3.6016,-3.6016,-3.6016,-3.6016,-3.6016,-3.6014,-3.6014,-3.6013,-3.6012,-3.6008,-3.6004,-3.6018,-3.5989,-3.5976,-3.5942,-3.5941,-3.5885,-3.5841,-3.5815,-3.5779,-3.8707,-3.8707,-3.8707,-3.8707,-3.8707,-3.8707,-3.8707,-3.8707,-3.8707,-3.8707,-3.8707,-3.8707,-3.8704,-3.8707,-3.8723,-3.7834,-3.6656,-3.6431,-3.5407,-3.45,-3.4179,-3.4281,-3.4416,-3.4547,-3.4647,-3.4769,-3.4879,-3.4955,-3.502,-3.5143,-3.5242,-3.5285,-3.5342,-3.5391,-3.5405,-3.5453,-3.5474,-3.55,-3.55,-3.55,-3.55,-3.55,-3.55,-3.55,-3.55,-3.55,-3.55,-3.5488,-3.5488,-3.5488,-3.5488,-3.5489,-3.5489,-3.5483,-3.5547,-3.5585,-3.5605,-3.5591,-3.5598,-3.5584,-3.5608,-3.5643,-3.5713,-3.576,-3.5795,-3.5807,-3.584,-3.5888,-3.5908,-3.5946,-3.5981,-3.5978,-3.5991,-3.5999,-3.6005,-3.6009,-3.6013,-3.6014,-3.6015,-3.6015,-3.6016,-3.6016,-3.6016,-3.6016,-3.6016,-3.6016,-3.6016,-3.6016,-3.6016,-3.6016,-3.6016,-3.6016,-3.6016,-3.6016,-3.6016,-3.6016,-3.6016,-3.6016,-3.6016,-3.6016,-3.6016,-3.6016,-3.6015,-3.6014,-3.6012,-3.601,-3.6006,-3.6021,-3.6014,-3.5985,-3.5974,-3.5926,-3.5869,-3.584,-3.5818,-3.8707,-3.8707,-3.8707,-3.8707,-3.8707,-3.8707,-3.8707,-3.8707,-3.8707,-3.8707,-3.8707,-3.8707,-3.8707,-3.8707,-3.8689,-3.7676,-3.6879,-3.6168,-3.5271,-3.4576,-3.4086,-3.4173,-3.4293,-3.445,-3.4561,-3.4668,-3.4752,-3.4851,-3.4955,-3.5091,-3.5185,-3.5242,-3.5289,-3.532,-3.535,-3.5398,-3.5446,-3.5493,-3.5493,-3.55,-3.55,-3.55,-3.55,-3.55,-3.55,-3.55,-3.55,-3.55,-3.55,-3.55,-3.55,-3.5494,-3.5494,-3.5501,-3.5508,-3.5534,-3.554,-3.5528,-3.5515,-3.5528,-3.5547,-3.5583,-3.5635,-3.5688,-3.5737,-3.5778,-3.5811,-3.5841,-3.5872,-3.5917,-3.5936,-3.5936,-3.5951,-3.5983,-3.5994,-3.6002,-3.6008,-3.6012,-3.6013,-3.6015,-3.6015,-3.6016,-3.6016,-3.6016,-3.6016,-3.6016,-3.6016,-3.6016,-3.6016,-3.6016,-3.6016,-3.6016,-3.6016,-3.6016,-3.6016,-3.6016,-3.6016,-3.6016,-3.6016,-3.6016,-3.6016,-3.6016,-3.6016,-3.6015,-3.6014,-3.6013,-3.601,-3.6007,-3.6004,-3.6002,-3.5996,-3.5955,-3.5909,-3.5886,-3.5859,-3.8707,-3.8707,-3.8707,-3.8707,-3.8707,-3.8707,-3.8707,-3.8707,-3.8707,-3.8707,-3.8707,-3.8707,-3.8707,-3.8707,-3.8615,-3.7863,-3.6409,-3.6272,-3.5487,-3.4284,-3.4029,-3.4124,-3.4233,-3.434,-3.4473,-3.4553,-3.4649,-3.4732,-3.485,-3.4964,-3.5082,-3.516,-3.5229,-3.525,-3.527,-3.5308,-3.5372,-3.5439,-3.5479,-3.5493,-3.55,-3.55,-3.55,-3.55,-3.55,-3.55,-3.55,-3.55,-3.55,-3.55,-3.55,-3.55,-3.55,-3.55,-3.55,-3.5507,-3.5507,-3.5501,-3.5495,-3.5502,-3.5528,-3.5554,-3.5559,-3.5601,-3.5662,-3.5713,-3.577,-3.581,-3.585,-3.5862,-3.5885,-3.5886,-3.5924,-3.5962,-3.5978,-3.601,-3.6021,-3.6008,-3.6012,-3.6014,-3.6016,-3.6016,-3.6016,-3.6016,-3.6016,-3.6016,-3.6016,-3.6016,-3.6016,-3.6016,-3.6016,-3.6016,-3.6016,-3.6016,-3.6016,-3.6016,-3.6016,-3.6016,-3.6016,-3.6016,-3.6016,-3.6016,-3.6016,-3.6016,-3.6015,-3.6016,-3.6016,-3.6016,-3.6011,-3.601,-3.6008,-3.5978,-3.596,-3.594,-3.5919,-3.8707,-3.8707,-3.8707,-3.8707,-3.8707,-3.8707,-3.8707,-3.8707,-3.8707,-3.8707,-3.8707,-3.8707,-3.8707,-3.867,-3.8487,-3.7661,-3.6541,-3.6079,-3.528,-3.3931,-3.3959,-3.4049,-3.4136,-3.4257,-3.4351,-3.4443,-3.455,-3.4607,-3.471,-3.484,-3.4973,-3.5065,-3.5143,-3.5185,-3.5218,-3.5254,-3.53,-3.5361,-3.5405,-3.546,-3.5493,-3.5493,-3.55,-3.55,-3.55,-3.55,-3.55,-3.55,-3.55,-3.55,-3.55,-3.55,-3.55,-3.55,-3.55,-3.55,-3.55,-3.5488,-3.5488,-3.5494,-3.5489,-3.5509,-3.549,-3.554,-3.5595,-3.5643,-3.5708,-3.5737,-3.5758,-3.5795,-3.5826,-3.585,-3.5872,-3.5916,-3.596,-3.5978,-3.6012,-3.6002,-3.601,-3.6013,-3.6016,-3.6016,-3.6016,-3.6016,-3.6016,-3.6016,-3.6016,-3.6016,-3.6016,-3.6016,-3.6016,-3.6016,-3.6016,-3.6016,-3.6016,-3.6016,-3.6016,-3.6016,-3.6016,-3.6016,-3.6016,-3.6016,-3.6016,-3.6016,-3.6016,-3.6016,-3.6016,-3.6016,-3.6016,-3.6014,-3.6012,-3.601,-3.6002,-3.5988,-3.597,-3.8707,-3.8707,-3.8707,-3.8707,-3.8707,-3.8707,-3.8707,-3.8707,-3.8707,-3.8707,-3.8707,-3.8707,-3.867,-3.856,-3.8065,-3.7217,-3.6358,-3.5642,-3.4743,-3.4104,-3.3895,-3.3959,-3.4011,-3.4148,-3.4233,-3.4293,-3.4374,-3.4517,-3.4626,-3.4761,-3.4851,-3.4945,-3.5038,-3.5091,-3.517,-3.5209,-3.525,-3.5293,-3.5327,-3.5391,-3.5412,-3.5467,-3.55,-3.55,-3.55,-3.55,-3.55,-3.55,-3.55,-3.55,-3.55,-3.55,-3.55,-3.55,-3.55,-3.55,-3.55,-3.55,-3.55,-3.55,-3.5494,-3.5482,-3.5502,-3.5502,-3.5553,-3.5599,-3.5623,-3.5649,-3.5699,-3.5741,-3.5775,-3.5803,-3.5829,-3.5869,-3.5919,-3.5962,-3.6001,-3.6017,-3.6008,-3.6012,-3.6014,-3.6016,-3.6016,-3.6016,-3.6016,-3.6016,-3.6016,-3.6016,-3.6016,-3.6016,-3.6016,-3.6016,-3.6016,-3.6016,-3.6016,-3.6016,-3.6016,-3.6016,-3.6016,-3.6016,-3.6016,-3.6016,-3.6016,-3.6016,-3.6016,-3.6016,-3.6016,-3.6016,-3.6016,-3.6016,-3.6015,-3.6013,-3.6012,-3.6006,-3.5994,-3.8609,-3.8624,-3.8673,-3.8707,-3.8707,-3.8707,-3.8707,-3.8707,-3.8707,-3.8707,-3.8707,-3.867,-3.8524,-3.8248,-3.7658,-3.674,-3.5866,-3.5261,-3.4564,-3.4054,-3.3855,-3.3895,-3.3972,-3.403,-3.4093,-3.4185,-3.4293,-3.4439,-3.455,-3.4647,-3.4751,-3.4821,-3.4908,-3.4992,-3.5065,-3.5117,-3.5187,-3.5248,-3.5258,-3.5297,-3.5342,-3.5405,-3.5467,-3.5474,-3.55,-3.55,-3.55,-3.55,-3.55,-3.55,-3.55,-3.55,-3.55,-3.55,-3.55,-3.55,-3.55,-3.55,-3.55,-3.55,-3.55,-3.5494,-3.5494,-3.5502,-3.5502,-3.5553,-3.5581,-3.561,-3.5629,-3.5674,-3.5727,-3.5778,-3.5792,-3.5845,-3.5897,-3.5931,-3.5994,-3.6012,-3.6002,-3.6008,-3.6011,-3.6016,-3.6016,-3.6016,-3.6016,-3.6016,-3.6016,-3.6016,-3.6016,-3.6015,-3.6015,-3.6015,-3.6015,-3.6016,-3.6016,-3.6016,-3.6016,-3.6016,-3.6016,-3.6016,-3.6016,-3.6016,-3.6016,-3.6016,-3.6016,-3.6016,-3.6016,-3.6016,-3.6016,-3.6016,-3.6016,-3.6015,-3.6014,-3.6014,-3.6008,-3.8494,-3.8525,-3.864,-3.8707,-3.8707,-3.8707,-3.8707,-3.8707,-3.8707,-3.8707,-3.8652,-3.856,-3.8098,-3.7713,-3.729,-3.6211,-3.5334,-3.4821,-3.4266,-3.3985,-3.3855,-3.3855,-3.3895,-3.3959,-3.4036,-3.4124,-3.4233,-3.434,-3.4454,-3.4531,-3.4615,-3.4697,-3.4781,-3.486,-3.4898,-3.5001,-3.5101,-3.5145,-3.5168,-3.5218,-3.5273,-3.5335,-3.5405,-3.546,-3.5493,-3.5493,-3.55,-3.55,-3.55,-3.55,-3.55,-3.55,-3.55,-3.55,-3.55,-3.55,-3.55,-3.55,-3.55,-3.55,-3.55,-3.5481,-3.55,-3.5488,-3.5494,-3.5502,-3.554,-3.5558,-3.5599,-3.5618,-3.5679,-3.5732,-3.5769,-3.5815,-3.5876,-3.5919,-3.5964,-3.6004,-3.6014,-3.6002,-3.6006,-3.6009,-3.601,-3.601,-3.601,-3.601,-3.601,-3.601,-3.6011,-3.6012,-3.6013,-3.6013,-3.6014,-3.6016,-3.6016,-3.6016,-3.6016,-3.6016,-3.6016,-3.6016,-3.6016,-3.6016,-3.6016,-3.6016,-3.6016,-3.6016,-3.6016,-3.6016,-3.6016,-3.6016,-3.6016,-3.6016,-3.6015,-3.6015,-3.6014,-3.8446,-3.851,-3.8643,-3.8707,-3.8707,-3.8707,-3.8707,-3.8707,-3.8707,-3.8707,-3.8542,-3.8006,-3.7584,-3.7437,-3.6743,-3.5844,-3.4912,-3.4399,-3.41,-3.3839,-3.3834,-3.3815,-3.3842,-3.3908,-3.4016,-3.4086,-3.4173,-3.4257,-3.4328,-3.4397,-3.4495,-3.4612,-3.4634,-3.472,-3.4812,-3.4889,-3.4974,-3.5029,-3.5101,-3.5153,-3.5218,-3.5281,-3.5357,-3.5398,-3.5412,-3.5453,-3.5474,-3.5481,-3.55,-3.55,-3.55,-3.55,-3.55,-3.55,-3.55,-3.55,-3.55,-3.55,-3.55,-3.55,-3.55,-3.55,-3.55,-3.55,-3.5488,-3.5488,-3.5515,-3.5528,-3.5552,-3.5599,-3.5637,-3.5688,-3.5723,-3.5799,-3.5862,-3.5878,-3.5924,-3.5968,-3.5985,-3.5992,-3.6018,-3.6003,-3.6007,-3.6007,-3.6007,-3.6007,-3.6006,-3.6007,-3.6005,-3.6008,-3.6009,-3.6009,-3.601,-3.6016,-3.6016,-3.6016,-3.6016,-3.6016,-3.6016,-3.6016,-3.6016,-3.6016,-3.6016,-3.6016,-3.6016,-3.6016,-3.6016,-3.6016,-3.6016,-3.6016,-3.6016,-3.6016,-3.6016,-3.6015,-3.6015]},{"header":{"parameterUnit":"m.s-1","parameterCategory":1,"la1":31.0,"la2":29.5877,"lo1":-88.7671,"lo2":-86.6584,"dy":0.0162,"dx":0.0185,"nx":115,"ny":88,"refTime":"2024-04-14T06:00:00:Z","depth":0,"parameterNumber":3,"parameterNumberName":"V-component_of_WINDS"},"data":[0.0,0.0,0.0,0.0,0.0,0.0,0.0,0.0,0.0,0.0,0.0,0.0,0.0,0.0,0.0,0.0,0.0,0.0,0.0,0.0,0.0,0.0,0.0,0.0,0.0,0.0,0.0,0.0,0.0,0.0,0.0,0.0,0.0,0.0,0.0,0.0,0.0,0.0,0.0,0.0,0.0,0.0,0.0,0.0,0.0,0.0,0.0,0.0,0.0,0.0,0.0,0.0,0.0,0.0,0.0,0.0,0.0,0.0,0.0,0.0,0.0,0.0,0.0,0.0,0.0,0.0,0.0,0.0,0.0,0.0,0.0,0.0,0.0,0.0,0.0,0.0,0.0,0.0,0.0,0.0,0.0,0.0,0.0,0.0,0.0,0.0,0.0,0.0,0.0,0.0,0.0,0.0,0.0,0.0,0.0,0.0,0.0,0.0,0.0,0.0,0.0,0.0,0.0,0.0,0.0,0.0,0.0,0.0,0.0,0.0,0.0,0.0,0.0,0.0,0.0,0.0,0.0,0.0,0.0,0.0,0.0,0.0,0.0,0.0,0.0,0.0,0.0,0.0,0.0,0.0,0.0,0.0,0.0,0.0,0.0,0.0,0.0,0.0,0.0,0.0,0.0,0.0,0.0,0.0,0.0,0.0,0.0,0.0,0.0,0.0,0.0,0.0,0.0,0.0,0.0,0.0,0.0,0.0,0.0,0.0,0.0,0.0,0.0,0.0,0.0,0.0,0.0,0.0,0.0,0.0,0.0,0.0,0.0,0.0,0.0,0.0,0.0,0.0,0.0,0.0,0.0,0.0,0.0,0.0,0.0,0.0,0.0,0.0,0.0,0.0,0.0,0.0,0.0,0.0,0.0,0.0,0.0,0.0,0.0,0.0,0.0,0.0,0.0,0.0,0.0,0.0,0.0,0.0,0.0,0.0,0.0,0.0,0.0,0.0,0.0,0.0,0.0,0.0,0.0,0.0,0.0,0.0,0.0,0.0,0.0,0.0,0.0,0.0,0.0,0.0,0.0,0.0,0.0,0.0,0.0,0.0,0.0,0.0,0.0,0.0,0.0,0.0,0.0,0.0,0.0,0.0,0.0,0.0,0.0,0.0,0.0,0.0,0.0,0.0,0.0,0.0,0.0,0.0,0.0,0.0,0.0,0.0,0.0,0.0,0.0,0.0,0.0,0.0,0.0,0.0,0.0,0.0,0.0,0.0,0.0,0.0,0.0,0.0,0.0,0.0,0.0,0.0,0.0,0.0,0.0,0.0,0.0,0.0,0.0,0.0,0.0,0.0,0.0,0.0,0.0,0.0,0.0,0.0,0.0,0.0,0.0,0.0,0.0,0.0,0.0,0.0,0.0,0.0,0.0,0.0,0.0,0.0,0.0,0.0,0.0,0.0,0.0,0.0,0.0,0.0,0.0,0.0,0.0,0.0,0.0,0.0,0.0,0.0,0.0,0.0,0.0,0.0,0.0,0.0,0.0,0.0,0.0,0.0,0.0,0.0,0.0,0.0,0.0,0.0,0.0,0.0,0.0,0.0,0.0,0.0,0.0,0.0,0.0,0.0,0.0,0.0,0.0,0.0,0.0,0.0,0.0,0.0,0.0,0.0,0.0,0.0,0.0,0.0,0.0,0.0,0.0,0.0,0.0,0.0,0.0,0.0,0.0,0.0,0.0,0.0,0.0,0.0,0.0,0.0,0.0,0.0,0.0,0.0,0.0,0.0,0.0,0.0,0.0,0.0,0.0,0.0,0.0,0.0,0.0,0.0,0.0,0.0,0.0,0.0,0.0,0.0,0.0,0.0,0.0,0.0,0.0,0.0,0.0,0.0,0.0,0.0,0.0,0.0,0.0,0.0,0.0,0.0,0.0,0.0,0.0,0.0,0.0,0.0,0.0,0.0,0.0,0.0,0.0,0.0,0.0,0.0,0.0,0.0,0.0,0.0,0.0,0.0,0.0,0.0,0.0,0.0,0.0,0.0,0.0,0.0,0.0,0.0,0.0,0.0,0.0,0.0,0.0,0.0,0.0,0.0,0.0,0.0,0.0,0.0,0.0,0.0,0.0,0.0,0.0,0.0,0.0,0.0,0.0,0.0,0.0,0.0,0.0,0.0,0.0,0.0,0.0,0.0,0.0,0.0,0.0,0.0,0.0,0.0,0.0,0.0,0.0,0.0,0.0,0.0,0.0,0.0,0.0,0.0,0.0,0.0,0.0,0.0,0.0,0.0,0.0,0.0,0.0,0.0,0.0,0.0,0.0,0.0,0.0,0.0,0.0,0.0,0.0,0.0,0.0,0.0,0.0,0.0,0.0,0.0,0.0,0.0,0.0,0.0,0.0,0.0,0.0,0.0,0.0,0.0,0.0,0.0,0.0,0.0,0.0,0.0,0.0,0.0,0.0,0.0,0.0,0.0,0.0,0.0,0.0,0.0,0.0,0.0,0.0,0.0,0.0,0.0,0.0,0.0,0.0,0.0,0.0,0.0,0.0,0.0,0.0,0.0,0.0,0.0,0.0,0.0,0.0,0.0,0.0,0.0,0.0,0.0,0.0,0.0,0.0,0.0,0.0,0.0,0.0,0.0,0.0,0.0,0.0,0.0,0.0,0.0,0.0,0.0,0.0,0.0,0.0,0.0,0.0,0.0,0.0,0.0,0.0,0.0,0.0,0.0,0.0,0.0,0.0,0.0,0.0,0.0,0.0,0.0,0.0,0.0,0.0,0.0,0.0,0.0,0.0,0.0,0.0,0.0,0.0,0.0,0.0,0.0,0.0,0.0,0.0,0.0,0.0,0.0,0.0,0.0,0.0,0.0,0.0,0.0,0.0,0.0,0.0,0.0,0.0,0.0,0.0,0.0,0.0,0.0,0.0,0.0,0.0,0.0,0.0,0.0,0.0,0.0,0.0,0.0,0.0,0.0,0.0,0.0,0.0,0.0,0.0,0.0,0.0,0.0,0.0,0.0,0.0,0.0,0.0,0.0,0.0,0.0,0.0,0.0,0.0,0.0,0.0,0.0,0.0,0.0,0.0,0.0,0.0,0.0,0.0,0.0,0.0,0.0,0.0,0.0,0.0,0.0,0.0,0.0,0.0,0.0,0.0,0.0,0.0,0.0,0.0,0.0,0.0,0.0,0.0,0.0,0.0,0.0,0.0,0.0,0.0,0.0,0.0,0.0,0.0,0.0,0.0,0.0,0.0,0.0,0.0,0.0,0.0,0.0,0.0,0.0,0.0,0.0,0.0,0.0,0.0,0.0,0.0,0.0,0.0,0.0,0.0,0.0,0.0,0.0,0.0,0.0,0.0,0.0,0.0,0.0,0.0,0.0,0.0,0.0,0.0,0.0,0.0,0.0,0.0,0.0,0.0,0.0,0.0,0.0,0.0,0.0,0.0,0.0,0.0,0.0,0.0,0.0,0.0,0.0,0.0,0.0,0.0,0.0,0.0,0.0,0.0,0.0,0.0,0.0,0.0,0.0,0.0,0.0,0.0,0.0,0.0,0.0,0.0,0.0,0.0,0.0,0.0,0.0,0.0,0.0,0.0,0.0,0.0,0.0,0.0,0.0,0.0,0.0,0.0,0.0,0.0,0.0,0.0,0.0,0.0,0.0,0.0,0.0,0.0,0.0,0.0,0.0,0.0,0.0,0.0,0.0,0.0,0.0,0.0,0.0,0.0,0.0,0.0,0.0,0.0,0.0,0.0,0.0,0.0,0.0,0.0,0.0,0.0,0.0,0.0,0.0,0.0,0.0,0.0,0.0,0.0,0.0,0.0,0.0,0.0,0.0,0.0,0.0,0.0,0.0,0.0,0.0,0.0,0.0,0.0,0.0,0.0,0.0,0.0,0.0,0.0,0.0,0.0,0.0,0.0,0.0,0.0,0.0,0.0,0.0,0.0,0.0,0.0,0.0,0.0,0.0,0.0,0.0,0.0,0.0,0.0,0.0,0.0,0.0,0.0,0.0,0.0,0.0,0.0,0.0,0.0,0.0,0.0,0.0,0.0,0.0,0.0,0.0,0.0,0.0,0.0,0.0,0.0,0.0,0.0,0.0,0.0,0.0,0.0,0.0,0.0,0.0,0.0,0.0,0.0,0.0,0.0,0.0,0.0,0.0,0.0,0.0,0.0,0.0,0.0,0.0,0.0,0.0,0.0,0.0,0.0,0.0,0.0,0.0,0.0,0.0,0.0,0.0,0.0,0.0,0.0,0.0,0.0,0.0,0.0,0.0,0.0,0.0,0.0,0.0,0.0,0.0,0.0,0.0,0.0,0.0,-1.2985,0.0,0.0,0.0,0.0,0.0,0.0,0.0,0.0,0.0,0.0,0.0,0.0,0.0,0.0,0.0,0.0,0.0,0.0,0.0,0.0,0.0,0.0,0.0,0.0,0.0,0.0,0.0,0.0,0.0,0.0,0.0,0.0,0.0,0.0,0.0,0.0,0.0,0.0,0.0,0.0,0.0,0.0,0.0,0.0,0.0,0.0,0.0,0.0,0.0,0.0,0.0,0.0,0.0,0.0,0.0,0.0,0.0,0.0,0.0,0.0,0.0,0.0,0.0,0.0,0.0,0.0,0.0,0.0,0.0,0.0,0.0,0.0,0.0,0.0,0.0,0.0,0.0,0.0,0.0,0.0,0.0,0.0,0.0,0.0,0.0,0.0,0.0,0.0,0.0,0.0,0.0,0.0,0.0,0.0,0.0,0.0,0.0,0.0,0.0,0.0,0.0,0.0,0.0,0.0,0.0,0.0,0.0,0.0,0.0,0.0,-1.0476,-1.0857,-1.1455,-1.2114,-1.2876,0.0,0.0,0.0,0.0,0.0,0.0,0.0,0.0,0.0,0.0,0.0,0.0,0.0,0.0,0.0,0.0,0.0,0.0,0.0,0.0,0.0,0.0,0.0,0.0,0.0,0.0,0.0,0.0,0.0,0.0,0.0,0.0,0.0,0.0,0.0,0.0,0.0,0.0,0.0,0.0,0.0,0.0,0.0,0.0,0.0,0.0,0.0,0.0,0.0,0.0,0.0,0.0,0.0,0.0,0.0,0.0,0.0,0.0,0.0,0.0,0.0,0.0,0.0,0.0,0.0,0.0,0.0,0.0,0.0,0.0,0.0,0.0,0.0,0.0,0.0,0.0,0.0,0.0,0.0,0.0,0.0,0.0,0.0,0.0,0.0,0.0,0.0,0.0,0.0,0.0,0.0,0.0,0.0,0.0,0.0,0.0,0.0,0.0,0.0,0.0,0.0,0.0,0.0,0.0,0.0,0.0,0.0,0.0,0.0,0.0,0.0,0.0,-1.1236,-1.206,-1.3044,0.0,0.0,0.0,0.0,0.0,0.0,0.0,0.0,0.0,0.0,0.0,0.0,0.0,0.0,0.0,0.0,0.0,0.0,0.0,0.0,0.0,0.0,0.0,0.0,0.0,0.0,0.0,0.0,0.0,0.0,0.0,0.0,0.0,0.0,0.0,0.0,0.0,0.0,0.0,0.0,0.0,0.0,0.0,0.0,0.0,0.0,0.0,0.0,0.0,0.0,0.0,0.0,0.0,0.0,0.0,0.0,0.0,0.0,0.0,0.0,0.0,0.0,0.0,0.0,0.0,0.0,0.0,0.0,0.0,0.0,0.0,0.0,0.0,0.0,0.0,0.0,0.0,0.0,0.0,0.0,0.0,0.0,0.0,0.0,0.0,0.0,0.0,0.0,0.0,0.0,0.0,0.0,0.0,0.0,0.0,0.0,0.0,0.0,0.0,0.0,0.0,0.0,0.0,0.0,0.0,0.0,0.0,0.0,0.0,0.0,-0.9981,-1.0312,-1.1131,0.0,-1.3586,0.0,0.0,0.0,0.0,0.0,0.0,0.0,0.0,0.0,0.0,0.0,0.0,0.0,0.0,0.0,0.0,0.0,0.0,0.0,0.0,0.0,0.0,0.0,0.0,0.0,0.0,0.0,0.0,0.0,0.0,0.0,0.0,0.0,0.0,0.0,0.0,0.0,0.0,0.0,0.0,0.0,0.0,0.0,0.0,0.0,0.0,0.0,0.0,0.0,0.0,0.0,0.0,0.0,0.0,0.0,0.0,0.0,0.0,0.0,0.0,0.0,0.0,0.0,0.0,0.0,0.0,0.0,0.0,0.0,0.0,0.0,0.0,0.0,0.0,0.0,0.0,0.0,0.0,0.0,0.0,0.0,0.0,0.0,0.0,0.0,0.0,0.0,0.0,0.0,0.0,0.0,0.0,0.0,0.0,0.0,0.0,0.0,0.0,0.0,0.0,0.0,0.0,0.0,0.0,0.0,0.0,0.0,0.0,0.0,0.0,-0.9868,-0.9981,-1.1181,-1.2332,0.0,0.0,0.0,0.0,0.0,0.0,0.0,0.0,0.0,0.0,0.0,0.0,0.0,0.0,0.0,0.0,0.0,0.0,0.0,0.0,0.0,0.0,0.0,0.0,0.0,0.0,0.0,0.0,0.0,0.0,0.0,0.0,0.0,0.0,0.0,0.0,0.0,0.0,0.0,0.0,0.0,0.0,0.0,0.0,0.0,0.0,0.0,0.0,0.0,0.0,0.0,0.0,0.0,0.0,0.0,0.0,0.0,0.0,0.0,0.0,0.0,0.0,0.0,0.0,0.0,0.0,0.0,0.0,0.0,0.0,0.0,0.0,0.0,0.0,0.0,0.0,0.0,0.0,0.0,0.0,0.0,0.0,0.0,0.0,0.0,0.0,0.0,0.0,0.0,0.0,0.0,0.0,0.0,0.0,0.0,0.0,0.0,0.0,0.0,0.0,0.0,0.0,0.0,0.0,0.0,0.0,0.0,0.0,0.0,0.0,-0.9485,-0.9923,-1.0308,-1.1404,-1.2387,-1.3261,0.0,0.0,0.0,0.0,0.0,0.0,0.0,0.0,0.0,0.0,0.0,0.0,0.0,0.0,0.0,0.0,0.0,0.0,0.0,0.0,0.0,0.0,0.0,0.0,0.0,0.0,0.0,0.0,0.0,0.0,0.0,0.0,0.0,0.0,0.0,0.0,0.0,0.0,0.0,0.0,0.0,0.0,0.0,0.0,0.0,0.0,0.0,0.0,0.0,0.0,0.0,0.0,0.0,0.0,0.0,0.0,0.0,0.0,0.0,0.0,0.0,0.0,0.0,0.0,0.0,0.0,0.0,0.0,0.0,0.0,0.0,0.0,0.0,0.0,0.0,0.0,0.0,0.0,0.0,0.0,0.0,0.0,0.0,0.0,0.0,0.0,0.0,0.0,0.0,0.0,0.0,0.0,0.0,0.0,0.0,0.0,0.0,0.0,0.0,0.0,0.0,0.0,0.0,0.0,0.0,0.0,0.0,0.0,-0.8937,-0.9485,-1.0363,-1.1459,-1.1841,-1.2387,0.0,0.0,0.0,0.0,0.0,0.0,0.0,0.0,0.0,0.0,0.0,0.0,0.0,0.0,0.0,0.0,0.0,0.0,0.0,0.0,0.0,0.0,0.0,0.0,0.0,0.0,0.0,0.0,0.0,0.0,0.0,0.0,0.0,0.0,0.0,0.0,0.0,0.0,0.0,0.0,0.0,0.0,0.0,0.0,0.0,0.0,0.0,0.0,0.0,0.0,0.0,0.0,0.0,0.0,0.0,0.0,0.0,0.0,0.0,0.0,0.0,0.0,0.0,0.0,0.0,0.0,0.0,0.0,0.0,0.0,0.0,0.0,0.0,0.0,0.0,0.0,0.0,0.0,0.0,0.0,0.0,0.0,0.0,0.0,0.0,0.0,0.0,0.0,0.0,0.0,0.0,0.0,0.0,0.0,0.0,0.0,0.0,0.0,0.0,0.0,0.0,0.0,0.0,0.0,0.0,0.0,0.0,0.0,0.0,-0.8937,-0.9485,-1.0253,-1.1236,-1.1564,-1.2223,0.0,0.0,0.0,0.0,0.0,0.0,0.0,0.0,0.0,0.0,0.0,0.0,0.0,0.0,0.0,0.0,0.0,0.0,0.0,0.0,0.0,0.0,0.0,0.0,0.0,0.0,0.0,0.0,0.0,0.0,0.0,0.0,0.0,0.0,0.0,0.0,0.0,0.0,0.0,0.0,0.0,0.0,0.0,0.0,0.0,0.0,0.0,0.0,0.0,0.0,0.0,0.0,0.0,0.0,0.0,0.0,0.0,0.0,0.0,0.0,0.0,0.0,0.0,0.0,0.0,0.0,0.0,0.0,0.0,0.0,0.0,0.0,0.0,0.0,0.0,0.0,0.0,0.0,0.0,0.0,0.0,0.0,0.0,0.0,0.0,0.0,0.0,0.0,0.0,0.0,0.0,0.0,0.0,0.0,0.0,0.0,0.0,0.0,0.0,0.0,0.0,0.0,0.0,0.0,0.0,0.0,0.0,0.0,0.0,-0.9047,0.0,-1.0143,-1.0911,-1.1404,-1.206,0.0,0.0,0.0,0.0,0.0,0.0,0.0,0.0,0.0,0.0,0.0,0.0,0.0,0.0,0.0,0.0,0.0,0.0,0.0,0.0,0.0,0.0,0.0,0.0,0.0,0.0,0.0,0.0,0.0,0.0,0.0,0.0,0.0,0.0,0.0,0.0,0.0,0.0,0.0,0.0,0.0,0.0,0.0,0.0,0.0,0.0,0.0,0.0,0.0,0.0,0.0,0.0,0.0,0.0,0.0,0.0,0.0,0.0,0.0,0.0,0.0,0.0,0.0,0.0,0.0,0.0,0.0,0.0,0.0,0.0,0.0,0.0,0.0,0.0,0.0,0.0,0.0,0.0,0.0,0.0,0.0,0.0,0.0,0.0,0.0,0.0,0.0,0.0,0.0,0.0,0.0,0.0,0.0,0.0,0.0,0.0,0.0,0.0,0.0,0.0,0.0,0.0,0.0,0.0,0.0,0.0,0.0,0.0,-0.9047,-0.9379,-0.9651,-1.0088,-1.0692,-1.1295,-1.2005,0.0,0.0,0.0,0.0,0.0,0.0,0.0,0.0,0.0,0.0,0.0,0.0,0.0,0.0,0.0,0.0,0.0,0.0,0.0,0.0,0.0,0.0,0.0,0.0,0.0,0.0,0.0,0.0,0.0,0.0,0.0,0.0,0.0,0.0,0.0,0.0,0.0,0.0,0.0,0.0,0.0,0.0,0.0,0.0,0.0,0.0,0.0,0.0,0.0,0.0,0.0,0.0,0.0,0.0,0.0,0.0,0.0,0.0,0.0,0.0,0.0,0.0,0.0,0.0,0.0,0.0,0.0,0.0,0.0,0.0,0.0,0.0,0.0,0.0,0.0,0.0,0.0,0.0,0.0,0.0,0.0,0.0,0.0,0.0,0.0,0.0,0.0,0.0,0.0,0.0,0.0,0.0,0.0,0.0,0.0,0.0,0.0,0.0,0.0,0.0,0.0,0.0,0.0,0.0,0.0,0.0,0.0,0.0,0.0,-0.9051,-0.9541,-0.9981,-1.0417,-1.1185,-1.2005,0.0,0.0,0.0,0.0,0.0,0.0,0.0,0.0,0.0,0.0,0.0,0.0,0.0,0.0,0.0,0.0,0.0,0.0,0.0,0.0,0.0,0.0,0.0,0.0,0.0,0.0,0.0,0.0,0.0,0.0,0.0,0.0,0.0,0.0,0.0,0.0,0.0,0.0,0.0,0.0,0.0,0.0,0.0,0.0,0.0,0.0,0.0,0.0,0.0,0.0,0.0,0.0,0.0,0.0,0.0,0.0,0.0,0.0,0.0,0.0,0.0,0.0,0.0,0.0,0.0,0.0,0.0,0.0,0.0,0.0,0.0,0.0,0.0,0.0,0.0,0.0,0.0,0.0,0.0,0.0,0.0,0.0,0.0,0.0,0.0,0.0,0.0,0.0,0.0,0.0,0.0,0.0,0.0,0.0,0.0,0.0,0.0,0.0,0.0,0.0,0.0,0.0,0.0,0.0,0.0,0.0,0.0,0.0,0.0,-0.8937,-0.9485,-0.9871,-1.0091,-1.1076,-1.1951,-1.2713,0.0,0.0,0.0,0.0,0.0,0.0,0.0,0.0,0.0,0.0,0.0,0.0,0.0,0.0,0.0,0.0,0.0,0.0,0.0,0.0,0.0,0.0,0.0,0.0,0.0,0.0,0.0,0.0,0.0,0.0,0.0,0.0,0.0,0.0,0.0,0.0,0.0,0.0,0.0,0.0,0.0,0.0,0.0,0.0,0.0,0.0,0.0,0.0,0.0,0.0,0.0,0.0,0.0,0.0,0.0,0.0,0.0,0.0,0.0,0.0,0.0,0.0,0.0,0.0,0.0,0.0,0.0,0.0,0.0,0.0,0.0,0.0,0.0,0.0,0.0,0.0,0.0,0.0,0.0,0.0,0.0,0.0,0.0,0.0,0.0,0.0,0.0,0.0,0.0,0.0,0.0,0.0,0.0,0.0,0.0,0.0,0.0,0.0,0.0,0.0,0.0,0.0,0.0,0.0,0.0,0.0,0.0,0.0,-0.8937,-0.9485,-0.9816,-0.982,-1.0966,-1.1841,0.0,0.0,0.0,0.0,0.0,0.0,0.0,0.0,0.0,0.0,0.0,0.0,0.0,0.0,0.0,0.0,0.0,0.0,0.0,0.0,0.0,0.0,0.0,0.0,0.0,0.0,0.0,0.0,0.0,0.0,0.0,0.0,0.0,0.0,0.0,0.0,0.0,0.0,0.0,0.0,0.0,0.0,0.0,0.0,0.0,0.0,0.0,0.0,0.0,0.0,0.0,0.0,0.0,0.0,0.0,0.0,0.0,0.0,0.0,0.0,0.0,0.0,0.0,0.0,0.0,0.0,0.0,0.0,0.0,0.0,0.0,0.0,0.0,0.0,0.0,0.0,0.0,0.0,0.0,0.0,0.0,0.0,0.0,0.0,0.0,0.0,0.0,0.0,0.0,0.0,0.0,0.0,0.0,0.0,0.0,0.0,0.0,0.0,0.0,0.0,0.0,0.0,0.0,0.0,0.0,0.0,0.0,0.0,0.0,-0.8937,-0.9489,-0.9816,-0.9816,-1.0966,-1.1837,0.0,0.0,0.0,0.0,0.0,0.0,0.0,0.0,0.0,0.0,0.0,0.0,0.0,0.0,0.0,0.0,0.0,0.0,0.0,0.0,0.0,0.0,0.0,0.0,0.0,0.0,0.0,0.0,0.0,0.0,0.0,0.0,0.0,0.0,0.0,0.0,0.0,0.0,0.0,0.0,0.0,0.0,0.0,0.0,0.0,0.0,0.0,0.0,0.0,0.0,0.0,0.0,0.0,0.0,0.0,0.0,0.0,0.0,0.0,0.0,0.0,0.0,0.0,0.0,0.0,0.0,0.0,0.0,0.0,0.0,0.0,0.0,0.0,0.0,0.0,0.0,0.0,0.0,0.0,0.0,0.0,0.0,0.0,0.0,0.0,0.0,0.0,0.0,0.0,0.0,0.0,0.0,0.0,0.0,0.0,0.0,0.0,0.0,0.0,0.0,0.0,0.0,0.0,0.0,0.0,0.0,0.0,0.0,-0.8747,-0.8747,-0.9284,-0.9608,-0.9611,-1.0887,-1.1841,0.0,0.0,0.0,0.0,0.0,0.0,0.0,0.0,0.0,0.0,0.0,0.0,0.0,0.0,0.0,0.0,0.0,0.0,0.0,0.0,0.0,0.0,0.0,0.0,0.0,0.0,0.0,0.0,0.0,0.0,0.0,0.0,0.0,0.0,0.0,0.0,0.0,0.0,0.0,0.0,0.0,0.0,0.0,0.0,0.0,0.0,0.0,0.0,0.0,0.0,0.0,0.0,0.0,0.0,0.0,0.0,0.0,0.0,0.0,0.0,0.0,0.0,0.0,0.0,0.0,0.0,0.0,0.0,0.0,0.0,0.0,0.0,0.0,0.0,0.0,0.0,0.0,0.0,0.0,0.0,0.0,0.0,0.0,0.0,0.0,0.0,0.0,0.0,0.0,0.0,0.0,0.0,0.0,0.0,0.0,0.0,0.0,0.0,0.0,0.0,0.0,0.0,0.0,0.0,0.0,0.0,0.0,0.0,-0.8535,-0.8535,-0.901,-0.9332,-0.9339,-1.0791,-1.1783,0.0,0.0,0.0,0.0,0.0,0.0,0.0,0.0,0.0,0.0,0.0,0.0,0.0,0.0,0.0,0.0,0.0,0.0,0.0,0.0,0.0,0.0,0.0,0.0,0.0,0.0,0.0,0.0,0.0,0.0,0.0,0.0,0.0,0.0,0.0,0.0,0.0,0.0,0.0,0.0,0.0,0.0,0.0,0.0,0.0,0.0,0.0,0.0,0.0,0.0,0.0,0.0,0.0,0.0,0.0,0.0,0.0,0.0,0.0,0.0,0.0,0.0,0.0,0.0,0.0,0.0,0.0,0.0,0.0,0.0,0.0,0.0,0.0,0.0,0.0,0.0,0.0,0.0,0.0,0.0,0.0,0.0,0.0,0.0,0.0,0.0,0.0,0.0,0.0,0.0,0.0,0.0,0.0,0.0,0.0,0.0,0.0,0.0,0.0,0.0,0.0,0.0,0.0,0.0,0.0,0.0,0.0,0.0,-0.8535,-0.8535,-0.901,-0.9332,-0.9332,-1.0491,-1.1374,0.0,0.0,0.0,0.0,0.0,0.0,0.0,0.0,0.0,0.0,0.0,0.0,0.0,0.0,0.0,0.0,0.0,0.0,0.0,0.0,0.0,0.0,0.0,0.0,0.0,0.0,0.0,0.0,0.0,0.0,0.0,0.0,0.0,0.0,0.0,0.0,0.0,0.0,0.0,0.0,0.0,0.0,0.0,0.0,0.0,0.0,0.0,0.0,-1.2772,0.0,0.0,0.0,0.0,0.0,0.0,0.0,0.0,0.0,0.0,0.0,0.0,0.0,0.0,0.0,0.0,0.0,0.0,0.0,0.0,0.0,0.0,0.0,0.0,0.0,0.0,0.0,0.0,0.0,0.0,0.0,0.0,0.0,0.0,0.0,0.0,0.0,0.0,0.0,0.0,0.0,0.0,0.0,0.0,0.0,0.0,0.0,0.0,0.0,0.0,0.0,0.0,0.0,0.0,0.0,0.0,0.0,0.0,0.0,-0.8275,-0.8275,-0.8783,-0.9042,-0.9093,-1.0162,-1.1059,0.0,0.0,0.0,0.0,0.0,0.0,0.0,0.0,0.0,0.0,0.0,0.0,0.0,0.0,0.0,0.0,0.0,0.0,0.0,0.0,0.0,0.0,0.0,0.0,0.0,0.0,0.0,0.0,0.0,0.0,0.0,0.0,0.0,0.0,0.0,0.0,0.0,0.0,0.0,0.0,0.0,0.0,0.0,0.0,0.0,0.0,0.0,0.0,0.0,0.0,0.0,0.0,0.0,0.0,0.0,0.0,0.0,0.0,0.0,0.0,0.0,0.0,0.0,0.0,0.0,0.0,0.0,0.0,0.0,0.0,0.0,0.0,0.0,0.0,0.0,0.0,0.0,0.0,0.0,0.0,0.0,0.0,0.0,0.0,0.0,0.0,0.0,0.0,0.0,0.0,0.0,0.0,0.0,0.0,0.0,0.0,0.0,0.0,0.0,0.0,0.0,0.0,0.0,0.0,0.0,0.0,0.0,-0.7988,-0.7988,-0.8038,-0.8531,-0.8775,-0.8825,-0.9867,-1.0816,-1.1704,0.0,0.0,0.0,0.0,0.0,0.0,0.0,0.0,0.0,0.0,0.0,0.0,0.0,0.0,0.0,0.0,0.0,0.0,0.0,0.0,0.0,0.0,0.0,0.0,0.0,0.0,0.0,0.0,0.0,0.0,0.0,0.0,0.0,0.0,0.0,0.0,0.0,0.0,-0.8937,-0.8937,0.0,0.0,0.0,0.0,0.0,0.0,0.0,0.0,-1.3044,0.0,0.0,0.0,0.0,0.0,0.0,0.0,0.0,0.0,0.0,0.0,0.0,0.0,0.0,0.0,0.0,0.0,0.0,0.0,0.0,0.0,0.0,0.0,0.0,0.0,0.0,0.0,0.0,0.0,0.0,0.0,0.0,0.0,0.0,0.0,0.0,0.0,0.0,0.0,0.0,0.0,0.0,0.0,0.0,0.0,0.0,0.0,0.0,0.0,0.0,0.0,0.0,0.0,0.0,0.0,0.0,-0.7988,-0.7988,-0.7988,-0.7988,-0.8528,-0.8775,-0.8825,-0.9867,-1.0686,-1.1293,0.0,0.0,0.0,0.0,0.0,0.0,0.0,0.0,0.0,0.0,0.0,0.0,0.0,0.0,0.0,0.0,0.0,0.0,0.0,0.0,0.0,0.0,0.0,0.0,0.0,0.0,0.0,0.0,0.0,0.0,0.0,0.0,0.0,0.0,0.0,0.0,0.0,0.0,0.0,-0.8937,-0.8937,0.0,0.0,0.0,0.0,0.0,0.0,0.0,0.0,-1.3689,0.0,0.0,0.0,0.0,0.0,0.0,0.0,0.0,0.0,0.0,0.0,0.0,0.0,0.0,0.0,0.0,0.0,0.0,0.0,0.0,0.0,0.0,0.0,0.0,0.0,0.0,0.0,0.0,0.0,0.0,0.0,0.0,0.0,0.0,0.0,0.0,0.0,0.0,0.0,0.0,0.0,0.0,0.0,0.0,0.0,0.0,0.0,0.0,0.0,0.0,0.0,0.0,0.0,0.0,0.0,-0.7988,-0.7988,-0.7988,-0.7988,-0.8531,-0.8775,-0.8825,-0.9817,-1.0659,0.0,0.0,0.0,0.0,0.0,0.0,0.0,0.0,0.0,0.0,0.0,0.0,0.0,0.0,0.0,0.0,0.0,0.0,0.0,0.0,0.0,0.0,0.0,0.0,0.0,0.0,0.0,0.0,0.0,0.0,0.0,0.0,0.0,0.0,0.0,0.0,0.0,0.0,0.0,0.0,-0.8937,-0.8937,-0.8937,0.0,0.0,0.0,0.0,0.0,0.0,-1.2718,-1.3527,0.0,0.0,0.0,0.0,0.0,0.0,0.0,0.0,0.0,0.0,0.0,0.0,0.0,0.0,0.0,0.0,0.0,0.0,0.0,0.0,0.0,0.0,0.0,0.0,0.0,0.0,0.0,0.0,0.0,0.0,0.0,0.0,0.0,0.0,0.0,0.0,0.0,0.0,0.0,0.0,0.0,0.0,0.0,0.0,0.0,0.0,0.0,0.0,0.0,0.0,0.0,0.0,0.0,0.0,0.0,-0.7988,-0.7988,-0.7988,-0.7988,-0.8531,-0.8775,-0.8825,-0.9817,-1.0609,0.0,0.0,0.0,0.0,0.0,0.0,0.0,0.0,0.0,0.0,0.0,0.0,0.0,0.0,0.0,0.0,0.0,0.0,0.0,0.0,0.0,0.0,0.0,0.0,0.0,0.0,0.0,0.0,0.0,0.0,0.0,0.0,0.0,0.0,0.0,0.0,0.0,0.0,0.0,0.0,0.0,-0.8937,-0.8937,-0.943,0.0,0.0,0.0,0.0,-1.1891,-1.2604,0.0,0.0,0.0,0.0,0.0,0.0,0.0,0.0,0.0,0.0,0.0,0.0,0.0,0.0,0.0,0.0,0.0,0.0,0.0,0.0,0.0,0.0,0.0,0.0,0.0,0.0,0.0,0.0,0.0,0.0,0.0,0.0,0.0,0.0,0.0,0.0,0.0,0.0,0.0,0.0,0.0,0.0,0.0,0.0,0.0,0.0,0.0,0.0,0.0,0.0,0.0,0.0,0.0,0.0,0.0,0.0,-0.7988,-0.7988,-0.7988,-0.8038,-0.8531,-0.8775,-0.8825,-0.9817,-1.056,0.0,0.0,0.0,0.0,0.0,0.0,0.0,0.0,0.0,0.0,0.0,0.0,0.0,0.0,0.0,0.0,0.0,0.0,0.0,0.0,0.0,0.0,0.0,0.0,0.0,0.0,0.0,0.0,0.0,0.0,0.0,0.0,0.0,0.0,0.0,0.0,0.0,0.0,0.0,0.0,0.0,-0.8937,-0.8937,-0.943,-0.9816,0.0,0.0,-1.1295,-1.1568,-1.2114,0.0,0.0,0.0,0.0,0.0,0.0,0.0,0.0,0.0,0.0,0.0,0.0,0.0,0.0,0.0,0.0,0.0,0.0,0.0,0.0,0.0,0.0,0.0,0.0,0.0,0.0,0.0,0.0,0.0,0.0,0.0,0.0,0.0,0.0,0.0,0.0,0.0,0.0,0.0,0.0,0.0,0.0,0.0,0.0,0.0,0.0,0.0,0.0,0.0,0.0,0.0,0.0,0.0,0.0,0.0,-0.7988,-0.7988,-0.7988,-0.7988,-0.7988,-0.8531,-0.8775,-0.8775,-0.9669,-1.0364,0.0,0.0,0.0,0.0,0.0,0.0,0.0,0.0,0.0,0.0,0.0,0.0,0.0,0.0,0.0,0.0,0.0,0.0,0.0,0.0,0.0,0.0,0.0,0.0,0.0,0.0,0.0,0.0,0.0,0.0,0.0,0.0,0.0,0.0,0.0,0.0,0.0,0.0,0.0,0.0,0.0,0.0,-0.8937,-0.9265,0.0,0.0,0.0,-1.1021,-1.1514,0.0,0.0,0.0,0.0,0.0,0.0,0.0,0.0,0.0,0.0,0.0,0.0,0.0,0.0,0.0,0.0,0.0,0.0,0.0,0.0,0.0,0.0,0.0,0.0,0.0,0.0,0.0,0.0,0.0,0.0,0.0,0.0,0.0,0.0,0.0,0.0,0.0,0.0,0.0,0.0,0.0,0.0,0.0,0.0,0.0,0.0,0.0,0.0,0.0,0.0,0.0,0.0,0.0,0.0,0.0,0.0,0.0,-0.7988,-0.7988,-0.7988,-0.7988,-0.8482,-0.8726,-0.8825,-0.9521,0.0,0.0,0.0,0.0,0.0,0.0,0.0,0.0,0.0,0.0,0.0,0.0,0.0,0.0,0.0,0.0,0.0,0.0,0.0,0.0,0.0,0.0,0.0,0.0,0.0,0.0,0.0,-1.11,0.0,0.0,0.0,0.0,0.0,0.0,0.0,0.0,0.0,0.0,0.0,0.0,0.0,0.0,-0.8937,-0.8937,-0.9213,-0.9489,0.0,0.0,-1.0802,-1.14,-1.1782,-1.2219,0.0,0.0,0.0,0.0,0.0,0.0,0.0,0.0,0.0,0.0,0.0,0.0,0.0,0.0,0.0,0.0,0.0,0.0,0.0,0.0,0.0,0.0,0.0,0.0,0.0,0.0,0.0,0.0,0.0,0.0,0.0,0.0,0.0,0.0,0.0,0.0,0.0,0.0,0.0,0.0,0.0,0.0,0.0,0.0,0.0,0.0,0.0,0.0,0.0,0.0,0.0,0.0,0.0,0.0,-0.7988,-0.7988,-0.7988,-0.7988,-0.8038,-0.8283,-0.8531,-0.8775,-0.9324,-0.9867,0.0,0.0,0.0,0.0,0.0,0.0,0.0,0.0,0.0,0.0,0.0,0.0,0.0,0.0,0.0,0.0,0.0,0.0,0.0,0.0,0.0,0.0,0.0,0.0,0.0,0.0,0.0,0.0,0.0,0.0,0.0,0.0,0.0,0.0,0.0,0.0,0.0,0.0,0.0,0.0,0.0,-0.8937,-0.8937,-0.9158,-0.9485,0.0,-1.0091,-1.0527,-1.1072,-1.1181,-1.1455,-1.2273,0.0,0.0,0.0,0.0,0.0,0.0,0.0,0.0,0.0,0.0,0.0,0.0,0.0,0.0,0.0,0.0,0.0,0.0,0.0,0.0,0.0,0.0,0.0,0.0,0.0,0.0,0.0,0.0,0.0,0.0,0.0,0.0,0.0,0.0,0.0,0.0,0.0,0.0,0.0,0.0,0.0,0.0,0.0,0.0,0.0,0.0,0.0,0.0,0.0,0.0,0.0,0.0,0.0,-0.777,-0.777,-0.7855,-0.7902,-0.7899,-0.8147,-0.844,-0.868,-0.892,-0.9291,0.0,0.0,0.0,0.0,0.0,0.0,0.0,0.0,0.0,0.0,0.0,0.0,0.0,0.0,0.0,0.0,0.0,0.0,0.0,0.0,0.0,0.0,0.0,0.0,0.0,0.0,0.0,0.0,-0.9529,-0.9183,-0.873,0.0,0.0,0.0,0.0,0.0,0.0,0.0,0.0,0.0,0.0,-0.8937,-0.8937,-0.9213,0.0,0.0,-1.0091,-1.0476,-1.1021,-1.1131,-1.1291,-1.1782,-1.2055,0.0,0.0,0.0,0.0,0.0,0.0,0.0,0.0,0.0,0.0,0.0,0.0,0.0,0.0,0.0,0.0,0.0,0.0,0.0,0.0,0.0,0.0,0.0,0.0,0.0,0.0,0.0,0.0,0.0,0.0,0.0,0.0,0.0,0.0,0.0,0.0,0.0,0.0,0.0,0.0,0.0,0.0,0.0,0.0,0.0,0.0,0.0,0.0,0.0,0.0,0.0,0.0,-0.7503,-0.7597,-0.7695,-0.775,-0.7746,-0.7948,-0.814,-0.842,-0.8538,-0.8855,0.0,0.0,0.0,0.0,0.0,0.0,0.0,0.0,0.0,0.0,0.0,0.0,0.0,0.0,0.0,0.0,0.0,0.0,0.0,0.0,0.0,0.0,0.0,0.0,0.0,0.0,0.0,0.0,-0.9183,-0.8783,-0.8336,0.0,0.0,0.0,0.0,0.0,0.0,0.0,0.0,0.0,0.0,-0.9047,-0.9047,-0.9323,-0.9596,-0.9926,-1.0147,-1.0472,-1.0907,-1.0966,-1.1076,-1.1404,0.0,0.0,0.0,0.0,0.0,0.0,0.0,0.0,0.0,0.0,0.0,0.0,0.0,0.0,0.0,0.0,0.0,0.0,0.0,0.0,0.0,0.0,0.0,0.0,0.0,0.0,0.0,-0.5586,0.0,0.0,-0.5632,0.0,0.0,0.0,0.0,0.0,0.0,0.0,0.0,0.0,0.0,0.0,0.0,0.0,0.0,0.0,0.0,0.0,0.0,0.0,0.0,0.0,0.0,-0.7349,-0.7594,-0.755,-0.7604,-0.7604,-0.7604,-0.7742,-0.7976,-0.82,-0.857,-0.9084,0.0,0.0,0.0,0.0,0.0,0.0,0.0,0.0,0.0,0.0,0.0,0.0,0.0,0.0,0.0,0.0,0.0,0.0,0.0,0.0,0.0,0.0,0.0,0.0,0.0,0.0,-0.9232,-0.8733,-0.8333,0.0,0.0,0.0,0.0,0.0,0.0,0.0,0.0,0.0,0.0,-0.9017,-0.9379,-0.9379,-0.9596,-0.9926,-1.0202,-1.0312,-1.0421,-1.0692,-1.0692,-1.0798,0.0,0.0,0.0,0.0,0.0,0.0,0.0,0.0,0.0,0.0,0.0,0.0,0.0,0.0,0.0,0.0,0.0,0.0,0.0,0.0,0.0,0.0,0.0,0.0,0.0,0.0,0.0,-0.4435,-0.4533,0.0,0.0,0.0,0.0,0.0,0.0,0.0,0.0,0.0,0.0,0.0,-0.471,-0.4681,0.0,0.0,0.0,0.0,0.0,0.0,0.0,0.0,0.0,0.0,0.0,0.0,-0.6702,-0.6798,-0.7076,-0.7221,-0.7221,-0.7359,-0.7583,-0.7809,-0.78,-0.8061,-0.8731,0.0,0.0,0.0,0.0,0.0,0.0,0.0,0.0,0.0,0.0,0.0,0.0,0.0,0.0,0.0,0.0,0.0,0.0,0.0,0.0,0.0,0.0,0.0,0.0,0.0,-0.8977,0.0,0.0,0.0,0.0,0.0,0.0,0.0,0.0,0.0,0.0,0.0,-0.8584,-0.8741,-0.9118,-0.9434,-0.9651,-0.9926,-1.0202,0.0,0.0,0.0,0.0,0.0,0.0,0.0,0.0,0.0,0.0,0.0,0.0,0.0,0.0,-1.1011,-1.1405,-1.1347,-1.1346,-1.1604,0.0,0.0,0.0,0.0,0.0,0.0,0.0,0.0,0.0,0.0,0.0,0.0,0.0,0.0,-0.3618,0.0,-0.3896,0.0,0.0,0.0,0.0,0.0,0.0,0.0,0.0,-0.369,-0.3678,-0.3863,-0.3883,-0.4055,0.0,-0.4366,-0.4689,0.0,0.0,0.0,0.0,0.0,0.0,0.0,0.0,-0.6343,-0.639,-0.6655,-0.6844,-0.6937,-0.7115,-0.7292,-0.7465,-0.7508,-0.7768,-0.8328,-0.8332,-0.8552,0.0,0.0,0.0,0.0,0.0,0.0,0.0,0.0,0.0,0.0,0.0,0.0,0.0,0.0,0.0,0.0,0.0,0.0,0.0,0.0,0.0,0.0,0.0,-0.8523,0.0,0.0,0.0,0.0,0.0,0.0,0.0,0.0,0.0,-0.8113,-0.8436,-0.8709,-0.8973,-0.9428,-0.9761,-0.9926,0.0,0.0,0.0,0.0,0.0,0.0,0.0,-1.0202,-0.9871,-0.9816,-0.9816,-0.9816,-0.9816,-0.9816,-0.9816,0.0,0.0,-1.0898,-1.0917,-1.0928,-1.1248,-1.1466,-1.176,-1.2241,-1.2638,-1.3051,0.0,0.0,0.0,0.0,0.0,0.0,0.0,0.0,-0.2773,-0.2895,0.0,-0.3139,0.0,0.0,0.0,0.0,0.0,-0.3088,0.0,0.0,-0.3027,-0.2956,-0.2997,-0.3124,-0.3183,-0.3183,-0.3456,-0.3678,-0.3942,-0.461,0.0,0.0,0.0,0.0,0.0,0.0,-0.6169,-0.634,-0.639,-0.6479,-0.6754,-0.6795,-0.6884,-0.7098,-0.737,-0.7635,-0.7856,-0.79,-0.8116,-0.8548,-0.8592,0.0,0.0,0.0,0.0,0.0,0.0,0.0,0.0,0.0,0.0,0.0,0.0,0.0,0.0,0.0,0.0,0.0,0.0,0.0,0.0,-0.8255,0.0,0.0,0.0,0.0,0.0,0.0,0.0,0.0,0.0,0.0,-0.8258,-0.8654,-0.8959,-0.9169,0.0,0.0,0.0,0.0,-1.0692,-1.0692,-1.0692,-1.0582,-1.0312,-1.0253,-1.0147,-0.9816,0.0,0.0,-0.9761,-0.9761,-0.9761,-0.9761,-0.9761,-0.9928,-1.0315,-1.0609,-1.0805,-1.088,-1.1309,-1.1704,-1.1627,-1.2354,-1.3028,0.0505,0.0,0.0,0.0,0.0,-0.1363,-0.1515,-0.1665,-0.1842,-0.2123,-0.2355,-0.2371,0.0,0.0,0.0,0.0,0.0,0.0,-0.2466,-0.2465,-0.245,-0.2398,-0.2443,-0.2475,-0.2557,-0.2691,-0.2782,-0.3005,-0.3405,-0.3628,-0.4074,-0.479,0.0,0.0,0.0,0.0,-0.5458,-0.568,-0.5855,-0.6033,-0.6305,-0.6435,-0.6656,-0.6881,-0.7102,-0.7323,-0.7591,-0.7635,-0.7768,-0.8069,-0.8113,0.0,0.0,0.0,0.0,0.0,0.0,0.0,0.0,0.0,0.0,0.0,0.0,0.0,0.0,0.0,0.0,0.0,0.0,0.0,-0.7832,-0.7873,-0.7928,0.0,0.0,0.0,0.0,0.0,0.0,0.0,0.0,0.0,-0.8387,-0.8713,-0.9061,0.0,0.0,-1.0366,-1.0527,-1.0641,-1.0692,-1.0692,-1.0527,0.0,-0.9981,-0.9761,-0.9541,-0.9213,-0.9158,-0.9158,-0.9154,-0.9158,-0.9158,-0.9158,-0.9375,-0.9585,-0.9654,-1.0073,-1.0446,-1.056,-1.0833,-1.1238,-1.1625,-1.2025,-1.2394,0.1565,0.0757,0.0303,-0.0101,-0.0353,-0.0505,-0.0707,-0.0908,-0.1039,-0.1272,-0.1503,-0.1521,-0.1538,-0.16,-0.16,0.0,0.0,0.0,-0.1615,-0.1615,-0.1615,-0.1615,-0.1615,-0.1795,-0.193,-0.2064,-0.2289,-0.2512,-0.278,-0.2825,-0.3138,-0.3812,0.0,0.0,-0.4563,-0.4788,-0.4968,-0.5104,-0.5322,-0.5589,-0.5947,-0.6207,-0.649,-0.6708,-0.678,-0.6923,-0.7189,-0.7189,-0.7314,-0.7572,-0.7572,-0.7615,0.0,0.0,0.0,0.0,0.0,0.0,0.0,0.0,0.0,0.0,0.0,-0.8405,-0.8274,0.0,0.0,0.0,-0.7781,-0.7622,-0.7552,-0.7641,0.0,0.0,0.0,0.0,0.0,0.0,0.0,-0.7988,-0.7988,-0.815,-0.8442,-0.8849,-0.9248,-0.9634,-1.0132,-1.0531,-1.0692,0.0,-1.0692,-1.0692,-1.0472,-1.0202,-0.9868,-0.9599,-0.9268,-0.8937,-0.8937,-0.8937,-0.8937,-0.8937,-0.8937,-0.8937,-0.9051,-0.9217,-0.9213,-0.9596,-1.0065,-1.0287,-1.0592,-1.096,-1.151,-1.1728,-1.2071,0.2573,0.2068,0.1313,0.0808,0.0505,0.0455,0.0202,-0.0252,-0.0297,-0.0436,-0.0667,-0.0699,-0.0685,-0.0673,-0.0673,0.0,-0.0718,-0.0718,-0.0718,-0.0718,-0.0718,-0.0718,-0.0718,-0.1166,-0.1346,-0.1346,-0.184,-0.2109,-0.2155,-0.211,-0.2244,-0.2469,-0.3309,-0.3799,-0.3892,-0.4338,-0.465,-0.4648,-0.4812,-0.5161,-0.5645,-0.6025,-0.6352,-0.6517,-0.6431,-0.645,-0.6657,-0.666,-0.6781,-0.7026,-0.7067,-0.7154,-0.7326,0.0,0.0,0.0,0.0,0.0,0.0,0.0,0.0,0.0,0.0,0.0,0.0,0.0,0.0,0.0,-0.7231,0.0,-0.7343,-0.7502,0.0,0.0,0.0,-0.7988,-0.7988,-0.7988,-0.7988,-0.7988,0.0,0.0,-0.8428,-0.9007,-0.95,-0.9753,-1.03,-1.0692,-1.0692,-1.0692,-1.0692,-1.0637,-1.0417,-1.0147,-0.9816,-0.9544,-0.9268,-0.8937,-0.8937,-0.8937,-0.8937,-0.8937,-0.8937,-0.8937,-0.8937,-0.8937,-0.8937,-0.9158,-0.9544,-1.0084,-1.0464,-1.0803,-1.1183,-1.1549,-1.1905,0.3327,0.3176,0.2825,0.212,0.1312,0.1111,0.0909,0.0806,0.0585,0.0383,0.0095,0.0092,-0.009,-0.0448,-0.0493,-0.0538,-0.0718,-0.0718,-0.0718,-0.0718,-0.0718,-0.0718,-0.0718,-0.0807,-0.0852,-0.0852,-0.0987,-0.1256,-0.157,-0.157,-0.184,-0.2242,-0.2428,-0.2823,-0.3357,-0.3661,-0.398,-0.4328,-0.4304,-0.4607,-0.5238,-0.5468,-0.5709,-0.5919,-0.6094,-0.6201,-0.6245,-0.6405,-0.6488,-0.6567,-0.6695,-0.6823,-0.6867,-0.6864,0.0,0.0,0.0,0.0,0.0,0.0,0.0,0.0,0.0,-0.7591,-0.7591,0.0,-0.7279,0.0,-0.7139,-0.7112,-0.7193,-0.7438,0.0,0.0,-0.7833,-0.7988,-0.7988,-0.7988,-0.7988,-0.7988,-0.7988,-0.8062,-0.8299,-0.8727,-0.9184,-0.9596,-1.0225,-1.0692,-1.0692,-1.0692,-1.0637,-1.0421,-1.0147,-0.9816,-0.9541,-0.9213,-0.8995,-0.8937,-0.8937,-0.8937,-0.8937,-0.8937,-0.8937,-0.8937,-0.8937,-0.8937,-0.8937,-0.8992,-0.9158,-0.9544,-1.0036,-1.0519,-1.1067,-1.1279,-1.1592,0.4183,0.3934,0.3784,0.333,0.2621,0.2119,0.1767,0.156,0.1358,0.1144,0.0856,0.0776,0.0493,0.009,0.009,0.0045,-0.009,-0.009,-0.0135,-0.0179,-0.0224,-0.0269,-0.0404,-0.0493,-0.0538,-0.0583,-0.0673,-0.0807,-0.1076,-0.1067,-0.1239,-0.1548,-0.1689,-0.1981,-0.2395,-0.2885,-0.3297,-0.3507,-0.3892,-0.4287,-0.4657,-0.4904,-0.5208,-0.5454,-0.556,-0.5693,-0.586,-0.5975,-0.6056,-0.6059,-0.6217,-0.6341,-0.6337,-0.6461,-0.6532,0.0,0.0,0.0,0.0,0.0,0.0,0.0,0.0,0.0,0.0,0.0,-0.7095,-0.7095,-0.7095,-0.7095,-0.7095,-0.7421,-0.7597,-0.76,-0.7862,-0.7988,-0.7988,-0.7988,-0.7988,-0.7988,-0.7988,-0.8099,-0.8303,-0.865,-0.9008,-0.9387,-0.993,-1.0421,-1.0637,-1.0582,-1.0472,-1.0308,-0.9926,-0.9485,-0.9213,-0.9051,-0.8937,-0.8937,-0.8937,-0.8937,-0.8937,-0.8937,-0.8937,-0.8937,-0.8937,-0.8937,-0.8937,-0.8937,-0.9047,-0.9379,-0.9761,-1.0253,-1.0794,-1.1039,-1.1295,0.4989,0.4539,0.4539,0.4386,0.4083,0.3429,0.2773,0.2213,0.2084,0.1902,0.1606,0.1368,0.1076,0.0852,0.0807,0.0762,0.0762,0.0718,0.0583,0.0448,0.0448,0.0314,0.009,-0.0179,-0.0314,-0.0314,-0.0492,-0.0625,-0.0669,-0.0657,-0.065,-0.0736,-0.1101,-0.1297,-0.1339,-0.213,-0.2586,-0.2669,-0.3503,-0.396,-0.4041,-0.4329,-0.4686,-0.5039,-0.498,-0.5085,-0.5443,-0.5482,-0.5521,-0.5518,-0.575,-0.5864,-0.5864,-0.6103,-0.6276,0.0,-0.6444,0.0,0.0,0.0,0.0,0.0,0.0,0.0,0.0,-0.7095,-0.7095,-0.7095,-0.7095,-0.7095,-0.7095,-0.7417,-0.7597,-0.7607,-0.7862,-0.7988,-0.7988,-0.7988,-0.7988,-0.7988,-0.7988,-0.8092,-0.8272,-0.857,-0.8874,-0.913,-0.9501,-0.9944,-1.0414,-1.0366,-1.0202,-1.0205,-0.971,-0.9213,-0.8992,-0.8937,-0.8937,-0.8937,-0.8937,-0.8937,-0.8937,-0.8937,-0.8937,-0.8937,-0.8937,-0.8937,-0.8937,-0.8937,-0.8995,-0.9268,-0.9519,-0.9881,-1.0455,-1.076,-1.1097,0.5486,0.5386,0.5386,0.5238,0.4939,0.4836,0.4183,0.3267,0.2954,0.2621,0.2316,0.2071,0.184,0.157,0.1346,0.1211,0.1031,0.0807,0.0673,0.0628,0.0628,0.0628,0.0538,0.0359,0.0224,0.0224,0.0,-0.0263,-0.0437,-0.0428,-0.0551,-0.0678,-0.0787,-0.086,-0.0859,0.0,0.0,0.0,-0.2902,-0.3219,-0.3614,-0.3837,-0.4064,-0.4302,-0.4435,0.0,-0.4618,-0.4929,-0.5124,-0.5121,-0.5437,0.0,0.0,0.0,0.0,0.0,0.0,0.0,0.0,0.0,0.0,0.0,-0.681,-0.6974,-0.7085,-0.7095,-0.7095,-0.7095,-0.7095,-0.7095,-0.7098,-0.7417,-0.7597,-0.7611,-0.7865,-0.7988,-0.7988,-0.7988,-0.7988,-0.7988,-0.7988,-0.7998,-0.8089,-0.8262,-0.8567,-0.8874,-0.9137,-0.9501,-0.9904,-0.9923,-0.9816,-0.9599,-0.9268,-0.8992,-0.8937,-0.8937,-0.8937,-0.8937,-0.8937,-0.8937,-0.8937,-0.8937,-0.8937,-0.8937,-0.8937,-0.8937,-0.8937,-0.8937,-0.8937,-0.8995,-0.917,-0.9453,-1.0038,-1.0566,-1.094,0.6237,0.5987,0.5987,0.5787,0.0,0.5388,0.5085,0.452,0.3873,0.3306,0.2826,0.2735,0.2512,0.2155,0.1974,0.184,0.1615,0.1525,0.1301,0.1076,0.1031,0.0897,0.0718,0.0583,0.0535,0.053,0.0437,0.0216,-0.0043,-0.0042,-0.0166,-0.0372,-0.0445,-0.048,-0.052,-0.0909,-0.1453,-0.2199,-0.2393,-0.2668,-0.2979,-0.3215,-0.345,-0.3802,-0.3997,0.0,0.0,0.0,0.0,0.0,0.0,0.0,0.0,-0.5482,0.0,-0.575,-0.5864,-0.598,-0.6099,-0.6289,-0.6439,-0.6511,-0.6753,-0.6947,-0.7088,-0.7095,-0.7095,-0.7095,-0.7095,-0.7095,-0.7105,-0.7417,-0.7597,-0.7611,-0.7865,-0.7988,-0.7988,-0.7988,-0.7988,-0.7988,-0.7988,-0.7988,-0.7988,-0.8174,-0.8344,-0.8574,-0.8766,-0.8976,-0.9233,-0.9494,-0.9489,-0.9213,-0.9051,-0.8937,-0.8937,-0.8937,-0.8937,-0.8937,-0.8937,-0.8937,-0.8937,-0.8937,-0.8937,-0.8937,-0.8937,-0.8937,-0.8937,-0.8937,-0.8861,-0.8842,-0.9035,-0.9236,-0.953,-1.0031,-1.0514,0.6936,0.6537,0.6537,0.6284,0.5884,0.5887,0.5812,0.5619,0.0,0.0,0.0,0.3361,0.3093,0.2738,0.2648,0.2557,0.2378,0.2289,0.2019,0.1615,0.157,0.1346,0.0941,0.0893,0.0796,0.0827,0.0734,0.0554,0.0335,0.0368,0.0243,0.004,-0.0119,-0.0236,-0.0314,-0.0629,-0.1061,-0.165,-0.1962,-0.2198,-0.2393,-0.2589,-0.2901,-0.329,-0.3526,-0.3726,-0.3923,-0.4114,-0.4229,-0.4304,-0.4657,-0.4888,-0.4888,-0.5243,-0.5443,-0.5521,-0.5709,-0.5825,-0.5899,-0.6099,-0.6322,-0.6501,-0.6729,-0.6916,-0.7082,-0.7095,-0.7095,-0.7095,-0.7095,-0.7095,-0.7098,-0.739,-0.7573,-0.7597,-0.7838,-0.7958,-0.7985,-0.7988,-0.7988,-0.7988,-0.7988,-0.7988,-0.7992,-0.8147,-0.8241,-0.833,-0.8429,-0.8516,-0.8686,-0.9064,-0.9217,-0.8995,-0.8937,-0.8937,-0.8937,-0.8937,-0.8937,-0.8937,-0.8937,-0.8937,-0.8937,-0.8937,-0.8937,-0.8937,-0.8937,-0.8923,-0.8848,-0.8831,-0.8845,-0.8699,-0.8859,-0.9089,-0.9157,-0.9408,-0.989,0.7138,0.7089,0.7089,0.7036,0.6989,0.6986,0.6617,0.5992,0.5242,0.4745,0.448,0.3985,0.3758,0.3671,0.327,0.3093,0.3048,0.2648,0.2424,0.2334,0.2155,0.2064,0.1973,0.1541,0.1307,0.1257,0.0837,0.0615,0.0571,0.0559,0.0434,0.0276,0.0236,0.0039,-0.0275,-0.0354,-0.0511,-0.0786,-0.1375,-0.1767,-0.2004,-0.2196,-0.2392,-0.2627,-0.2824,-0.3022,-0.3219,-0.3448,-0.3643,-0.388,-0.4077,-0.4311,-0.4462,-0.4698,-0.4893,-0.5082,-0.5279,-0.5515,-0.586,-0.5938,-0.612,-0.6464,-0.663,-0.6848,-0.7068,-0.7095,-0.7095,-0.7095,-0.7095,-0.7095,-0.7105,-0.7305,-0.7511,-0.7584,-0.7746,-0.7892,-0.7965,-0.7988,-0.7988,-0.7988,-0.7988,-0.7988,-0.7995,-0.8015,-0.8133,-0.8235,-0.8347,-0.8401,-0.8635,-0.8842,-0.8927,-0.8937,-0.8937,-0.8937,-0.8937,-0.8937,-0.8937,-0.8937,-0.8937,-0.8937,-0.8937,-0.8937,-0.8933,-0.8878,-0.892,-0.8879,-0.8774,-0.8743,-0.8676,-0.8543,-0.8546,-0.8587,-0.8965,-0.9063,-0.9371,0.754,0.7441,0.7441,0.7338,0.7185,0.7185,0.6942,0.647,0.6128,0.5532,0.4844,0.4607,0.4431,0.4297,0.4121,0.3853,0.3582,0.336,0.3138,0.2871,0.278,0.2602,0.233,0.2063,0.1857,0.1704,0.1323,0.1092,0.0998,0.0829,0.0668,0.0471,0.0354,0.0196,0.0039,-0.0196,-0.0354,-0.0432,-0.0943,-0.1336,-0.1573,-0.1767,-0.1962,-0.2159,-0.2354,-0.251,-0.2627,-0.2902,-0.3137,-0.3255,-0.3528,-0.38,-0.4075,-0.4272,-0.4506,-0.4813,-0.5007,-0.5279,-0.5553,-0.5786,-0.6041,-0.6304,-0.6573,-0.679,-0.6964,-0.7051,-0.7095,-0.7095,-0.7095,-0.7095,-0.7102,-0.7282,-0.7443,-0.7465,-0.7672,-0.7834,-0.786,-0.7944,-0.7988,-0.7988,-0.7988,-0.7988,-0.7988,-0.7988,-0.8005,-0.814,-0.8208,-0.8326,-0.8462,-0.8601,-0.8757,-0.8844,-0.8937,-0.8937,-0.8881,-0.8937,-0.8937,-0.8937,-0.8937,-0.8937,-0.8937,-0.8933,-0.8844,-0.8777,-0.8815,-0.8754,-0.8618,-0.8584,-0.852,-0.8456,-0.8374,-0.8503,-0.8812,-0.9172,-0.9727,0.7892,0.7693,0.7696,0.7543,0.7388,0.7338,0.7134,0.6897,0.6841,0.6224,0.5382,0.5186,0.5055,0.4882,0.4792,0.452,0.4206,0.4117,0.3896,0.354,0.3405,0.3173,0.2802,0.2615,0.2388,0.2127,0.1877,0.164,0.1417,0.1179,0.0943,0.0668,0.0471,0.0354,0.0314,0.0,-0.0196,-0.0236,-0.0589,-0.0904,-0.114,-0.1297,-0.1493,-0.1769,-0.1923,-0.204,-0.2157,-0.2433,-0.263,-0.2668,-0.3018,-0.3331,-0.3569,-0.3843,-0.4116,-0.4465,-0.4696,-0.4929,-0.5204,-0.5592,-0.5911,-0.6099,-0.6404,-0.667,-0.6822,-0.6967,-0.7065,-0.7088,-0.7095,-0.7095,-0.7109,-0.7241,-0.7333,-0.7377,-0.7567,-0.7729,-0.7811,-0.787,-0.7958,-0.7978,-0.7988,-0.7988,-0.7988,-0.7988,-0.7992,-0.8012,-0.8147,-0.8221,-0.8323,-0.8426,-0.8547,-0.8747,-0.8862,-0.8879,-0.8834,-0.8865,-0.8878,-0.8937,-0.8848,-0.8879,-0.8869,-0.8859,-0.8798,-0.8682,-0.8659,-0.8598,-0.8525,-0.8431,-0.8374,-0.8255,-0.8204,-0.8376,-0.8766,-0.9331,-1.0064,0.7988,0.7992,0.7942,0.7939,0.7889,0.7643,0.7381,0.7139,0.6935,0.6596,0.6219,0.5808,0.5544,0.5327,0.5099,0.4968,0.4877,0.4703,0.4569,0.448,0.4072,0.3769,0.3617,0.3192,0.2791,0.2528,0.2272,0.2048,0.1848,0.1612,0.1336,0.0904,0.0668,0.0511,0.0314,0.0275,0.0157,-0.0039,-0.0236,-0.0471,-0.0668,-0.0668,-0.0904,-0.1336,-0.1375,-0.1571,-0.1847,-0.1964,-0.2081,-0.2235,-0.247,-0.2668,-0.2902,-0.3333,-0.3643,-0.3882,-0.4077,-0.4426,-0.4965,-0.5398,-0.5721,-0.5928,-0.6142,-0.6366,-0.667,-0.6865,-0.696,-0.7058,-0.7092,-0.7095,-0.7095,-0.7115,-0.7227,-0.7336,-0.7404,-0.7512,-0.774,-0.7824,-0.7885,-0.7975,-0.7971,-0.7988,-0.7985,-0.7988,-0.7988,-0.7988,-0.8012,-0.8123,-0.8221,-0.8269,-0.8333,-0.8499,-0.8632,-0.8716,-0.874,-0.8797,-0.8882,-0.8844,-0.8815,-0.8747,-0.8713,-0.8635,-0.8516,-0.8526,-0.8503,-0.8448,-0.8343,-0.8337,-0.8238,-0.814,-0.8089,-0.8211,-0.868,-0.9225,-0.9871,0.7988,0.7988,0.7988,0.7988,0.7992,0.7892,0.7677,0.7412,0.7312,0.706,0.6631,0.6438,0.6213,0.5988,0.5769,0.5589,0.5411,0.5191,0.5013,0.4872,0.4555,0.4376,0.4198,0.3766,0.3399,0.3123,0.2738,0.2433,0.2238,0.1925,0.1612,0.1336,0.11,0.0904,0.0668,0.0432,0.0275,0.0196,0.0,-0.0157,-0.0275,-0.0471,-0.0707,-0.0864,-0.0864,-0.0943,-0.114,-0.1375,-0.161,-0.1689,-0.1963,-0.2238,-0.2431,-0.2744,-0.3057,-0.337,-0.3841,-0.4311,-0.4774,-0.5085,-0.5318,-0.5512,-0.5958,-0.627,-0.6413,-0.6706,-0.6913,-0.6967,-0.7048,-0.7095,-0.7095,-0.7095,-0.7122,-0.7234,-0.7312,-0.7421,-0.7529,-0.7634,-0.7743,-0.7879,-0.7902,-0.7894,-0.7965,-0.7988,-0.7988,-0.7988,-0.7988,-0.8022,-0.8126,-0.8133,-0.8157,-0.8221,-0.835,-0.8479,-0.856,-0.8618,-0.8669,-0.8662,-0.8618,-0.8574,-0.8564,-0.8537,-0.8514,-0.8374,-0.8357,-0.8299,-0.816,-0.814,-0.8106,-0.8041,-0.8187,-0.8382,-0.8726,-0.9076,-0.9624,0.8088,0.8088,0.8038,0.7988,0.7988,0.7988,0.7872,0.7617,0.7597,0.7336,0.6894,0.6881,0.6789,0.6564,0.6302,0.6077,0.5899,0.5766,0.5547,0.5309,0.5082,0.4887,0.4628,0.4261,0.3925,0.3654,0.3281,0.2902,0.2589,0.2238,0.1963,0.1767,0.1571,0.1336,0.1022,0.0707,0.0511,0.0354,0.0196,0.0079,0.0039,-0.0275,-0.0471,-0.0511,-0.0511,-0.055,-0.0589,-0.0943,-0.11,-0.11,-0.1493,-0.1806,-0.1962,-0.2198,-0.2511,-0.2938,-0.3604,-0.4155,-0.4465,-0.4735,-0.5004,-0.521,-0.5689,-0.6035,-0.6223,-0.6516,-0.6733,-0.6875,-0.6953,-0.7045,-0.7095,-0.7095,-0.7095,-0.7102,-0.7248,-0.7316,-0.738,-0.7478,-0.7594,-0.7726,-0.7797,-0.7868,-0.7951,-0.7988,-0.7988,-0.7988,-0.7988,-0.7988,-0.7988,-0.7995,-0.7995,-0.7992,-0.8143,-0.8258,-0.8394,-0.8482,-0.8525,-0.8521,-0.8469,-0.8425,-0.8411,-0.8397,-0.835,-0.8211,-0.8211,-0.8187,-0.8052,-0.8008,-0.7998,-0.8041,-0.8187,-0.8382,-0.863,-0.8878,-0.9278,0.8382,0.8333,0.8137,0.7988,0.7988,0.7988,0.7872,0.7597,0.7597,0.7428,0.7115,0.7095,0.7095,0.7007,0.6609,0.6384,0.6387,0.634,0.6204,0.5968,0.564,0.5312,0.5077,0.4673,0.4332,0.4101,0.3849,0.3411,0.2824,0.2589,0.2353,0.2156,0.1963,0.1691,0.1336,0.1257,0.1022,0.0629,0.0393,0.0275,0.0236,0.0079,-0.0118,-0.0314,-0.0314,-0.0393,-0.055,-0.0629,-0.0629,-0.0629,-0.1061,-0.1335,-0.1375,-0.173,-0.212,-0.255,-0.3331,-0.3802,-0.3919,-0.4387,-0.4776,-0.5007,-0.5257,-0.558,-0.6045,-0.6226,-0.6386,-0.666,-0.6805,-0.694,-0.7058,-0.7088,-0.7095,-0.7095,-0.7102,-0.7179,-0.735,-0.7409,-0.7451,-0.759,-0.7716,-0.7845,-0.7955,-0.7988,-0.7978,-0.7985,-0.7988,-0.7988,-0.7988,-0.7988,-0.7988,-0.7988,-0.8012,-0.8052,-0.8255,-0.8333,-0.8421,-0.8411,-0.8316,-0.833,-0.8225,-0.8174,-0.8113,-0.8072,-0.8032,-0.8029,-0.7998,-0.7988,-0.7992,-0.7988,-0.7988,-0.8187,-0.8482,-0.8673,-0.9,0.8531,0.8382,0.8283,0.8134,0.7988,0.7988,0.7872,0.7607,0.7597,0.7428,0.7132,0.7095,0.7095,0.7095,0.6918,0.6786,0.6656,0.6476,0.6298,0.6173,0.5917,0.5743,0.5531,0.5047,0.4778,0.4665,0.4345,0.3917,0.3489,0.3175,0.2901,0.2589,0.2393,0.2158,0.1845,0.1492,0.1218,0.1022,0.0707,0.0432,0.0314,0.0236,0.0118,-0.0079,-0.0118,-0.0157,-0.0236,-0.0354,-0.0393,-0.0393,-0.0668,-0.0904,-0.1061,-0.1454,-0.1963,-0.2472,-0.2784,-0.3215,-0.3724,-0.3997,-0.4348,-0.4774,-0.5007,-0.5218,-0.5589,-0.586,-0.6099,-0.6329,-0.6484,-0.6668,-0.694,-0.7041,-0.7095,-0.7095,-0.7098,-0.7115,-0.7162,-0.7227,-0.7285,-0.7434,-0.758,-0.7729,-0.7851,-0.7896,-0.7933,-0.7968,-0.7988,-0.7988,-0.7988,-0.7988,-0.7988,-0.7988,-0.7992,-0.8008,-0.8099,-0.8153,-0.8194,-0.8187,-0.8147,-0.8133,-0.8099,-0.8099,-0.8008,-0.8005,-0.7992,-0.7988,-0.7988,-0.7988,-0.7988,-0.7988,-0.7988,-0.8054,-0.8382,-0.8448,-0.8694,0.8878,0.8531,0.8432,0.8287,0.8137,0.8038,0.7823,0.7614,0.7597,0.7428,0.7136,0.7095,0.7095,0.7095,0.7095,0.701,0.6881,0.6697,0.6536,0.6319,0.6221,0.6002,0.5783,0.5378,0.5204,0.5124,0.4813,0.4384,0.3997,0.3724,0.345,0.3137,0.2902,0.2588,0.2275,0.1884,0.161,0.1375,0.1022,0.0707,0.0511,0.0393,0.0236,0.0118,0.0039,0.0,0.0,-0.0118,-0.0196,-0.0236,-0.0393,-0.0629,-0.0904,-0.1297,-0.1689,-0.2159,-0.2393,-0.2744,-0.3333,-0.3645,-0.3958,-0.4389,-0.4657,-0.4888,-0.5168,-0.5438,-0.572,-0.5956,-0.6215,-0.6427,-0.6661,-0.6867,-0.7045,-0.7082,-0.7095,-0.7095,-0.7095,-0.7098,-0.7217,-0.7353,-0.7461,-0.7584,-0.7716,-0.7784,-0.7858,-0.7907,-0.7951,-0.7988,-0.7988,-0.7988,-0.7988,-0.7988,-0.7988,-0.7988,-0.8012,-0.8039,-0.8049,-0.8039,-0.8039,-0.8005,-0.7988,-0.7988,-0.7988,-0.7988,-0.7988,-0.7988,-0.7988,-0.7988,-0.7985,-0.7982,-0.7921,-0.7968,-0.8087,-0.8174,-0.8405,0.9274,0.8825,0.8531,0.8432,0.8382,0.8137,0.7872,0.7675,0.7597,0.7424,0.7115,0.7095,0.7095,0.7095,0.7095,0.7095,0.7098,0.7051,0.6877,0.6596,0.6463,0.6194,0.5848,0.565,0.5559,0.5521,0.5204,0.481,0.4421,0.4192,0.3999,0.3763,0.3487,0.3096,0.2549,0.2472,0.2158,0.1729,0.1415,0.114,0.0904,0.055,0.0314,0.0275,0.0118,0.0,0.0,0.0,0.0,0.0,-0.0196,-0.0471,-0.0825,-0.114,-0.1415,-0.1689,-0.2119,-0.2431,-0.2627,-0.3292,-0.3684,-0.388,-0.4192,-0.454,-0.4851,-0.5018,-0.5221,-0.556,-0.5921,-0.617,-0.6265,-0.6621,-0.692,-0.7065,-0.7082,-0.7095,-0.7095,-0.7095,-0.7193,-0.7319,-0.7366,-0.7434,-0.7577,-0.7682,-0.776,-0.7814,-0.7923,-0.7958,-0.7958,-0.7968,-0.7988,-0.7988,-0.7988,-0.7988,-0.7988,-0.7992,-0.7992,-0.7992,-0.7998,-0.7988,-0.7988,-0.7988,-0.7988,-0.7988,-0.7988,-0.7988,-0.7975,-0.7968,-0.7934,-0.7963,-0.7896,-0.7814,-0.7863,-0.7947,-0.8052,0.9673,0.9327,0.9084,0.8829,0.8627,0.8382,0.8112,0.7846,0.7695,0.7424,0.7136,0.7095,0.7095,0.7095,0.7095,0.7095,0.7095,0.7088,0.6967,0.6713,0.6639,0.6441,0.6159,0.5928,0.575,0.5598,0.5482,0.5201,0.4849,0.4735,0.4538,0.4229,0.3841,0.3604,0.3333,0.2823,0.2392,0.2198,0.1729,0.1415,0.1179,0.0864,0.0589,0.0314,0.0236,0.0157,0.0,0.0,0.0,0.0,-0.0039,-0.0236,-0.0511,-0.0825,-0.114,-0.1415,-0.1689,-0.2081,-0.2472,-0.2746,-0.3136,-0.3448,-0.38,-0.4075,-0.4387,-0.4621,-0.4893,-0.5165,-0.5439,-0.5726,-0.6114,-0.6309,-0.6566,-0.6923,-0.7034,-0.7092,-0.7095,-0.7095,-0.7119,-0.7152,-0.721,-0.7282,-0.74,-0.7502,-0.7567,-0.7662,-0.7787,-0.783,-0.7892,-0.7917,-0.7985,-0.7988,-0.7988,-0.7985,-0.7988,-0.7988,-0.7988,-0.7988,-0.7988,-0.7988,-0.7988,-0.7988,-0.7988,-0.7978,-0.7982,-0.7965,-0.7955,-0.7911,-0.7906,-0.7845,-0.7756,-0.7699,-0.7655,-0.7717,-0.7752,1.0212,0.9875,0.948,0.9229,0.9072,0.873,0.8396,0.8088,0.7879,0.7565,0.7276,0.7139,0.7095,0.7095,0.7095,0.7095,0.7095,0.7095,0.694,0.6736,0.6702,0.6539,0.6291,0.6138,0.5944,0.575,0.5712,0.5556,0.524,0.5162,0.4927,0.4618,0.4309,0.3997,0.3802,0.3253,0.2863,0.2511,0.212,0.1767,0.1453,0.1179,0.0864,0.055,0.0471,0.0314,0.0157,0.0118,0.0079,0.0,0.0,0.0,-0.0275,-0.055,-0.0786,-0.1022,-0.1336,-0.1689,-0.2041,-0.2276,-0.2549,-0.3018,-0.3294,-0.3608,-0.3921,-0.4272,-0.4465,-0.4851,-0.5087,-0.5391,-0.5784,-0.6014,-0.6241,-0.6607,-0.6853,-0.7031,-0.7075,-0.7095,-0.7098,-0.7105,-0.7102,-0.7193,-0.7255,-0.7398,-0.7446,-0.7516,-0.7638,-0.7733,-0.7763,-0.7858,-0.7916,-0.7928,-0.7961,-0.7968,-0.7985,-0.7988,-0.7988,-0.7988,-0.7988,-0.7988,-0.7988,-0.7988,-0.7988,-0.7955,-0.7944,-0.7874,-0.785,-0.7801,-0.7729,-0.7668,-0.7621,-0.755,-0.7485,-0.7383,-0.7431,1.09,1.0408,0.9875,0.9677,0.9521,0.9057,0.8668,0.8316,0.8088,0.7823,0.7501,0.7279,0.7143,0.7139,0.7139,0.7095,0.7095,0.7095,0.6983,0.6766,0.6685,0.6546,0.6334,0.6257,0.6141,0.5944,0.5906,0.5786,0.5559,0.544,0.5243,0.4965,0.4737,0.4426,0.3997,0.3802,0.3372,0.2784,0.255,0.2159,0.169,0.1454,0.1218,0.0943,0.0746,0.055,0.0354,0.0275,0.0196,0.0,0.0,-0.0079,-0.0236,-0.0275,-0.0432,-0.0629,-0.1022,-0.1258,-0.1453,-0.1805,-0.2235,-0.2472,-0.2746,-0.302,-0.3528,-0.3804,-0.4075,-0.4543,-0.481,-0.5046,-0.5313,-0.5613,-0.5938,-0.6192,-0.6657,-0.6943,-0.7061,-0.7082,-0.7095,-0.7095,-0.7095,-0.7102,-0.7122,-0.7268,-0.7329,-0.7383,-0.7485,-0.7567,-0.7614,-0.7689,-0.7777,-0.7838,-0.7889,-0.7843,-0.783,-0.7826,-0.7826,-0.7826,-0.786,-0.7904,-0.7938,-0.7951,-0.7934,-0.7907,-0.7896,-0.7831,-0.7763,-0.7665,-0.7597,-0.756,-0.7492,-0.7397,-0.7316,-0.7234,-0.7204,1.1292,1.0953,1.0609,1.0265,0.985,0.9437,0.9009,0.8567,0.8214,0.797,0.7753,0.7503,0.7415,0.737,0.7187,0.7095,0.7095,0.7095,0.698,0.6736,0.6702,0.6532,0.6351,0.63,0.6257,0.618,0.6138,0.606,0.5825,0.5747,0.555,0.5204,0.5046,0.4774,0.4465,0.4036,0.3724,0.3372,0.2785,0.2472,0.2238,0.1925,0.1573,0.1218,0.114,0.0904,0.055,0.0354,0.0196,0.0,0.0,0.0,0.0,-0.0196,-0.0314,-0.0393,-0.0629,-0.0943,-0.1257,-0.1453,-0.169,-0.2042,-0.2356,-0.2668,-0.2824,-0.345,-0.3802,-0.4114,-0.4348,-0.4696,-0.501,-0.5193,-0.5447,-0.5966,-0.6472,-0.6879,-0.694,-0.7034,-0.7095,-0.7095,-0.7092,-0.7095,-0.7109,-0.7129,-0.7173,-0.7241,-0.7329,-0.7434,-0.7458,-0.755,-0.7651,-0.7655,-0.7689,-0.7695,-0.7699,-0.7699,-0.7695,-0.7685,-0.7733,-0.7766,-0.7816,-0.7867,-0.784,-0.7855,-0.7736,-0.7658,-0.7604,-0.7533,-0.7492,-0.7434,-0.7343,-0.7244,-0.7217,-0.7115,-0.7119,1.1932,1.1639,1.1194,1.0801,1.0435,0.9921,0.9444,0.8983,0.8581,0.823,0.8011,0.7768,0.7595,0.7507,0.7323,0.7187,0.7139,0.7095,0.6976,0.6712,0.6607,0.6453,0.6323,0.63,0.63,0.63,0.63,0.6219,0.606,0.598,0.5744,0.5553,0.5356,0.5124,0.4815,0.4501,0.4151,0.388,0.3333,0.2979,0.2744,0.2354,0.2003,0.1689,0.1532,0.1218,0.0746,0.0471,0.0196,0.0,0.0,0.0,0.0,-0.0118,-0.0157,-0.0157,-0.0393,-0.0589,-0.0825,-0.1022,-0.1297,-0.1611,-0.1963,-0.2237,-0.2511,-0.302,-0.3292,-0.3682,-0.3958,-0.427,-0.4579,-0.4813,-0.5193,-0.5589,-0.6144,-0.6547,-0.6652,-0.6873,-0.6994,-0.7018,-0.7058,-0.7095,-0.7095,-0.7095,-0.7095,-0.7112,-0.7169,-0.7261,-0.7288,-0.7414,-0.7502,-0.7459,-0.7506,-0.7543,-0.751,-0.751,-0.7493,-0.7476,-0.7523,-0.7607,-0.7651,-0.7722,-0.7756,-0.7695,-0.758,-0.7495,-0.7455,-0.7397,-0.7316,-0.7248,-0.7122,-0.7109,-0.7098,-0.7095,-0.7095,1.2716,1.2365,1.1634,1.1282,1.1079,1.0468,0.9922,0.9515,0.9038,0.8605,0.8312,0.8072,0.7856,0.7551,0.7591,0.7415,0.7231,0.7231,0.6956,0.6736,0.6497,0.631,0.631,0.63,0.63,0.63,0.63,0.6257,0.6219,0.6057,0.5938,0.5825,0.5673,0.5437,0.5124,0.4965,0.4696,0.4272,0.3921,0.3526,0.3212,0.2823,0.251,0.2158,0.1728,0.1375,0.0982,0.0629,0.0314,0.0,0.0039,0.0,0.0,0.0,0.0,0.0,-0.0196,-0.0275,-0.0354,-0.0668,-0.0943,-0.1218,-0.1454,-0.1768,-0.2198,-0.2472,-0.2784,-0.3253,-0.3565,-0.3802,-0.4153,-0.4579,-0.4935,-0.5241,-0.5604,-0.5941,-0.6267,-0.6632,-0.6862,-0.6873,-0.6984,-0.7061,-0.7078,-0.7088,-0.7095,-0.7095,-0.7132,-0.7098,-0.7121,-0.715,-0.7203,-0.7164,-0.7234,-0.7376,-0.7379,-0.7379,-0.7313,-0.7293,-0.7316,-0.7346,-0.7403,-0.7449,-0.757,-0.7533,-0.7428,-0.7366,-0.7336,-0.7261,-0.7139,-0.7115,-0.7105,-0.7098,-0.7095,-0.7095,-0.7095,1.3098,1.2716,1.2565,1.1976,1.1225,1.0688,1.0255,0.979,0.9367,0.9002,0.874,0.8552,0.8288,0.8025,0.7896,0.7764,0.7625,0.7474,0.7203,0.6688,0.6436,0.631,0.63,0.63,0.63,0.63,0.63,0.63,0.6257,0.6219,0.6099,0.5902,0.5864,0.5709,0.5479,0.5201,0.4965,0.4735,0.4309,0.396,0.3684,0.337,0.2978,0.2433,0.1924,0.1533,0.1218,0.0943,0.0668,0.0432,0.0,0.0,0.0,0.0,0.0,0.0,0.0,-0.0118,-0.0275,-0.0393,-0.0511,-0.0786,-0.11,-0.1414,-0.1531,-0.204,-0.2353,-0.2666,-0.2902,-0.3294,-0.3802,-0.4268,-0.4582,-0.4823,-0.5037,-0.53,-0.5592,-0.6135,-0.6476,-0.6563,-0.6744,-0.693,-0.694,-0.6997,-0.7024,-0.7088,-0.7051,-0.701,-0.6986,-0.6923,-0.6898,-0.6834,-0.6863,-0.694,-0.694,-0.6992,-0.6946,-0.6943,-0.7021,-0.706,-0.707,-0.7177,-0.7266,-0.7275,-0.7282,-0.7244,-0.7241,-0.721,-0.7109,-0.7098,-0.7095,-0.7095,-0.7095,-0.7095,-0.7095,1.3678,1.3298,1.3055,1.2486,1.1779,1.1316,1.0776,1.0213,0.9781,0.9476,0.917,0.8903,0.86,0.8372,0.8157,0.7984,0.7855,0.7598,0.7328,0.6983,0.6641,0.6458,0.6412,0.6335,0.63,0.63,0.63,0.63,0.63,0.6296,0.6219,0.6099,0.606,0.5983,0.5789,0.5512,0.5354,0.5124,0.4735,0.4426,0.4192,0.3802,0.3253,0.2628,0.2198,0.1885,0.161,0.1258,0.1061,0.0825,0.0511,0.0236,0.0118,0.0039,0.0,0.0,0.0,0.0,-0.0157,-0.0236,-0.0354,-0.0471,-0.0786,-0.1061,-0.1257,-0.1649,-0.1884,-0.2199,-0.2512,-0.2902,-0.3526,-0.3919,-0.4192,-0.4389,-0.4579,-0.4774,-0.4998,-0.5608,-0.6179,-0.621,-0.6351,-0.6505,-0.6629,-0.673,-0.6731,-0.6703,-0.6729,-0.6688,-0.6653,-0.6627,-0.6577,-0.6542,-0.6488,-0.65,-0.6503,-0.651,-0.657,-0.6576,-0.663,-0.6671,-0.6678,-0.6831,-0.6988,-0.7042,-0.7152,-0.718,-0.7125,-0.7095,-0.7095,-0.7095,-0.7095,-0.7095,-0.7092,-0.7085,-0.7088,1.4256,1.3925,1.3445,1.2905,1.2433,1.1948,1.1342,1.0731,1.0338,0.9994,0.9646,0.9213,0.899,0.8723,0.8464,0.8193,0.7867,0.7624,0.7417,0.7223,0.681,0.6655,0.6598,0.6486,0.6374,0.6338,0.63,0.63,0.63,0.63,0.6257,0.63,0.6296,0.618,0.6018,0.5899,0.5705,0.5437,0.5124,0.489,0.4659,0.4231,0.3567,0.2942,0.255,0.2315,0.2003,0.169,0.1453,0.1375,0.0943,0.0668,0.0432,0.0157,0.0,0.0,0.0,0.0,0.0,-0.0157,-0.0236,-0.0275,-0.0432,-0.0707,-0.1021,-0.1178,-0.1414,-0.1806,-0.2198,-0.2668,-0.3173,-0.3448,-0.3684,-0.3958,-0.419,-0.4307,-0.4477,-0.5139,-0.5548,-0.5777,-0.5997,-0.6194,-0.6276,-0.6342,-0.6319,-0.632,-0.6342,-0.6325,-0.6328,-0.6248,-0.6204,-0.603,-0.5897,-0.5852,-0.5852,-0.5897,-0.5941,-0.6074,-0.6163,-0.6251,-0.6296,-0.6542,-0.6703,-0.6951,-0.7017,-0.7054,-0.7095,-0.7095,-0.7095,-0.7095,-0.7095,-0.7095,-0.7088,-0.7075,-0.7058,1.4688,1.4184,1.3874,1.3351,1.2682,1.2175,1.1673,1.1191,1.0921,1.0511,0.9994,0.9868,0.9559,0.9209,0.8907,0.8483,0.8033,0.7788,0.7539,0.7291,0.6962,0.6865,0.683,0.6598,0.6525,0.6486,0.6374,0.63,0.63,0.63,0.63,0.63,0.63,0.6257,0.618,0.6057,0.5899,0.5709,0.5434,0.5201,0.4929,0.4621,0.4155,0.3487,0.3059,0.2708,0.2433,0.2198,0.1962,0.1807,0.1415,0.1218,0.0983,0.0589,0.0314,0.0236,0.0157,0.0,0.0,0.0,-0.0039,-0.0079,-0.0236,-0.0354,-0.0511,-0.0668,-0.0983,-0.1414,-0.1923,-0.2354,-0.2588,-0.2863,-0.3137,-0.345,-0.3724,-0.3919,-0.4121,-0.4447,-0.4818,-0.503,-0.5474,-0.585,-0.5806,-0.5797,-0.5881,-0.5875,-0.5912,-0.5848,-0.5811,-0.5739,-0.5617,-0.5447,-0.5188,-0.5188,-0.5144,-0.523,-0.5275,-0.5411,-0.5544,-0.5808,-0.5941,-0.6251,-0.6476,-0.6564,-0.6789,-0.6881,-0.6966,-0.7051,-0.7095,-0.7095,-0.7095,-0.7088,-0.7041,-0.6991,-0.6923,1.4988,1.4465,1.4334,1.3768,1.3019,1.2688,1.2222,1.1661,1.1289,1.0982,1.0636,1.0299,0.9994,0.965,0.9388,0.8931,0.8488,0.8267,0.7963,0.7629,0.734,0.7134,0.7022,0.6791,0.6637,0.6525,0.6412,0.63,0.63,0.63,0.63,0.63,0.63,0.63,0.6257,0.618,0.6018,0.5902,0.5709,0.5437,0.516,0.4854,0.4428,0.3999,0.3567,0.3215,0.294,0.2666,0.2433,0.2198,0.1923,0.1689,0.1414,0.11,0.0707,0.0511,0.0354,0.0314,0.0275,0.0236,0.0157,0.0118,-0.0039,-0.0196,-0.0275,-0.0432,-0.0707,-0.1178,-0.1453,-0.1846,-0.2161,-0.2356,-0.2627,-0.2901,-0.3136,-0.3374,-0.3569,-0.3802,-0.4034,-0.4304,-0.4668,-0.4978,-0.5165,-0.5191,-0.5339,-0.5438,-0.549,-0.54,-0.5269,-0.5197,-0.5114,-0.4896,-0.4681,-0.4645,-0.4648,-0.4699,-0.4699,-0.4832,-0.4966,-0.523,-0.5408,-0.563,-0.5899,-0.6077,-0.6302,-0.6502,-0.6833,-0.6918,-0.7007,-0.7031,-0.7018,-0.697,-0.694,-0.6893,-0.6812,1.5241,1.4703,1.4646,1.4055,1.3328,1.3148,1.2742,1.2146,1.172,1.1408,1.1235,1.0766,1.0381,1.012,0.9831,0.9427,0.8948,0.8771,0.8469,0.8042,0.7708,0.745,0.7257,0.6949,0.6714,0.6676,0.649,0.6338,0.63,0.63,0.63,0.63,0.63,0.63,0.6257,0.6257,0.6138,0.6057,0.5899,0.5709,0.5359,0.4971,0.4623,0.4275,0.4038,0.38,0.3526,0.3214,0.294,0.2705,0.2392,0.2118,0.1806,0.1572,0.1258,0.0904,0.0746,0.0629,0.055,0.0471,0.0354,0.0354,0.0196,0.0039,-0.0157,-0.0275,-0.0511,-0.0983,-0.1178,-0.1335,-0.1729,-0.1923,-0.2118,-0.2353,-0.2589,-0.2746,-0.2943,-0.3176,-0.3372,-0.3643,-0.3917,-0.4182,-0.4402,-0.4543,-0.4639,-0.4707,-0.4755,-0.473,-0.463,-0.4653,-0.4549,-0.4404,-0.4261,-0.4186,-0.4196,-0.4257,-0.4255,-0.43,-0.4476,-0.4652,-0.4786,-0.4921,-0.5181,-0.5479,-0.5709,-0.5917,-0.6348,-0.6713,-0.6762,-0.6797,-0.6817,-0.6849,-0.6815,-0.6776,-0.6678,1.5464,1.4949,1.4702,1.4276,1.3698,1.3305,1.2924,1.2583,1.232,1.1886,1.137,1.1241,1.0939,1.0593,1.0337,0.9767,0.9211,0.901,0.8733,0.8203,0.7932,0.7799,0.765,0.73,0.7022,0.6865,0.6637,0.6447,0.6374,0.6296,0.63,0.63,0.63,0.63,0.63,0.63,0.63,0.6219,0.6018,0.5786,0.5518,0.5162,0.4968,0.4774,0.454,0.4229,0.3997,0.3763,0.3528,0.3292,0.2784,0.247,0.2354,0.2043,0.1848,0.1533,0.114,0.0629,0.0668,0.0629,0.0629,0.0589,0.0511,0.0393,0.0196,-0.0079,-0.0275,-0.0354,-0.0589,-0.0904,-0.1258,-0.1375,-0.1611,-0.1846,-0.2119,-0.2237,-0.2393,-0.263,-0.2826,-0.2904,-0.3176,-0.345,-0.371,-0.3835,-0.3928,-0.3949,-0.4007,-0.3973,-0.394,-0.3928,-0.3873,-0.3678,-0.3573,-0.3455,-0.3507,-0.3617,-0.3715,-0.373,-0.3947,-0.4078,-0.415,-0.4314,-0.4577,-0.4868,-0.5046,-0.5369,-0.5828,-0.6173,-0.6405,-0.6514,-0.6518,-0.6595,-0.6725,-0.6624,-0.6468,1.5365,1.4988,1.4696,1.423,1.3748,1.3528,1.3264,1.2918,1.2662,1.2357,1.1935,1.1768,1.1462,1.1068,1.0809,1.0266,0.969,0.9536,0.914,0.8548,0.8331,0.8102,0.7804,0.7531,0.7292,0.7061,0.6791,0.656,0.6447,0.6335,0.63,0.63,0.63,0.63,0.63,0.63,0.63,0.6219,0.606,0.5864,0.5747,0.5518,0.5282,0.5162,0.489,0.4657,0.4465,0.4231,0.3958,0.3722,0.3331,0.302,0.2746,0.2473,0.2316,0.2041,0.1765,0.1491,0.1375,0.1139,0.1022,0.0904,0.0786,0.055,0.0432,0.0236,-0.0039,-0.0118,-0.0314,-0.0589,-0.0825,-0.0904,-0.1179,-0.1414,-0.1649,-0.1806,-0.1924,-0.212,-0.2278,-0.2357,-0.2396,-0.2708,-0.3022,-0.3224,-0.331,-0.3333,-0.3329,-0.3317,-0.321,-0.3095,-0.3034,-0.2889,-0.2773,-0.2649,-0.2738,-0.2791,-0.2922,-0.3016,-0.3313,-0.3483,-0.3526,-0.3707,-0.3958,-0.4169,-0.437,-0.4796,-0.5261,-0.5624,-0.5876,-0.6029,-0.622,-0.6251,-0.6278,-0.6261,-0.6169,1.505,1.4881,1.4609,1.422,1.3828,1.3737,1.3519,1.3222,1.296,1.2747,1.2454,1.2118,1.1774,1.1505,1.13,1.0916,1.0248,1.0197,0.9666,0.9135,0.8742,0.8437,0.8102,0.7791,0.7488,0.7257,0.6988,0.6718,0.6563,0.6451,0.6374,0.63,0.63,0.63,0.63,0.63,0.63,0.6257,0.6138,0.6022,0.598,0.5789,0.5631,0.5434,0.524,0.5046,0.4854,0.4657,0.4384,0.4114,0.388,0.3528,0.3176,0.2981,0.2785,0.2549,0.2392,0.2315,0.2081,0.1768,0.1533,0.1297,0.11,0.0825,0.0786,0.0589,0.0314,0.0118,-0.0039,-0.0236,-0.0432,-0.055,-0.0746,-0.0982,-0.1139,-0.1336,-0.1533,-0.169,-0.1807,-0.1886,-0.1964,-0.2044,-0.2318,-0.2553,-0.2711,-0.2749,-0.272,-0.2656,-0.2536,-0.2383,-0.2398,-0.2327,-0.2335,-0.2219,-0.2279,-0.2277,-0.2313,-0.2347,-0.2679,-0.2812,-0.2869,-0.3043,-0.323,-0.3461,-0.368,-0.401,-0.4402,-0.4885,-0.5322,-0.5527,-0.5725,-0.578,-0.5793,-0.5791,-0.5876,1.4532,1.4549,1.4522,1.4342,1.4046,1.3786,1.3688,1.3568,1.3392,1.3088,1.2711,1.2252,1.208,1.1952,1.1815,1.1506,1.088,1.0724,1.0179,0.952,0.9008,0.8742,0.8441,0.8063,0.7684,0.745,0.7219,0.6949,0.6676,0.6563,0.6451,0.63,0.63,0.63,0.63,0.63,0.63,0.63,0.6219,0.6219,0.6177,0.6022,0.5864,0.5786,0.5631,0.544,0.5282,0.5046,0.481,0.4584,0.4309,0.4038,0.3724,0.3526,0.3292,0.3137,0.3061,0.3022,0.2826,0.2318,0.1925,0.1729,0.1533,0.1257,0.1179,0.0825,0.055,0.0354,0.0236,0.0079,-0.0157,-0.0354,-0.0432,-0.0629,-0.0786,-0.0864,-0.1061,-0.1218,-0.1336,-0.1415,-0.1493,-0.1533,-0.1573,-0.1847,-0.2201,-0.2278,-0.2121,-0.2053,-0.1893,-0.1803,-0.1852,-0.1902,-0.1951,-0.1929,-0.2006,-0.2002,-0.1817,-0.1813,-0.206,-0.2155,-0.2211,-0.2379,-0.265,-0.2771,-0.3036,-0.327,-0.3583,-0.4027,-0.4506,-0.4969,-0.5212,-0.5289,-0.5423,-0.5539,-0.5673,1.4416,1.4262,1.4255,1.4188,1.4088,1.4004,1.3828,1.3695,1.361,1.3392,1.3094,1.2802,1.2589,1.246,1.2217,1.1842,1.1249,1.1123,1.0522,0.9985,0.9539,0.916,0.8818,0.8441,0.814,0.7718,0.7488,0.7176,0.6826,0.6714,0.6486,0.6335,0.63,0.63,0.63,0.63,0.63,0.63,0.63,0.63,0.6257,0.6219,0.606,0.586,0.5864,0.5673,0.5518,0.5401,0.5168,0.4932,0.4735,0.4462,0.4231,0.4073,0.388,0.3686,0.3686,0.3608,0.3413,0.2865,0.2393,0.208,0.1923,0.1766,0.1533,0.1218,0.0943,0.0746,0.055,0.0393,0.0157,0.0079,-0.0039,-0.0275,-0.0432,-0.0471,-0.0589,-0.0825,-0.0904,-0.0983,-0.0982,-0.0982,-0.1022,-0.11,-0.1493,-0.1808,-0.1612,-0.1454,-0.1336,-0.1258,-0.1347,-0.1353,-0.1399,-0.1359,-0.1382,-0.1299,-0.1212,-0.1336,-0.146,-0.1546,-0.1632,-0.1937,-0.2205,-0.2289,-0.2377,-0.2644,-0.2953,-0.3263,-0.3734,-0.4332,-0.4671,-0.4833,-0.5012,-0.5204,-0.5437,1.4275,1.4095,1.4088,1.4088,1.4088,1.4088,1.4004,1.3864,1.3822,1.3701,1.3483,1.3264,1.3094,1.2918,1.2778,1.229,1.1798,1.1484,1.0947,1.0384,0.9916,0.9576,0.916,0.878,0.8441,0.8025,0.7684,0.7411,0.7096,0.6826,0.6598,0.6451,0.6338,0.63,0.63,0.63,0.63,0.63,0.63,0.63,0.63,0.6257,0.6257,0.6057,0.6022,0.5906,0.575,0.5634,0.5518,0.5321,0.5126,0.4965,0.4732,0.454,0.4423,0.4309,0.4192,0.4114,0.388,0.3411,0.2862,0.255,0.2314,0.2119,0.1885,0.165,0.1336,0.1061,0.0864,0.0707,0.0471,0.0314,0.0196,-0.0079,-0.0196,-0.0275,-0.0314,-0.0471,-0.055,-0.0589,-0.0589,-0.0707,-0.0707,-0.0786,-0.0943,-0.1258,-0.1179,-0.1022,-0.0943,-0.0864,-0.0826,-0.0828,-0.0829,-0.0749,-0.0669,-0.0793,-0.0918,-0.0916,-0.1036,-0.1072,-0.1188,-0.1493,-0.1691,-0.1783,-0.1901,-0.2083,-0.2359,-0.2684,-0.319,-0.3769,-0.4112,-0.4423,-0.4693,-0.489,-0.5124,1.4102,1.4088,1.4088,1.4088,1.4088,1.4088,1.4088,1.4039,1.4046,1.3913,1.3695,1.3476,1.3392,1.3349,1.3264,1.2819,1.2265,1.1994,1.148,1.0773,1.025,0.9954,0.9576,0.916,0.8742,0.8556,0.8102,0.768,0.7407,0.7057,0.6791,0.6602,0.6451,0.6296,0.6296,0.63,0.63,0.63,0.63,0.63,0.63,0.63,0.6257,0.6219,0.6219,0.6103,0.5983,0.5906,0.5789,0.5595,0.5518,0.5359,0.5043,0.5007,0.4851,0.454,0.4501,0.4423,0.4345,0.38,0.3448,0.31,0.2824,0.2589,0.2393,0.212,0.1768,0.1453,0.1296,0.1061,0.0746,0.0432,0.0354,0.0236,0.0079,-0.0039,-0.0118,-0.0196,-0.0275,-0.0314,-0.0471,-0.0589,-0.0589,-0.0589,-0.0589,-0.0629,-0.0629,-0.0589,-0.055,0.0,0.0,-0.0432,-0.0432,-0.0432,-0.0432,-0.0511,-0.0591,-0.0589,-0.0629,-0.0707,-0.0746,-0.0943,-0.114,-0.1297,-0.1454,-0.1649,-0.1884,-0.2121,-0.2668,-0.3176,-0.3726,-0.4077,-0.4348,-0.454,-0.4696,1.4088,1.4088,1.4088,1.4088,1.4088,1.4088,1.4088,1.4088,1.4088,1.4039,1.3955,1.3695,1.361,1.3568,1.3432,1.3099,1.2567,1.2267,1.1747,1.101,1.0588,1.025,0.9879,0.9506,0.9084,0.8665,0.8212,0.7834,0.748,0.7211,0.7019,0.6791,0.6563,0.6412,0.6335,0.63,0.63,0.63,0.63,0.63,0.63,0.63,0.63,0.63,0.63,0.6219,0.6138,0.6138,0.6022,0.5828,0.5789,0.567,0.5437,0.5398,0.5321,0.5168,0.5168,0.5049,0.489,0.4538,0.4187,0.3763,0.3413,0.3098,0.2747,0.2472,0.2198,0.1923,0.1688,0.1414,0.11,0.0825,0.0668,0.0471,0.0354,0.0236,0.0118,0.0,-0.0118,-0.0118,-0.0196,0.0,0.0,0.0,0.0,0.0,-0.0354,-0.0314,-0.0236,0.0,0.0,0.0,-0.0157,-0.0157,0.0,0.0,0.0,-0.0275,-0.0354,-0.0432,-0.0511,-0.0589,-0.0707,-0.0904,-0.1061,-0.1218,-0.1453,-0.1728,-0.2119,-0.2589,-0.3061,-0.3569,-0.388,-0.4073,-0.4229,1.4088,1.4088,1.4088,1.4088,1.4088,1.4088,1.4088,1.4088,1.4088,1.4088,1.4046,1.3913,1.3828,1.3779,1.3656,1.3265,1.2729,1.2559,1.1987,1.1278,1.0999,1.0594,1.018,0.9809,0.9387,0.8932,0.8518,0.8136,0.7868,0.7484,0.7176,0.6903,0.6714,0.6528,0.6412,0.6374,0.63,0.63,0.63,0.63,0.63,0.63,0.63,0.63,0.63,0.6257,0.6296,0.6257,0.6219,0.606,0.598,0.5906,0.5789,0.5712,0.5673,0.5637,0.5562,0.5443,0.5243,0.5204,0.4815,0.4307,0.4075,0.3686,0.3215,0.2981,0.2627,0.2354,0.208,0.1806,0.1533,0.1257,0.0982,0.0786,0.0589,0.0471,0.0275,0.0157,0.0039,0.0039,0.0,0.0,0.0,0.0,0.0,0.0,-0.0118,0.0,0.0,0.0,0.0,0.0,0.0,0.0,0.0,0.0,0.0,0.0,0.0,0.0,-0.0275,-0.0354,-0.0432,-0.0511,-0.0746,-0.0904,-0.11,-0.1375,-0.1689,-0.1962,-0.2316,-0.2824,-0.3333,-0.3606,-0.3761,1.4088,1.4088,1.4088,1.4088,1.4088,1.4088,1.4088,1.4088,1.4088,1.4088,1.4088,1.4088,1.4039,1.4088,1.4046,1.3631,1.2981,1.2856,1.2235,1.1627,1.1229,1.085,1.0481,1.011,0.969,0.9316,0.8899,0.8513,0.8327,0.7791,0.733,0.7019,0.683,0.6679,0.6602,0.6451,0.6335,0.63,0.63,0.63,0.63,0.63,0.63,0.63,0.63,0.63,0.63,0.6257,0.6257,0.6257,0.6257,0.6138,0.6018,0.5938,0.5789,0.5676,0.5679,0.5637,0.5598,0.5556,0.5401,0.489,0.4504,0.4114,0.3802,0.3487,0.3136,0.2785,0.2511,0.2238,0.1964,0.1649,0.1335,0.11,0.0864,0.0668,0.0432,0.0314,0.0196,0.0118,0.0039,0.0,0.0,0.0,0.0,0.0,0.0,0.0,0.0,0.0,0.0,0.0,0.0,0.0,0.0,0.0,0.0,0.0,0.0,0.0,0.0,0.0,-0.0236,-0.0354,-0.0471,-0.0629,-0.0825,-0.1022,-0.1218,-0.1492,-0.1728,-0.2237,-0.2784,-0.3136,-0.337,1.4088,1.4088,1.4088,1.4088,1.4088,1.4088,1.4088,1.4088,1.4088,1.4088,1.4088,1.4088,1.4088,1.4088,1.4082,1.3666,1.3286,1.2897,1.2447,1.1948,1.1446,1.1186,1.0812,1.0368,0.9992,0.9614,0.9231,0.8851,0.8513,0.8021,0.7599,0.733,0.7099,0.6945,0.6791,0.6641,0.649,0.6338,0.6338,0.63,0.63,0.63,0.63,0.63,0.63,0.63,0.63,0.63,0.63,0.63,0.63,0.6219,0.6219,0.618,0.6141,0.6106,0.6067,0.6025,0.5864,0.5786,0.567,0.5437,0.5087,0.4698,0.4309,0.3958,0.3645,0.3333,0.2981,0.2669,0.2395,0.208,0.1805,0.1532,0.1257,0.0982,0.0746,0.0511,0.0393,0.0196,0.0079,0.0,0.0,0.0,0.0,0.0,0.0,0.0,0.0,0.0,0.0,0.0,0.0,0.0,0.0,0.0,0.0,0.0,0.0,0.0,0.0,0.0,0.0,-0.0157,-0.0275,-0.0432,-0.0629,-0.0786,-0.0904,-0.0982,-0.1178,-0.1727,-0.2196,-0.2549,-0.2901,1.4088,1.4088,1.4088,1.4088,1.4088,1.4088,1.4088,1.4088,1.4088,1.4088,1.4088,1.4088,1.4088,1.4088,1.4055,1.3781,1.3207,1.3068,1.2654,1.2014,1.1676,1.1335,1.0999,1.0663,1.0293,0.9949,0.9609,0.9306,0.8932,0.8475,0.8059,0.7714,0.7488,0.7292,0.7096,0.6903,0.6676,0.6528,0.6416,0.6338,0.63,0.63,0.63,0.63,0.63,0.63,0.63,0.63,0.63,0.63,0.63,0.63,0.63,0.63,0.63,0.6261,0.6261,0.618,0.6099,0.606,0.5906,0.575,0.5592,0.5321,0.4893,0.4504,0.4194,0.3843,0.3452,0.3098,0.2824,0.2549,0.2276,0.1963,0.1649,0.1336,0.1022,0.0746,0.0511,0.0314,0.0,0.0,0.0,0.0,0.0,0.0,0.0,0.0,0.0,0.0,0.0,0.0,0.0,0.0,0.0,0.0,0.0,0.0,0.0,0.0,0.0,0.0,0.0,0.0,-0.0118,0.0,0.0,0.0,-0.055,-0.0629,-0.0746,-0.1139,-0.1609,-0.2002,-0.2354,1.4088,1.4088,1.4088,1.4088,1.4088,1.4088,1.4088,1.4088,1.4088,1.4088,1.4088,1.4088,1.4088,1.4075,1.4008,1.3707,1.33,1.3087,1.271,1.2016,1.1818,1.1558,1.1298,1.0925,1.0625,1.0325,1.003,0.976,0.9463,0.897,0.8437,0.8136,0.7791,0.7599,0.7446,0.7173,0.6942,0.6834,0.6602,0.6412,0.6338,0.6338,0.63,0.63,0.63,0.63,0.63,0.63,0.63,0.63,0.63,0.63,0.63,0.63,0.63,0.63,0.63,0.6257,0.6257,0.6219,0.6138,0.6022,0.5899,0.5709,0.5359,0.489,0.4543,0.4309,0.3956,0.3604,0.3292,0.3018,0.2744,0.2393,0.2003,0.1649,0.1297,0.0982,0.0629,0.0393,0.0,0.0,0.0,0.0,0.0,0.0,0.0,0.0,0.0,0.0,0.0,0.0,0.0,0.0,0.0,0.0,0.0,0.0,0.0,0.0,0.0,0.0,0.0,0.0,0.0,0.0,0.0,0.0,0.0,-0.0354,-0.0471,-0.0629,-0.0982,-0.1414,-0.1806,1.4088,1.4088,1.4088,1.4088,1.4088,1.4088,1.4088,1.4088,1.4088,1.4088,1.4088,1.4088,1.4075,1.4035,1.3854,1.35,1.3233,1.2973,1.2645,1.2287,1.2003,1.1818,1.1669,1.126,1.0999,1.0812,1.055,1.0143,0.9765,0.9273,0.8851,0.8551,0.825,0.8021,0.7757,0.7484,0.7292,0.718,0.6907,0.6679,0.6563,0.6374,0.63,0.63,0.63,0.63,0.63,0.63,0.63,0.63,0.63,0.63,0.63,0.63,0.63,0.63,0.63,0.63,0.63,0.63,0.6219,0.6177,0.606,0.5941,0.5631,0.5201,0.4888,0.4693,0.4462,0.4112,0.38,0.3526,0.3253,0.2784,0.2354,0.1963,0.1572,0.114,0.0746,0.0511,0.0314,0.0,0.0,0.0,0.0,0.0,0.0,0.0,0.0,0.0,0.0,0.0,0.0,0.0,0.0,0.0,0.0,0.0,0.0,0.0,0.0,0.0,0.0,0.0,0.0,0.0,0.0,0.0,0.0,0.0,-0.0236,-0.0393,-0.0511,-0.0825,-0.1257,1.4243,1.4201,1.4124,1.4088,1.4088,1.4088,1.4088,1.4088,1.4088,1.4088,1.4088,1.4075,1.4021,1.3921,1.366,1.3327,1.3099,1.2878,1.2623,1.2311,1.2114,1.2003,1.1781,1.1552,1.1366,1.1149,1.0812,1.0406,1.003,0.969,0.9311,0.9046,0.8784,0.8441,0.8136,0.7906,0.768,0.7492,0.7253,0.7061,0.683,0.6602,0.6374,0.6335,0.63,0.63,0.63,0.63,0.63,0.63,0.63,0.63,0.63,0.63,0.63,0.63,0.63,0.63,0.63,0.63,0.63,0.6219,0.6219,0.606,0.606,0.5631,0.5318,0.5124,0.4849,0.4499,0.4229,0.3958,0.3643,0.3294,0.2668,0.2158,0.1729,0.1297,0.0982,0.0746,0.055,0.0,0.0,0.0,0.0,0.0,0.0,0.0,0.0,0.0196,0.0196,0.0196,0.0157,0.0,0.0,0.0,0.0,0.0,0.0,0.0,0.0,0.0,0.0,0.0,0.0,0.0,0.0,0.0,0.0,0.0,0.0,-0.0196,-0.0275,-0.0354,-0.0746,1.444,1.4356,1.4159,1.4088,1.4088,1.4088,1.4088,1.4088,1.4088,1.4088,1.4068,1.4035,1.382,1.368,1.3527,1.318,1.2904,1.2717,1.2472,1.2328,1.2114,1.2114,1.2003,1.1818,1.1595,1.1335,1.0999,1.0663,1.0288,1.0024,0.9803,0.9582,0.9198,0.8813,0.8661,0.8403,0.8063,0.7872,0.7676,0.7446,0.7176,0.6868,0.6602,0.6412,0.6338,0.6338,0.63,0.63,0.63,0.63,0.63,0.63,0.63,0.63,0.63,0.63,0.63,0.63,0.63,0.63,0.63,0.6296,0.63,0.6257,0.6219,0.606,0.5709,0.5473,0.5201,0.4927,0.4618,0.4348,0.4036,0.3606,0.2942,0.2354,0.1924,0.1493,0.1218,0.0982,0.0825,0.0668,0.0629,0.0629,0.0629,0.0629,0.0629,0.0629,0.0589,0.0471,0.0432,0.0393,0.0314,0.0,0.0,0.0,0.0,0.0,0.0,0.0,0.0,0.0,0.0,0.0,0.0,0.0,0.0,0.0,0.0,0.0,0.0,0.0,-0.0157,-0.0236,-0.0354,1.4566,1.4398,1.4208,1.4088,1.4088,1.4088,1.4088,1.4088,1.4088,1.4088,1.4028,1.3786,1.3633,1.358,1.3373,1.3046,1.275,1.2563,1.2412,1.2274,1.2231,1.2224,1.215,1.1966,1.1713,1.1446,1.1186,1.0925,1.07,1.0475,1.0218,0.9884,0.9809,0.9425,0.8922,0.8699,0.8518,0.8289,0.8063,0.7834,0.7446,0.7138,0.6753,0.6641,0.6563,0.6451,0.6335,0.6296,0.63,0.63,0.63,0.63,0.63,0.63,0.63,0.63,0.63,0.63,0.63,0.63,0.63,0.63,0.63,0.63,0.6257,0.6257,0.5983,0.5786,0.5512,0.5201,0.4929,0.4698,0.4426,0.3763,0.3098,0.2666,0.2276,0.1846,0.1492,0.1296,0.11,0.0943,0.0786,0.0786,0.0786,0.0786,0.0825,0.0786,0.0864,0.0746,0.0707,0.0668,0.0629,0.0,0.0,0.0,0.0,0.0,0.0,0.0,0.0,0.0,0.0,0.0,0.0,0.0,0.0,0.0,0.0,0.0,0.0,0.0,0.0,-0.0118,-0.0196]}]]